[[{"header":{"parameterUnit":"m.s-1","parameterCategory":1,"la1":30.6,"la2":28.766,"lo1":-90.7593,"lo2":-88.6598,"dy":0.0162,"dx":0.0183,"nx":116,"ny":114,"refTime":"2023-03-08T18:00:00:Z","depth":0,"parameterNumber":2,"parameterNumberName":"U-component_of_WINDS"},"data":[0.0,0.0,0.0,0.0,0.0,0.0,0.0,0.0,0.0,0.0,0.0,0.0,0.0,0.0,0.0,0.0,0.0,0.0,0.0,0.0,0.0,0.0,0.0,0.0,0.0,0.0,0.0,0.0,0.0,0.0,0.0,0.0,0.0,0.0,0.0,0.0,0.0,0.0,0.0,0.0,0.0,0.0,0.0,0.0,0.0,0.0,0.0,0.0,0.0,0.0,0.0,0.0,0.0,0.0,0.0,0.0,0.0,0.0,0.0,0.0,0.0,0.0,0.0,0.0,0.0,0.0,0.0,0.0,0.0,0.0,0.0,0.0,0.0,0.0,0.0,0.0,0.0,0.0,0.0,0.0,0.0,0.0,0.0,0.0,0.0,0.0,0.0,0.0,0.0,0.0,0.0,0.0,0.0,0.0,0.0,0.0,0.0,0.0,0.0,0.0,0.0,0.0,0.0,0.0,0.0,0.0,0.0,0.0,0.0,0.0,0.0,0.0,0.0,0.0,0.0,0.0,0.0,0.0,0.0,0.0,0.0,0.0,0.0,0.0,0.0,0.0,0.0,0.0,0.0,0.0,0.0,0.0,0.0,0.0,0.0,0.0,0.0,0.0,0.0,0.0,0.0,0.0,0.0,0.0,0.0,0.0,0.0,0.0,0.0,0.0,0.0,0.0,0.0,0.0,0.0,0.0,0.0,0.0,0.0,0.0,0.0,0.0,0.0,0.0,0.0,0.0,0.0,0.0,0.0,0.0,0.0,0.0,0.0,0.0,0.0,0.0,0.0,0.0,0.0,0.0,0.0,0.0,0.0,0.0,0.0,0.0,0.0,0.0,0.0,0.0,0.0,0.0,0.0,0.0,0.0,0.0,0.0,0.0,0.0,0.0,0.0,0.0,0.0,0.0,0.0,0.0,0.0,0.0,0.0,0.0,0.0,0.0,0.0,0.0,0.0,0.0,0.0,0.0,0.0,0.0,0.0,0.0,0.0,0.0,0.0,0.0,0.0,0.0,0.0,0.0,0.0,0.0,0.0,0.0,0.0,0.0,0.0,0.0,0.0,0.0,0.0,0.0,0.0,0.0,0.0,0.0,0.0,0.0,0.0,0.0,0.0,0.0,0.0,0.0,0.0,0.0,0.0,0.0,0.0,0.0,0.0,0.0,0.0,0.0,0.0,0.0,0.0,0.0,0.0,0.0,0.0,0.0,0.0,0.0,0.0,0.0,0.0,0.0,0.0,0.0,0.0,0.0,0.0,0.0,0.0,0.0,0.0,0.0,0.0,0.0,0.0,0.0,0.0,0.0,0.0,0.0,0.0,0.0,0.0,0.0,0.0,0.0,0.0,0.0,0.0,0.0,0.0,0.0,0.0,0.0,0.0,0.0,0.0,0.0,0.0,0.0,0.0,0.0,0.0,0.0,0.0,0.0,0.0,0.0,0.0,0.0,0.0,0.0,0.0,0.0,0.0,0.0,0.0,0.0,0.0,0.0,0.0,0.0,0.0,0.0,0.0,0.0,0.0,0.0,0.0,0.0,0.0,0.0,0.0,0.0,0.0,0.0,0.0,0.0,0.0,0.0,0.0,0.0,0.0,0.0,0.0,0.0,0.0,0.0,0.0,0.0,0.0,0.0,0.0,0.0,0.0,0.0,0.0,0.0,0.0,0.0,0.0,0.0,0.0,0.0,0.0,0.0,0.0,0.0,0.0,0.0,0.0,0.0,0.0,0.0,0.0,0.0,0.0,0.0,0.0,0.0,0.0,0.0,0.0,0.0,0.0,0.0,0.0,0.0,0.0,0.0,0.0,0.0,0.0,0.0,0.0,0.0,0.0,0.0,0.0,0.0,0.0,0.0,0.0,0.0,0.0,0.0,0.0,0.0,0.0,0.0,0.0,0.0,0.0,0.0,0.0,0.0,0.0,0.0,0.0,0.0,0.0,0.0,0.0,0.0,0.0,0.0,0.0,0.0,0.0,0.0,0.0,0.0,0.0,0.0,0.0,0.0,0.0,0.0,0.0,0.0,0.0,0.0,0.0,0.0,0.0,0.0,0.0,0.0,0.0,0.0,0.0,0.0,0.0,0.0,0.0,0.0,0.0,0.0,0.0,0.0,0.0,0.0,0.0,0.0,0.0,0.0,0.0,0.0,0.0,0.0,0.0,0.0,0.0,0.0,0.0,0.0,0.0,0.0,0.0,0.0,0.0,0.0,0.0,0.0,0.0,0.0,0.0,0.0,0.0,0.0,0.0,0.0,0.0,0.0,0.0,0.0,0.0,0.0,0.0,0.0,0.0,0.0,0.0,0.0,0.0,0.0,0.0,0.0,0.0,0.0,0.0,0.0,0.0,0.0,0.0,0.0,0.0,0.0,0.0,0.0,0.0,0.0,0.0,0.0,0.0,0.0,0.0,0.0,0.0,0.0,0.0,0.0,0.0,0.0,0.0,0.0,0.0,0.0,0.0,0.0,0.0,0.0,0.0,0.0,0.0,0.0,0.0,0.0,0.0,0.0,0.0,0.0,0.0,0.0,0.0,0.0,0.0,0.0,0.0,0.0,0.0,0.0,0.0,0.0,0.0,0.0,0.0,0.0,0.0,0.0,0.0,0.0,0.0,0.0,0.0,0.0,0.0,0.0,0.0,0.0,0.0,0.0,0.0,0.0,0.0,0.0,0.0,0.0,0.0,0.0,0.0,0.0,0.0,0.0,0.0,0.0,0.0,0.0,0.0,0.0,0.0,0.0,0.0,0.0,0.0,0.0,0.0,0.0,0.0,0.0,0.0,0.0,0.0,0.0,0.0,0.0,0.0,0.0,0.0,0.0,0.0,0.0,0.0,0.0,0.0,0.0,0.0,0.0,0.0,0.0,0.0,0.0,0.0,0.0,0.0,0.0,0.0,0.0,0.0,0.0,0.0,0.0,0.0,0.0,0.0,0.0,0.0,0.0,0.0,0.0,0.0,0.0,0.0,0.0,0.0,0.0,0.0,0.0,0.0,0.0,0.0,0.0,0.0,0.0,0.0,0.0,0.0,0.0,0.0,0.0,0.0,0.0,0.0,0.0,0.0,0.0,0.0,0.0,0.0,0.0,0.0,0.0,0.0,0.0,0.0,0.0,0.0,0.0,0.0,0.0,0.0,0.0,0.0,0.0,0.0,0.0,0.0,0.0,0.0,0.0,0.0,0.0,0.0,0.0,0.0,0.0,0.0,0.0,0.0,0.0,0.0,0.0,0.0,0.0,0.0,0.0,0.0,0.0,0.0,0.0,0.0,0.0,0.0,0.0,0.0,0.0,0.0,0.0,0.0,0.0,0.0,0.0,0.0,0.0,0.0,0.0,0.0,0.0,0.0,0.0,0.0,0.0,0.0,0.0,0.0,0.0,0.0,0.0,0.0,0.0,0.0,0.0,0.0,0.0,0.0,0.0,0.0,0.0,0.0,0.0,0.0,0.0,0.0,0.0,0.0,0.0,0.0,0.0,0.0,0.0,0.0,0.0,0.0,0.0,0.0,0.0,0.0,0.0,0.0,0.0,0.0,0.0,0.0,0.0,0.0,0.0,0.0,0.0,0.0,0.0,0.0,0.0,0.0,0.0,0.0,0.0,0.0,0.0,0.0,0.0,0.0,0.0,0.0,0.0,0.0,0.0,0.0,0.0,0.0,0.0,0.0,0.0,0.0,0.0,0.0,0.0,0.0,0.0,0.0,0.0,0.0,0.0,0.0,0.0,0.0,0.0,0.0,0.0,0.0,0.0,0.0,0.0,0.0,0.0,0.0,0.0,0.0,0.0,0.0,0.0,0.0,0.0,0.0,0.0,0.0,0.0,0.0,0.0,0.0,0.0,0.0,0.0,0.0,0.0,0.0,0.0,0.0,0.0,0.0,0.0,0.0,0.0,0.0,0.0,0.0,0.0,0.0,0.0,0.0,0.0,0.0,0.0,0.0,0.0,0.0,0.0,0.0,0.0,0.0,0.0,0.0,0.0,0.0,0.0,0.0,0.0,0.0,0.0,0.0,0.0,0.0,0.0,0.0,0.0,0.0,0.0,0.0,0.0,0.0,0.0,0.0,0.0,0.0,0.0,0.0,0.0,0.0,0.0,0.0,0.0,0.0,0.0,0.0,0.0,0.0,0.0,0.0,0.0,0.0,0.0,0.0,0.0,0.0,0.0,0.0,0.0,0.0,0.0,0.0,0.0,0.0,0.0,0.0,0.0,0.0,0.0,0.0,0.0,0.0,0.0,0.0,0.0,0.0,0.0,0.0,0.0,0.0,0.0,0.0,0.0,0.0,0.0,0.0,0.0,0.0,0.0,0.0,0.0,0.0,0.0,0.0,0.0,0.0,0.0,0.0,0.0,0.0,0.0,0.0,0.0,0.0,0.0,0.0,0.0,0.0,0.0,0.0,0.0,0.0,0.0,0.0,0.0,0.0,0.0,0.0,0.0,0.0,0.0,0.0,0.0,0.0,0.0,0.0,0.0,0.0,0.0,0.0,0.0,0.0,0.0,0.0,0.0,0.0,0.0,0.0,0.0,0.0,0.0,0.0,0.0,0.0,0.0,0.0,0.0,0.0,0.0,0.0,0.0,0.0,0.0,0.0,0.0,0.0,0.0,0.0,0.0,0.0,0.0,0.0,0.0,0.0,0.0,0.0,0.0,0.0,0.0,0.0,0.0,0.0,0.0,0.0,0.0,0.0,0.0,0.0,0.0,0.0,0.0,0.0,0.0,0.0,0.0,0.0,0.0,0.0,0.0,0.0,0.0,0.0,0.0,0.0,0.0,0.0,0.0,0.0,0.0,0.0,0.0,0.0,0.0,0.0,0.0,0.0,0.0,0.0,0.0,0.0,0.0,0.0,0.0,0.0,0.0,0.0,0.0,0.0,0.0,0.0,0.0,0.0,0.0,0.0,0.0,0.0,0.0,0.0,0.0,0.0,0.0,0.0,0.0,0.0,0.0,0.0,0.0,0.0,0.0,0.0,0.0,0.0,0.0,0.0,0.0,0.0,0.0,0.0,0.0,0.0,0.0,0.0,0.0,0.0,0.0,0.0,0.0,0.0,0.0,0.0,0.0,0.0,0.0,0.0,0.0,0.0,0.0,0.0,0.0,0.0,0.0,0.0,0.0,0.0,0.0,0.0,0.0,0.0,0.0,0.0,0.0,0.0,0.0,0.0,0.0,0.0,0.0,0.0,0.0,0.0,0.0,0.0,0.0,0.0,0.0,0.0,0.0,0.0,0.0,0.0,0.0,0.0,0.0,0.0,0.0,0.0,0.0,0.0,0.0,0.0,0.0,0.0,0.0,0.0,0.0,0.0,0.0,0.0,0.0,0.0,0.0,0.0,0.0,0.0,0.0,0.0,0.0,0.0,0.0,0.0,0.0,0.0,0.0,0.0,0.0,0.0,0.0,0.0,0.0,0.0,0.0,0.0,0.0,0.0,0.0,0.0,0.0,0.0,0.0,0.0,0.0,0.0,0.0,0.0,0.0,0.0,0.0,0.0,0.0,0.0,0.0,0.0,0.0,0.0,0.0,0.0,0.0,0.0,0.0,0.0,0.0,0.0,0.0,0.0,0.0,0.0,0.0,0.0,0.0,0.0,0.0,0.0,0.0,0.0,0.0,0.0,0.0,0.0,0.0,0.0,0.0,0.0,0.0,0.0,0.0,0.0,0.0,0.0,0.0,0.0,0.0,0.0,0.0,0.0,0.0,0.0,0.0,0.0,0.0,0.0,0.0,0.0,0.0,0.0,0.0,0.0,0.0,0.0,0.0,0.0,0.0,0.0,0.0,0.0,0.0,0.0,0.0,0.0,0.0,0.0,0.0,0.0,0.0,0.0,0.0,0.0,0.0,0.0,0.0,0.0,0.0,0.0,0.0,0.0,0.0,0.0,0.0,0.0,0.0,0.0,0.0,0.0,0.0,0.0,0.0,0.0,0.0,0.0,0.0,0.0,0.0,0.0,0.0,0.0,0.0,0.0,0.0,0.0,0.0,0.0,0.0,0.0,0.0,0.0,0.0,0.0,0.0,0.0,0.0,0.0,0.0,0.0,0.0,0.0,0.0,0.0,0.0,0.0,0.0,0.0,0.0,0.0,0.0,0.0,0.0,0.0,0.0,-0.2711,0.0,0.0,0.0,0.0,0.0,0.0,0.0,0.0,0.0,0.0,0.0,0.0,0.0,0.0,0.0,0.0,0.0,0.0,0.0,0.0,0.0,0.0,0.0,0.0,0.0,0.0,0.0,0.0,0.0,0.0,0.0,0.0,0.0,0.0,0.0,0.0,0.0,0.0,0.0,0.0,0.0,0.0,0.0,0.0,0.0,0.0,0.0,0.0,0.0,0.0,0.0,0.0,0.0,0.0,0.0,0.0,0.0,0.0,0.0,0.0,0.0,0.0,0.0,0.0,0.0,0.0,0.0,0.0,0.0,0.0,0.0,0.0,0.0,0.0,0.0,0.0,0.0,0.0,0.0,0.0,0.0,0.0,0.0,0.0,0.0,0.0,0.0,0.0,0.0,0.0,0.0,0.0,0.0,0.0,0.0,0.0,0.0,0.0,0.0,0.0,0.0,0.0,0.0,0.0,0.0,0.0,0.0,0.0,0.0,0.0,0.0,0.0,0.0,0.0,0.0,0.0,-0.301,0.0,0.0,0.0,0.0,0.0,0.0,0.0,0.0,0.0,0.0,0.0,0.0,0.0,0.0,0.0,0.0,0.0,0.0,0.0,0.0,0.0,0.0,0.0,0.0,0.0,0.0,0.0,0.0,0.0,0.0,0.0,0.0,0.0,0.0,0.0,0.0,0.0,0.0,0.0,0.0,0.0,0.0,0.0,0.0,0.0,0.0,0.0,0.0,0.0,0.0,0.0,0.0,0.0,0.0,0.0,0.0,0.0,0.0,0.0,0.0,0.0,0.0,0.0,0.0,0.0,0.0,0.0,0.0,0.0,0.0,0.0,0.0,0.0,0.0,0.0,0.0,0.0,0.0,0.0,0.0,0.0,0.0,0.0,0.0,0.0,0.0,0.0,0.0,0.0,0.0,0.0,0.0,0.0,0.0,0.0,0.0,0.0,0.0,0.0,0.0,0.0,0.0,0.0,0.0,0.0,0.0,0.0,0.0,-0.181,-0.2008,-0.2336,-0.2603,-0.2793,-0.2904,-0.317,-0.3451,-0.362,-0.3473,0.0,0.0,0.0,0.0,0.0,0.0,0.0,0.0,0.0,0.0,0.0,0.0,0.0,0.0,0.0,0.0,0.0,0.0,0.0,0.0,0.0,0.0,0.0,0.0,0.0,0.0,0.0,0.0,0.0,0.0,0.0,0.0,0.0,0.0,0.0,0.0,0.0,0.0,0.1812,0.1506,0.1221,0.1035,0.1498,0.0,0.0,0.0,0.0,0.0,0.0,0.0,0.0,0.0,0.0,0.0,0.0,0.0,0.0,0.0,0.0,0.0,0.0,0.0,0.0,0.0,0.0,0.0,0.0,0.0,0.0,0.0,0.0,0.0,0.0,0.0,0.0,0.0,0.0,0.0,0.0,0.0,0.0,0.0,0.0,0.0,0.0,0.0,0.1263,0.111,0.0,0.0,0.0,0.0,0.0,0.0,0.0,0.0,0.0,0.0,0.0,0.0,0.0,-0.0982,-0.1961,-0.1723,-0.1812,-0.2116,-0.2105,-0.229,-0.255,-0.2754,-0.3098,-0.3513,-0.3668,0.0,-0.3261,-0.3125,0.0,0.0,0.0,0.0,0.0,0.0,0.0,0.0,0.0,0.0,0.0,0.0,0.0,0.0,0.0,0.0,0.0,0.0,0.0,0.0,0.0,0.0,0.0,0.0,0.0,0.0,0.0,0.0,0.0,0.0,0.0,0.0,0.0,0.0,0.0,0.0,0.2298,0.1899,0.1751,0.1411,0.1122,0.0822,0.1211,0.0954,0.024,0.006,0.0,0.0,0.0,0.0,0.0,0.0,0.0,0.0,0.0,0.0,0.0,0.0,0.0,0.0,0.0,0.0,0.0,0.0,0.0,0.0,0.0,0.0,0.0,0.0,0.0,0.0,0.0,0.0,0.0,0.0,0.0,0.0,0.0,0.0,0.0,0.0,0.0,0.0,0.0,0.1542,0.1372,0.1152,0.1056,0.1004,0.0,0.0,0.0,0.0,0.0,0.0,0.0,0.0,0.0,-0.0696,-0.0773,-0.1112,-0.1726,-0.1618,-0.1845,-0.2421,-0.2449,-0.2691,-0.3081,-0.319,-0.3403,-0.3719,-0.3621,-0.3619,-0.3524,-0.34,-0.3409,-0.3522,0.0,0.0,0.0,0.0,-0.3564,-0.3671,0.0,0.0,0.0,0.0,0.0,0.0,0.0,0.0,0.0,0.0,0.0,0.0,0.0,0.0,0.0,0.3744,0.0,0.0,0.0,0.0,0.0,0.0,0.0,0.0,0.0,0.0,0.0,0.0,0.2009,0.1706,0.1621,0.1385,0.1088,0.0783,0.1021,0.0937,0.055,0.0369,0.0302,0.0,0.0,0.0,0.0,0.0,0.0,0.0,0.0,0.0,0.0,0.0,0.0,0.0,0.0,0.0,0.0,0.0,0.0,0.0,0.0,0.0,0.0,0.0,0.0,0.0,0.0,0.0,0.0,0.0,0.0,0.0,0.0,0.0,0.0,0.0,0.0,0.0,0.0,0.1602,0.1464,0.1079,0.1023,0.0969,0.0,0.0,0.0,0.0,0.0,0.0,-0.0,-0.07,-0.1166,-0.12,-0.1158,-0.1251,-0.1557,-0.166,-0.1973,-0.2573,-0.2573,-0.2878,-0.342,-0.3346,-0.3479,-0.3747,-0.363,-0.3626,-0.3739,-0.3643,-0.3646,-0.3706,-0.3424,-0.3509,-0.3713,-0.364,-0.3653,-0.3745,0.0,0.0,0.0,0.0,0.0,0.0,0.0,0.0,0.0,0.0,0.0,0.0,0.0,0.0,0.3748,0.3602,0.3462,0.3362,0.0,0.0,0.0,0.0,0.0,0.0,0.0,0.0,0.0,0.2525,0.1996,0.1669,0.1479,0.1259,0.1075,0.1076,0.1075,0.1074,0.1069,0.1075,0.1066,0.1022,0.0,0.0,0.0,0.0,0.0,0.0,0.0,0.0,0.0,0.0,0.0,0.0,0.0,0.0,0.0,0.0,0.0,0.0,0.0,0.0,0.0,0.0,0.0,0.0,0.0,0.0,0.0,0.0,0.0,0.0,0.0,0.0,0.0,0.0,0.0,0.0,0.0,0.0,0.0,0.0937,0.0882,0.0,0.0,0.0,0.0,-0.0062,-0.038,-0.0718,-0.1006,-0.1099,-0.127,-0.1448,-0.1307,-0.1453,-0.1965,-0.2183,-0.2285,-0.2414,-0.2642,-0.2828,-0.3129,-0.2895,-0.3086,-0.3624,-0.3712,-0.3699,-0.3612,-0.3528,-0.3495,-0.3499,-0.3276,-0.3348,-0.3499,-0.3279,-0.3401,-0.362,0.0,0.0,0.0,0.0,0.0,0.0,0.0,0.0,0.0,0.0,0.0,0.0,0.0,0.3746,0.3605,0.3482,0.3338,0.3208,0.3123,0.0,0.0,0.0,0.0,0.0,0.0,0.0,0.2582,0.2186,0.1821,0.1538,0.143,0.1261,0.1125,0.1106,0.0898,0.0967,0.1102,0.0913,0.0949,0.1065,0.092,0.0729,0.0,0.0,0.0,0.0,0.0,0.0,0.0,0.0,0.0,0.0,0.0,0.0,0.0,0.0,0.0,0.0,0.0,0.0,0.0,0.0,0.0,0.0,0.0,0.0,0.0,0.0,0.0,0.0,0.0,0.0,0.0,0.0,0.0,0.0,0.0,0.0,0.0,0.053,0.036,0.0,-0.0,-0.0192,-0.0458,-0.0785,-0.0887,-0.1054,-0.1206,-0.1216,-0.1237,-0.1344,-0.142,-0.1582,-0.1914,-0.199,-0.2306,-0.2866,-0.2914,-0.3185,-0.3614,-0.3587,-0.3838,-0.4295,-0.4005,-0.4082,-0.4288,-0.3937,-0.381,-0.3763,-0.374,-0.3764,-0.3844,-0.3764,-0.3782,-0.3889,0.0,0.0,0.0,0.0,0.0,0.0,0.0,0.0,0.0,0.0,0.0,0.3684,0.3771,0.3637,0.3539,0.3452,0.3245,0.3061,0.3019,0.0,0.0,0.0,0.0,0.0,0.0,0.273,0.239,0.1962,0.1698,0.1536,0.135,0.1229,0.1155,0.1136,0.0923,0.0994,0.1134,0.089,0.0928,0.1096,0.0948,0.0941,0.094,0.0,0.0,0.0,0.0,0.0,0.0,0.0,0.0,0.0,0.0,0.0,0.0,0.0,0.0,0.0,0.0,0.0,0.0,0.0,0.0,0.0,0.0,0.0,0.0,0.0,0.0,0.0,0.0,0.0,0.0,0.0,0.0,0.0,0.0,0.0,0.0716,0.0123,-0.0252,-0.0449,-0.0458,-0.061,-0.0831,-0.1178,-0.1226,-0.1256,-0.1256,-0.134,-0.1357,-0.138,-0.1458,-0.1624,-0.1886,-0.198,-0.2304,-0.2861,-0.2847,-0.3207,-0.3701,-0.3756,-0.4034,-0.4453,-0.4285,-0.4369,-0.4536,-0.432,-0.4128,-0.4074,-0.4024,-0.4036,-0.4036,-0.4036,-0.4057,-0.4087,0.0,0.0,0.0,0.0,0.0,0.0,0.0,0.0,0.0,0.0,0.3743,0.3774,0.381,0.3562,0.3455,0.3574,0.314,0.2916,0.286,0.2916,0.0,0.0,0.0,0.0,0.2781,0.264,0.2353,0.1821,0.1708,0.1533,0.1168,0.1169,0.1169,0.1168,0.1168,0.1168,0.1168,0.1094,0.115,0.1188,0.0728,0.0712,0.1033,0.0,0.0,0.0,0.0,0.0,0.0,0.0,0.0,0.0,0.0,0.0,0.0,0.0,0.0,0.0,0.0,0.0,0.0,0.0,0.0,0.0,0.0,0.0,0.0,0.0,0.0,0.0,0.0,0.0,0.0,0.0,0.0,0.0,0.1419,0.0828,0.0245,-0.02,-0.0811,-0.1242,-0.1233,-0.124,-0.1241,-0.1241,-0.1196,-0.1213,-0.1213,-0.1474,-0.1572,-0.1572,-0.1572,-0.173,-0.1889,-0.2171,-0.2276,-0.236,-0.2582,-0.2946,-0.3448,-0.3451,-0.3621,-0.4044,-0.4462,-0.4627,-0.4464,-0.4477,-0.4517,-0.4506,-0.4162,-0.4044,-0.4044,-0.4044,-0.4099,-0.4276,0.0,0.0,0.0,0.0,0.0,0.0,0.0,0.0,0.0,0.0,0.3691,0.3761,0.3681,0.3476,0.3322,0.3128,0.2912,0.2691,0.2635,0.0,0.0,0.0,0.0,0.0,0.2655,0.2392,0.2058,0.1713,0.1624,0.1424,0.12,0.1222,0.1221,0.1199,0.1199,0.1199,0.1198,0.0808,0.088,0.1255,0.1051,0.0686,0.0274,0.0,0.0,0.0,0.0,0.0,0.0,0.0,0.0,0.0,0.0,0.0,0.0,0.0,0.0,0.0,0.0,0.0,0.0,0.0,0.0,0.0,0.0,0.0,0.0,0.0,0.0,0.0,0.0,0.0,0.0,0.0,0.0,0.0567,0.0567,0.0193,-0.0331,-0.1104,-0.1412,-0.1508,-0.1602,-0.1483,-0.1424,-0.1424,-0.1304,-0.1245,-0.1245,-0.1331,-0.1415,-0.1572,-0.1572,-0.1664,-0.1932,-0.2187,-0.2458,-0.283,-0.3321,-0.3703,-0.3964,-0.42,-0.4404,-0.4493,-0.4667,-0.4754,-0.484,-0.4868,-0.4879,-0.4789,-0.4412,-0.4226,-0.4226,-0.4226,-0.433,-0.4548,0.0,0.0,0.0,0.0,0.0,0.0,0.0,0.0,0.0,0.0,0.3658,0.361,0.335,0.319,0.3023,0.2854,0.2689,0.2635,0.2691,0.0,0.0,0.0,0.0,0.2711,0.2551,0.2203,0.192,0.1779,0.1597,0.1462,0.1231,0.1249,0.1248,0.1231,0.1244,0.1243,0.1231,0.0929,0.1012,0.1247,0.0833,0.0367,-0.0,-0.0,0.0276,0.068,0.1021,0.0929,0.0769,0.1027,0.0,0.0,0.0,0.0,0.0,0.0,0.0,0.0,0.0,0.0,0.0,0.0,0.0,0.0,0.0,0.0,0.0,0.0,0.0,0.0,0.0,0.0,0.0,0.0,0.0325,-0.0067,-0.0276,-0.0626,-0.1056,-0.1589,-0.1706,-0.1732,-0.1807,-0.1694,-0.1562,-0.1562,-0.1425,-0.1362,-0.1455,-0.1443,-0.1522,-0.1617,-0.1699,-0.1872,-0.2143,-0.2414,-0.2778,-0.3408,-0.3694,-0.3997,-0.4228,-0.4497,-0.463,-0.4723,-0.4992,-0.5196,-0.5319,-0.5277,-0.526,0.0,0.0,0.0,0.0,0.0,-0.4538,-0.4736,0.0,0.0,0.0,0.0,0.0,0.0,0.0,0.0,0.0,0.0,0.0,0.3357,0.2907,0.2742,0.2691,0.2691,0.2521,0.2577,0.0,0.0,0.0,0.284,0.275,0.262,0.2444,0.2137,0.1923,0.1827,0.1633,0.1493,0.1335,0.1335,0.1338,0.1264,0.129,0.129,0.1271,0.1325,0.1249,0.1062,0.0327,-0.0,-0.0,-0.0,-0.0,0.0073,0.0875,0.1133,0.1089,0.1089,0.0,0.0,0.0,0.0,0.0,0.0,0.0,0.0,0.0,0.0,0.0,0.0,0.0,0.0,0.0,0.0,0.0,0.0,0.0,0.0,0.0,0.0,0.0,0.0,-0.0415,-0.0719,-0.1058,-0.1499,-0.1794,-0.1753,-0.1864,-0.189,-0.1979,-0.1772,-0.1631,-0.1634,-0.1471,-0.1401,-0.1679,0.0,0.0,0.0,0.0,-0.2189,-0.2449,-0.2756,-0.3224,-0.3853,-0.3808,-0.4021,-0.4316,-0.44,-0.4528,-0.4809,-0.5359,-0.5596,-0.5675,-0.5676,-0.5642,-0.555,-0.4987,-0.4676,-0.4687,-0.4501,-0.4625,-0.4822,0.0,0.0,0.0,0.0,0.0,0.0,0.0,0.0,0.0,0.3132,0.3176,0.3077,0.2745,0.2633,0.2521,0.2521,0.2352,0.2465,0.0,0.0,0.2797,0.2865,0.2593,0.2469,0.2579,0.2031,0.1791,0.1874,0.1568,0.1335,0.1335,0.1335,0.1271,0.1294,0.13,0.1313,0.1331,0.1259,0.0924,0.0251,0.0084,-0.0,-0.0,-0.0,-0.0,0.0073,0.051,0.0942,0.115,0.115,0.1267,0.1432,0.1534,0.0,0.0,0.0,0.0,0.0,0.0,0.0,0.0,0.0,0.0,0.0,0.0,0.0,0.0,0.0,0.0,0.0,0.0,0.0,0.0,-0.0404,-0.1001,-0.1509,-0.1632,-0.2007,-0.2282,-0.2169,-0.1981,-0.1994,-0.2234,-0.1805,-0.164,-0.1669,-0.1671,-0.1591,-0.1347,-0.1592,-0.1758,-0.1934,-0.2018,-0.229,-0.2678,-0.3122,-0.3447,-0.3748,0.0,0.0,-0.441,-0.4612,-0.4715,-0.4809,-0.508,-0.5366,-0.5665,-0.5823,-0.5773,-0.566,-0.5,-0.4686,-0.4508,-0.4547,-0.4642,-0.4829,0.0,0.0,0.0,0.0,0.0,0.0,0.0,0.0,0.0,0.0,0.2905,0.2781,0.2462,0.2384,0.2352,0.2352,0.241,0.0,0.0,0.2726,0.2705,0.2761,0.2451,0.2294,0.2373,0.1858,0.1666,0.1729,0.1415,0.1335,0.1336,0.1273,0.1207,0.1141,0.1251,0.1179,0.0928,0.0776,0.0432,-0.0,-0.0,-0.0,-0.0,-0.0,-0.0,0.0077,0.0456,0.0901,0.1264,0.1189,0.1315,0.1495,0.1594,0.17,0.1796,0.0,0.0,0.0,0.0,0.0,0.0,0.0,0.0,0.0,0.0,0.0,0.0,0.0,0.0,-0.0,0.0,0.0,-0.0569,-0.1109,-0.1534,-0.19,-0.2108,-0.2323,-0.2429,-0.2153,-0.2151,-0.2161,-0.2184,-0.1935,-0.186,-0.1879,-0.1795,-0.1804,-0.1913,-0.1893,-0.2062,-0.2431,-0.2605,-0.2794,-0.318,-0.3532,-0.3837,-0.4189,-0.446,-0.4665,-0.4804,-0.4853,-0.5092,-0.5329,-0.5422,-0.5736,-0.5979,-0.6111,-0.6013,-0.5754,-0.5514,-0.5073,-0.4657,-0.4656,-0.4765,-0.5043,0.0,0.0,0.0,0.0,0.0,0.0,0.0,0.0,0.0,0.0,0.0,0.247,0.2133,0.2139,0.224,0.0,0.0,0.0,0.0,0.2669,0.2591,0.2526,0.2273,0.2152,0.2105,0.1662,0.1533,0.1572,0.1415,0.1335,0.1336,0.1288,0.1224,0.0985,0.1198,0.1037,0.0428,0.0177,-0.0,-0.0,-0.0,-0.0,-0.0,-0.0,-0.0,0.0081,0.0396,0.0851,0.1288,0.1219,0.1342,0.1587,0.1633,0.1754,0.1788,0.1886,0.1854,0.0,0.0,0.0,0.0,0.0,0.0,0.0,0.0,0.0,0.0738,0.0065,-0.0199,-0.0409,-0.0581,-0.0741,-0.1065,-0.1694,-0.1878,-0.2061,-0.2278,-0.2539,-0.2545,-0.2128,-0.2233,-0.2238,-0.2046,-0.207,-0.2002,-0.2011,-0.2011,-0.2115,-0.2422,-0.2295,-0.2467,-0.2956,-0.3136,-0.3406,-0.3678,-0.3857,-0.4222,-0.46,-0.4493,-0.4721,-0.5203,-0.5025,-0.5307,-0.5874,-0.5874,-0.6116,-0.6385,-0.6295,-0.6158,-0.5958,-0.5863,-0.5595,-0.5133,-0.4979,-0.4994,-0.5262,0.0,0.0,0.0,0.0,0.0,0.0,0.0,0.0,0.0,0.0,0.0,0.0,0.0,0.0,0.0,0.0,0.0,0.0,0.2644,0.2365,0.2253,0.2329,0.2046,0.1991,0.1977,0.1647,0.1533,0.1572,0.1415,0.1335,0.1336,0.1288,0.1317,0.126,0.1378,0.0879,0.0089,-0.0,-0.0,-0.0,-0.0,-0.0,-0.0,-0.0,-0.0,-0.0,0.0079,0.0541,0.1216,0.1243,0.1495,0.1696,0.1659,0.1898,0.214,0.2145,0.0,0.1956,0.195,0.1727,0.1423,0.1398,0.1165,0.099,0.0,0.0,0.0737,0.0069,-0.0649,-0.1195,-0.1204,-0.1251,-0.129,-0.1382,-0.1737,-0.2026,-0.2158,-0.2512,-0.2617,-0.2223,-0.2072,-0.2056,-0.2131,-0.1931,-0.1752,-0.1786,-0.2236,-0.2329,-0.2243,-0.2594,-0.295,-0.3136,-0.3406,-0.3678,-0.3859,-0.4123,-0.434,-0.442,-0.4616,-0.4851,-0.5027,-0.5032,-0.5278,-0.5586,-0.5776,-0.6058,-0.6332,-0.6026,-0.6095,-0.631,-0.5812,-0.57,-0.5884,-0.561,-0.5445,-0.5458,0.0,0.0,0.0,0.0,0.0,0.0,0.0,0.0,0.0,0.0,0.0,0.0,0.0,0.0,0.0,0.0,0.0,0.0,0.2534,0.2265,0.2158,0.2231,0.194,0.1788,0.1714,0.1431,0.138,0.1415,0.1335,0.1335,0.1337,0.1307,0.1002,0.0506,0.0611,0.0713,0.0808,0.0269,-0.0,-0.0,-0.0,-0.0268,-0.0704,-0.017,-0.0,-0.0,-0.0,0.0306,0.0,0.0,0.1547,0.172,0.1784,0.1966,0.2189,0.2169,0.2143,0.0,0.1911,0.1723,0.1558,0.1515,0.1091,0.0655,0.0606,0.041,0.007,-0.0655,-0.1209,-0.1562,-0.1364,-0.1393,-0.1506,0.0,-0.1891,-0.2159,-0.2295,-0.2658,-0.2756,-0.2422,-0.2298,-0.2112,-0.1792,-0.178,-0.1866,-0.2062,-0.2334,-0.2602,-0.278,-0.3138,-0.3406,-0.3587,-0.3853,-0.4032,-0.4123,-0.421,-0.4408,-0.454,-0.472,-0.4894,-0.514,-0.5319,-0.5691,-0.6069,-0.6166,-0.6257,-0.6342,-0.6243,-0.6281,-0.6337,-0.6137,-0.6134,-0.6134,-0.5734,-0.5698,-0.5854,0.0,0.0,0.0,0.0,0.0,0.0,0.0,0.0,0.0,0.0,0.0,0.0,0.0,0.0,0.0,0.0,0.0,0.0,0.0,0.2009,0.1896,0.205,0.1726,0.1564,0.1498,0.1283,0.115,0.11,0.1257,0.1335,0.1258,0.1065,0.0586,-0.0,-0.0,0.0357,0.0987,0.0269,-0.0,-0.0,-0.0268,-0.0706,-0.1216,-0.0591,-0.0081,0.0313,0.0306,0.0375,0.0,0.0,0.1516,0.1709,0.1829,0.2013,0.2185,0.2277,0.2315,0.2233,0.196,0.1695,0.1439,0.133,0.0814,0.0277,0.0071,-0.0214,-0.0653,-0.1213,-0.1491,-0.1623,-0.135,-0.1451,-0.1644,-0.1696,-0.186,-0.2116,-0.2418,-0.2693,-0.2872,-0.2602,-0.2602,-0.2422,-0.1883,-0.1973,-0.2153,-0.2154,-0.2602,-0.296,-0.3227,-0.3497,-0.3767,-0.4036,-0.4212,-0.43,-0.43,-0.43,-0.4389,-0.4569,-0.4748,-0.4933,-0.5303,-0.5625,-0.5937,-0.6337,-0.6337,-0.6337,-0.6437,-0.6437,-0.6437,-0.6437,-0.6437,-0.6437,-0.6337,-0.5934,-0.5934,-0.6132,0.0,0.0,0.0,0.0,0.0,0.0,0.0,0.0,0.0,0.0,0.0,0.0,0.0,0.0,0.0,0.0,0.0,0.0,0.0,0.1592,0.1457,0.1611,0.1394,0.1383,0.1531,0.1272,0.0996,0.0628,0.11,0.1335,0.1258,0.0403,-0.0,-0.0,-0.0,-0.0,-0.0,-0.0,-0.0,-0.009,-0.0879,-0.1307,-0.13,-0.1244,-0.0321,0.1096,0.1069,0.0,0.0,0.0,0.1339,0.1625,0.1668,0.1892,0.0,0.252,0.2531,0.0,0.0,0.0,0.0816,0.0502,0.0145,-0.0145,-0.0509,-0.0965,-0.1294,-0.1327,-0.1385,-0.1439,-0.1383,-0.1412,-0.1433,-0.1435,-0.1614,-0.1883,-0.2154,-0.2599,-0.2867,-0.2867,-0.2867,-0.2867,0.0,-0.2867,-0.2689,-0.2243,-0.305,-0.3497,-0.3227,-0.3676,-0.4036,-0.43,-0.43,-0.43,-0.43,-0.43,-0.43,-0.43,-0.4743,-0.5175,-0.542,-0.5801,-0.6039,-0.6042,-0.6042,-0.6139,-0.6437,-0.6437,-0.6437,-0.6437,-0.6437,-0.6437,-0.6437,-0.6337,-0.6337,-0.6437,0.0,0.0,0.0,0.0,0.0,0.0,0.0,0.0,0.0,0.0,0.0,0.0,0.0,0.0,0.0,0.0,0.0,0.0,0.0,0.1415,0.1381,0.1502,0.1483,0.1401,0.1246,0.1137,0.1093,0.1047,0.0608,0.046,0.046,0.016,-0.0,-0.0,-0.0,-0.0,-0.0,-0.0,-0.0,-0.0,-0.0342,-0.076,-0.1328,-0.1288,-0.062,0.0373,0.0,0.0,0.0,0.0,0.0,0.0,0.17,0.0,0.0,0.2123,0.0,0.0,0.0,0.0,0.049,0.0148,-0.0598,-0.1277,-0.1299,-0.1621,-0.1791,-0.1726,-0.1751,-0.1694,-0.1625,-0.1576,-0.1516,-0.1432,-0.1639,-0.1844,-0.1933,-0.2488,-0.2867,-0.2867,-0.3136,0.0,0.0,0.0,0.0,-0.2869,-0.3321,-0.3592,-0.3678,-0.3944,-0.421,-0.43,-0.43,-0.43,-0.43,-0.43,-0.4389,-0.4572,-0.4972,-0.5412,-0.5689,-0.5894,-0.6142,-0.6239,-0.6042,-0.6139,-0.6437,-0.6239,-0.6239,-0.6437,-0.6437,-0.6437,-0.6437,-0.6437,-0.6437,-0.6437,0.0,0.0,0.0,0.0,0.0,0.0,0.0,0.0,0.0,0.0,0.0,0.0,0.0,0.0,0.0,0.0,0.0,0.0,0.0,0.0,0.0999,0.1092,0.1177,0.1148,0.1128,0.108,0.1035,0.0851,0.0291,-0.0,-0.0,-0.0,-0.0,-0.0,-0.0,-0.0,-0.0,-0.0,-0.0,-0.0,-0.0,-0.0324,-0.0871,-0.085,-0.0447,0.0,0.0,0.0,0.0,0.0,0.0,0.0,0.0,0.0,0.0,0.0,0.0,0.0,0.0,0.0644,0.0073,-0.0537,-0.1313,-0.1855,-0.182,-0.1898,-0.1971,-0.1828,-0.1819,-0.1734,-0.159,-0.1531,-0.1547,-0.1384,-0.1511,-0.1637,-0.1649,-0.2372,-0.2932,-0.2955,-0.3406,-0.3587,0.0,0.0,0.0,-0.3048,-0.3588,-0.386,-0.3859,-0.4123,-0.43,-0.43,-0.43,-0.43,-0.43,-0.43,-0.448,-0.4844,-0.5214,-0.5606,-0.5929,-0.6037,-0.6239,-0.6437,-0.6239,-0.6208,-0.6361,-0.6218,-0.6216,-0.638,-0.642,-0.6437,-0.6437,-0.6437,-0.6437,-0.6437,0.0,0.0,0.0,0.0,0.0,0.0,0.0,0.0,0.0,0.0,0.0,0.0,0.0,0.0,0.0,0.0,0.0,0.0,0.0,0.0,0.0,0.0352,0.0353,0.0606,0.1028,0.1031,0.0718,-0.0,-0.0,-0.0,-0.0,-0.0,-0.0,-0.0,-0.0,-0.0,-0.0,-0.0,-0.0,-0.0,-0.0,-0.0,0.0075,-0.0,0.0,0.0,0.0,0.0,0.0,0.0,0.0,0.0,0.0,0.0,0.0,0.0,0.0,0.1838,0.0653,0.0074,-0.046,-0.1526,-0.1839,-0.1976,-0.2018,-0.1995,-0.1898,-0.1696,-0.1592,-0.1577,0.0,0.0,-0.1296,-0.1296,-0.1325,-0.1357,-0.147,-0.2258,-0.289,0.0,0.0,0.0,0.0,0.0,0.0,-0.2957,0.0,-0.4212,-0.3946,-0.4121,-0.43,-0.43,-0.43,-0.43,-0.43,-0.43,-0.4569,-0.5027,-0.5448,-0.5842,-0.6029,-0.6234,-0.6437,-0.6437,-0.6337,-0.6355,-0.6332,-0.6361,-0.6358,-0.6287,-0.6393,-0.6437,-0.6437,-0.6437,-0.6437,-0.6437,0.0,0.0,0.0,0.0,0.0,0.0,0.0,0.0,0.0,0.0,0.0,0.0,0.0,0.0,0.0,0.0,0.0,0.0,0.0,0.0,0.0,0.0,0.0,0.0,0.0,0.0,0.0,0.0,0.0,-0.0462,-0.0,-0.0,-0.0,-0.0,-0.0,-0.0,-0.0,-0.0,-0.0,-0.0,0.0,0.0296,0.0808,0.0,0.0,0.0,0.0,0.0,0.0,0.0,0.0,0.0,0.0,0.1665,0.153,0.0,0.0,0.0653,-0.0223,-0.0829,-0.1373,-0.189,-0.2209,-0.2358,-0.2371,-0.2364,-0.2347,-0.2318,-0.1891,-0.1556,0.0,0.0,0.0,-0.1501,-0.1603,0.0,-0.2118,-0.253,0.0,-0.3406,0.0,-0.4123,-0.3765,-0.4034,0.0,0.0,-0.3939,-0.43,-0.421,-0.43,-0.43,-0.43,-0.43,-0.43,-0.43,-0.4569,-0.4928,-0.5382,-0.5726,-0.5932,-0.6029,-0.6234,-0.6437,-0.6437,-0.6232,-0.6211,-0.6366,-0.617,-0.6208,-0.6396,-0.6323,-0.6334,-0.6437,-0.6437,-0.6437,-0.6437,0.0,0.0,0.0,0.0,0.0,0.0,0.0,0.0,0.0,0.0,0.0,0.0,0.0,0.0,0.0,0.0,0.0,0.0,0.0,0.0,0.0,0.0,0.0,0.0,0.0,0.0,0.0,0.0,0.0,0.0,0.0,-0.0128,-0.0,-0.0,-0.0,-0.0,-0.0,0.0,0.0,0.0,0.0,0.0,0.0,0.0,0.0,0.0,0.0,0.0,0.0,0.0,0.0,0.1236,0.1464,0.1413,0.1216,0.0944,0.0,-0.0,-0.0981,-0.1528,-0.1937,-0.2142,-0.2373,-0.2589,-0.2511,-0.2589,-0.2564,-0.225,-0.1841,-0.1591,-0.1408,-0.1433,0.0,0.0,0.0,0.0,-0.2662,-0.2911,-0.3161,0.0,-0.4032,0.0,-0.3942,-0.4123,-0.4212,0.0,-0.4119,-0.43,-0.43,-0.4389,-0.4389,-0.43,-0.4389,-0.4516,-0.4505,-0.4864,-0.5188,-0.5474,-0.5912,-0.6029,-0.6029,-0.6234,-0.6437,-0.6437,0.0,-0.6234,-0.6321,-0.6149,-0.62,-0.6346,-0.6382,-0.6337,-0.6437,-0.6437,-0.6437,-0.6437,0.0,0.0,0.0,0.0,0.0,0.0,0.0,0.0,0.0,0.0,0.0,0.0,0.0,0.0,0.0,0.0,0.0,0.0,0.0,0.0,0.0,0.0,0.0,0.0,0.0,0.0,0.0,0.0,0.0,0.0,0.0,0.0,0.0,0.0,0.0,0.0,0.0,0.0,0.0,0.0,0.0,0.0,0.0,0.0,0.0,0.0,0.0,0.0,0.0,0.0,0.1371,0.1332,0.1196,0.1004,0.0807,0.0074,-0.0224,-0.0533,-0.1598,-0.1934,-0.2133,-0.2255,-0.2549,-0.2744,-0.2578,-0.2655,-0.2542,-0.1906,-0.1742,-0.1583,-0.1191,-0.1283,-0.1671,-0.2334,0.0,-0.2226,-0.3118,-0.3183,-0.3265,-0.366,-0.4032,-0.43,-0.421,-0.4306,-0.4306,-0.421,-0.43,-0.43,-0.4389,-0.4569,-0.4569,-0.4389,-0.4569,-0.4751,-0.4847,-0.511,-0.5404,-0.5625,-0.6134,-0.6237,-0.6029,-0.6334,-0.6437,-0.6437,-0.6437,-0.6337,-0.6334,-0.6337,-0.6377,-0.6341,-0.6363,-0.6382,-0.6437,-0.6437,-0.6437,-0.6437,0.0,0.0,0.0,0.0,0.0,0.0,0.0,0.0,0.0,0.0,0.0702,0.067,0.0,0.0,0.0,0.0,0.0,0.0,0.0,0.0,0.0,0.0,0.0,0.0,0.0,0.0,0.0,0.0,0.0,0.0,0.0,0.0,0.0,0.0,0.0,0.0,0.0,0.0,0.0,0.0,0.0,0.0,0.0,0.0,0.0,0.0,0.0,0.0,0.0,0.0,0.1166,0.1125,0.1151,0.0663,-0.0076,-0.0848,-0.109,-0.1171,-0.164,-0.1802,-0.1967,-0.2208,-0.2518,-0.281,-0.2677,-0.2512,0.0,-0.1998,-0.1553,-0.119,-0.1089,-0.1247,-0.1493,-0.189,-0.2056,-0.2385,-0.3195,-0.3353,-0.3556,0.0,-0.421,-0.421,-0.3946,-0.4212,0.0,0.0,0.0,-0.4389,-0.4659,-0.4654,-0.4654,-0.4659,-0.4661,-0.4936,-0.5327,-0.5319,-0.5615,-0.6234,-0.635,-0.635,-0.6334,-0.6337,-0.6437,-0.6437,-0.6437,0.0,-0.6337,-0.6334,-0.6305,-0.6423,-0.6366,-0.6384,-0.6437,-0.6437,-0.6437,-0.6437,0.0,0.0,0.0,0.0,0.0,0.0,0.0,0.0719,0.0719,0.0719,0.0686,0.0695,0.0695,0.0719,0.0588,0.0,0.0,0.0,0.0,0.0,0.0,0.0,0.0,0.0,0.0,0.0,0.0,0.0,0.0,0.0,0.0,0.0,0.0,0.0,0.0,0.0,0.0,0.0,0.0,0.0,0.0,0.0,0.0,0.0,0.0,0.0,0.0,0.0,0.0,0.0,0.1075,0.1107,0.1152,0.0593,-0.0228,-0.0999,-0.1245,-0.1332,-0.1548,-0.1791,-0.1964,-0.2118,-0.2486,-0.2677,-0.2539,0.0,0.0,-0.1873,-0.1596,-0.139,-0.1216,-0.1376,0.0,-0.2009,-0.2237,-0.2633,-0.3275,-0.3506,-0.371,-0.411,-0.4261,-0.421,0.0,-0.421,-0.421,-0.4123,0.0,-0.4569,-0.4661,-0.4832,-0.4921,-0.5018,-0.4926,-0.5113,-0.5514,-0.5551,-0.5754,-0.6232,-0.6345,-0.6342,-0.6232,-0.6334,-0.6334,-0.6232,-0.6232,-0.6232,-0.6232,-0.6132,-0.6234,-0.6415,-0.6384,-0.6338,-0.6437,-0.6437,-0.6437,-0.6437,0.0,0.0,0.0,0.0,0.0,0.0,0.0,0.0719,0.0719,0.0719,0.0674,0.0629,0.0629,0.0695,0.0708,0.0,0.0,0.0,0.0,0.0,0.0,0.0,0.0,0.0,0.0,0.0,0.0,0.0,0.0,0.0,0.0,0.0,0.0,0.0,0.0,0.0,0.0,0.0,0.0,0.0,0.0,0.0,0.0,0.0,0.0,0.0,0.0,0.0,0.0,0.0,0.0971,0.0994,0.0769,0.0292,-0.0225,-0.0896,-0.1218,-0.132,-0.1523,-0.1698,-0.1964,-0.2118,-0.2388,-0.2556,-0.2349,-0.2249,0.0,-0.1698,-0.1574,-0.1518,-0.135,-0.1437,-0.1745,0.0,-0.2384,-0.2677,-0.335,-0.3527,-0.3798,0.0,-0.4297,0.0,-0.4474,-0.4389,0.0,-0.4476,0.0,0.0,-0.4839,-0.5013,-0.5191,-0.5282,-0.5191,-0.5292,-0.5606,-0.5708,-0.5818,-0.6132,-0.6334,-0.6334,-0.6132,-0.6334,-0.6334,-0.6132,-0.6134,-0.6137,-0.6137,-0.6132,-0.6232,-0.6437,-0.6437,-0.6437,-0.6437,-0.6437,-0.6437,-0.6437,0.0,0.0,0.0,0.0,0.0,0.0,0.0,0.0719,0.0719,0.0719,0.0539,0.045,0.045,0.0587,0.0678,0.0,0.0,0.0,0.0,0.0,0.0,0.0,0.0,0.0,0.0,0.0,0.0,0.0,0.0,0.0,0.0,0.0,0.0,0.0,0.0,0.0,0.0,0.0,0.0,0.0,0.0,0.0,0.0,0.0,0.0,0.0,0.0,0.0,0.0,0.0,0.0,0.0724,-0.0385,-0.062,-0.0509,-0.0995,0.0,0.0,-0.144,-0.1698,-0.1964,-0.2118,-0.231,-0.2405,-0.2347,0.0,-0.1744,-0.1624,-0.1348,-0.1214,-0.1278,-0.1348,-0.1502,-0.2049,0.0,-0.2536,-0.3023,-0.3381,-0.3702,-0.435,0.0,0.0,-0.4912,-0.4746,0.0,0.0,0.0,0.0,-0.5371,-0.5552,-0.5463,-0.501,-0.528,-0.5388,-0.5422,-0.5611,-0.5911,-0.6334,-0.6437,-0.6437,-0.6334,-0.6437,-0.6437,-0.6337,-0.6353,-0.6361,0.0,-0.6342,-0.6337,-0.6437,-0.6437,-0.6437,-0.6437,-0.6437,-0.6437,-0.6437,0.0,0.0,0.0,0.0,0.0,0.0,0.0674,0.0719,0.0719,0.0719,0.0539,0.045,0.0405,0.0584,0.0719,0.0719,0.0,0.0,0.0,0.0,0.0,0.0,0.0,0.0,0.0,0.0,0.0,0.0,0.0,0.0,0.0,0.0,0.0,0.0,0.0,0.0,0.0,0.0,0.0,0.0,0.0,0.0,0.0,0.0,0.0,0.0,0.0,0.0,0.0,0.0,0.0,0.0,-0.0475,-0.0697,0.0,0.0,-0.1138,-0.1328,-0.1453,-0.1788,-0.2219,-0.2112,-0.231,-0.2424,-0.215,0.0,-0.1568,-0.1482,-0.1344,-0.1277,-0.148,-0.148,-0.1622,0.0,0.0,0.0,-0.2795,-0.3306,-0.3798,-0.382,-0.4227,0.0,0.0,0.0,0.0,0.0,0.0,0.0,-0.5552,-0.5644,-0.5644,-0.546,-0.5552,-0.5665,-0.58,-0.5942,-0.6058,-0.6437,-0.6437,-0.6437,-0.6437,-0.6437,-0.6334,-0.6132,-0.6139,-0.6142,0.0,-0.6134,-0.6234,-0.6437,-0.6437,-0.6437,-0.6437,-0.6437,-0.6437,-0.6437,0.0,0.0,0.0,0.0,0.0,0.0539,0.0674,0.0719,0.0719,0.0719,0.0629,0.0539,0.0494,0.0629,0.0719,0.0719,0.0719,0.0,0.0,0.0,0.0,0.0,0.0,0.0,0.0,0.0,0.0,-0.0,-0.0,0.0,0.0,0.0,0.0,0.0,0.0,0.0,0.0,0.0,0.0,0.0,0.0,0.0,0.0,0.0,0.0,0.0,0.0,0.0,0.0,0.0,0.0,0.0,0.0,0.0,0.0,0.0,-0.123,-0.1433,-0.1535,-0.1871,-0.2235,-0.2125,-0.2319,-0.2437,0.0,0.0,-0.1547,-0.1412,-0.1277,-0.1277,-0.148,-0.1547,-0.1748,0.0,0.0,-0.2627,-0.2685,-0.3266,-0.3667,0.0,0.0,-0.4437,0.0,0.0,0.0,0.0,0.0,0.0,-0.5733,-0.5733,-0.5644,-0.5644,-0.5676,-0.5788,-0.5986,-0.6083,-0.62,-0.6437,-0.6391,-0.6393,-0.6437,-0.6337,-0.6234,-0.6132,-0.6132,-0.6132,0.0,-0.6132,-0.6234,-0.6437,-0.6437,-0.6437,-0.6437,-0.6437,-0.6437,-0.6437,0.0,0.0,0.0,0.0,0.0,0.0,0.0674,0.0719,0.0719,0.0719,0.0719,0.0719,0.0719,0.0719,0.0719,0.0719,0.0719,0.0,0.0,0.0,0.0,0.0,0.0,0.0,0.0,0.0,0.0,-0.0,-0.0,-0.0,-0.0,0.0,0.0,0.0,0.0,0.0,0.0,0.0,0.0,0.0,0.0,0.0,0.0,0.0,0.0,0.0,0.0,0.0,0.0,0.0,0.0,0.0,0.0,0.0,0.0,0.0,-0.1286,-0.1463,-0.1831,-0.1963,-0.2044,-0.2262,-0.2219,-0.2175,0.0,0.0,-0.1614,-0.1614,-0.1344,-0.1143,-0.1277,-0.148,-0.1681,-0.1951,0.0,0.0,-0.2931,-0.3123,-0.3509,0.0,0.0,-0.4503,0.0,0.0,0.0,0.0,0.0,0.0,-0.5727,-0.5733,-0.5644,-0.5371,-0.5748,-0.5866,-0.57,-0.6107,-0.6325,-0.6434,-0.6287,-0.6293,-0.6437,-0.6334,-0.6334,-0.6437,-0.6437,-0.6437,0.0,-0.6437,-0.6437,-0.6437,-0.6437,-0.6437,-0.6437,-0.6437,-0.6437,-0.6437,0.0,0.0,0.0,0.0,0.0,0.0,0.0,0.0629,0.0719,0.0719,0.0719,0.0719,0.0719,0.0719,0.0719,0.0719,0.0719,0.0,0.0,0.0,0.0,0.0,0.0,0.0,0.0,0.0,-0.0,-0.0,-0.0,-0.0,-0.0,-0.0437,-0.0729,0.0,0.0,0.0,0.0,0.0,0.0,0.0,0.0,0.0,0.0,0.0,0.0,0.0,0.0,0.0,0.0,0.0,0.0,0.0,0.0,0.0,0.0,0.0,0.0,0.0,-0.1717,-0.1957,-0.2139,-0.2097,-0.2068,-0.2036,-0.193,0.0,-0.1605,-0.1574,-0.146,-0.1468,-0.1626,-0.1852,-0.2018,-0.2154,-0.2554,0.0,0.0,0.0,0.0,-0.3768,-0.4021,-0.4505,0.0,0.0,0.0,0.0,0.0,0.0,-0.5991,-0.5822,-0.5644,-0.5644,-0.5751,-0.5961,-0.5986,-0.6206,-0.6287,-0.6323,-0.6352,-0.635,-0.6325,-0.6401,-0.6237,-0.6139,-0.6337,-0.6278,-0.6092,-0.6294,-0.6391,-0.6328,-0.6407,-0.6437,-0.6437,-0.6437,-0.6437,-0.6437,0.0,0.0,0.0,0.0,0.0,0.0,0.0,0.0629,0.0719,0.0719,0.0719,0.0719,0.0719,0.0719,0.0719,0.0719,0.0719,0.0,0.0,0.0,0.0,0.0,0.0,0.0,0.0,0.0405,0.0225,0.0135,0.0048,-0.005,-0.0151,-0.0643,-0.0886,-0.0898,-0.0785,0.0,0.0,0.0,0.0,0.0,0.0,0.0,-0.0,0.0,0.0,0.0,0.0,0.0,0.0,0.0,0.0,0.0,0.0,0.0,0.0,0.0,0.0,0.0,0.0,-0.1922,-0.2082,-0.1857,-0.1917,0.0,0.0,0.0,-0.1641,-0.1594,-0.1543,-0.1498,-0.169,-0.192,-0.2085,-0.2218,-0.2688,0.0,0.0,0.0,0.0,-0.3812,0.0,0.0,0.0,0.0,0.0,0.0,0.0,0.0,-0.616,-0.5997,-0.5819,-0.5819,-0.5844,-0.5939,-0.6015,-0.6138,-0.6222,-0.6268,-0.6293,-0.6314,-0.6333,-0.6259,-0.6197,-0.6137,-0.6192,-0.6121,0.0,-0.6235,-0.6331,-0.6279,-0.6393,-0.6437,-0.6437,-0.6437,-0.6437,-0.6539,0.0,0.0,0.0,0.0,0.0,0.0,0.0,0.0719,0.0719,0.0719,0.0719,0.0719,0.0719,0.0719,0.0719,0.0719,0.0,0.0,0.0,0.0,0.0,0.0,0.0,0.0,0.0,0.0719,0.0584,0.0405,0.014,-0.0146,-0.0454,-0.0733,-0.0868,-0.0898,-0.0561,0.0,0.0,0.0,0.0,0.0,0.0,0.0,0.0,0.0,0.0,0.0,0.0,0.0,0.0,0.0,0.0,0.0,0.0,0.0,0.0,0.0,0.0,0.0,0.0,0.0,0.0,0.0,0.0,0.0,0.0,0.0,0.0,-0.1732,-0.1479,-0.138,-0.1515,-0.174,-0.2017,-0.2214,0.0,0.0,0.0,-0.352,0.0,0.0,-0.4621,0.0,0.0,0.0,0.0,0.0,0.0,0.0,-0.6416,-0.6257,-0.6083,-0.6083,-0.6014,-0.5893,-0.5904,-0.6034,-0.6151,-0.6255,-0.6149,-0.6208,-0.6407,-0.6103,-0.6116,0.0,-0.6007,-0.6058,-0.6255,-0.6255,-0.6257,-0.6268,-0.638,-0.6429,-0.6437,-0.6437,-0.6639,-0.6842,0.0,0.0,0.0,0.0,0.0,0.0,0.0,0.0,0.0,0.0,0.0719,0.0719,0.0719,0.0719,0.0719,0.0,0.0,0.0,0.0,0.0,0.0,0.0,0.0,0.0,0.0,0.0719,0.0584,0.0405,0.014,-0.0244,-0.0709,-0.0786,-0.0868,-0.0898,-0.0842,0.0,0.0,0.0,0.0,0.0,0.0,0.0,0.0,0.0,0.0,0.0,-0.0785,-0.0898,0.0,0.0,0.0,0.0,0.0,0.0,0.0,0.0,-0.1178,0.0,0.0,0.0,0.0,0.0,0.0,0.0,0.0,0.0,0.0,0.0,0.0,0.0,0.0,0.0,0.0,0.0,0.0,0.0,-0.3025,0.0,0.0,-0.4595,0.0,0.0,0.0,0.0,0.0,0.0,0.0,-0.6353,-0.6694,-0.6432,-0.6343,-0.6343,-0.6284,-0.6166,-0.5901,-0.6119,-0.6192,-0.613,-0.6195,-0.6206,-0.6168,-0.6045,-0.5997,-0.6002,-0.6083,-0.5939,-0.5847,-0.6034,-0.613,-0.614,-0.6549,-0.6657,-0.6742,-0.6939,-0.7039,-0.7138,0.0,0.0,0.0,0.0,0.0,0.0,0.0,0.0,0.0,0.0,0.0,0.0,0.0,0.0,0.0,0.0,0.0,0.0,0.0,0.0,0.0,0.0,0.0,0.0,0.0719,0.0719,0.0629,0.0539,0.0138,-0.0237,-0.0543,-0.0562,-0.0741,-0.0877,-0.0891,0.0,0.0,0.0,0.0,0.0,-0.0898,0.0,0.0,0.0,0.0,0.0,-0.0842,-0.0898,0.0,-0.1066,-0.1066,-0.1066,0.0,0.0,0.0,0.0,-0.1122,0.0,0.0,0.0,0.0,0.0,0.0,0.0,0.0,0.0,0.0,0.0,0.0,0.0,0.0,0.0,0.0,0.0,-0.2922,0.0,0.0,0.0,0.0,-0.491,0.0,0.0,0.0,0.0,0.0,0.0,0.0,-0.6644,-0.7054,-0.6789,-0.6612,-0.6697,-0.6517,-0.6201,-0.5822,-0.6048,-0.6106,-0.6002,-0.607,-0.6094,-0.6086,-0.5992,-0.5931,-0.5984,-0.5868,-0.5818,-0.5818,-0.6098,-0.6225,-0.6283,-0.6699,-0.6926,-0.7042,-0.7138,-0.7238,-0.7341,0.0,0.0,0.0,0.0,0.0,0.0,0.0,0.0,0.0,0.0,0.0,0.0,0.0,0.0,0.0,0.0,0.0,0.0,0.0,0.0,0.0,0.0,0.0,0.0719,0.0719,0.0719,0.0719,0.0719,0.0135,-0.0184,-0.0287,-0.0394,-0.0614,-0.0907,-0.0884,-0.0842,0.0,0.0,0.0,0.0,-0.0785,0.0,0.0,0.0,0.0,0.0,0.0,0.0,0.0,-0.1066,-0.1122,-0.1122,-0.1122,0.0,0.0,0.0,0.0,0.0,0.0,0.0,-0.1695,-0.1292,-0.144,-0.1579,0.0,0.0,0.0,0.0,0.0,0.0,0.0,-0.2123,0.0,0.0,0.0,0.0,-0.407,-0.4323,-0.4722,-0.5226,0.0,0.0,0.0,0.0,0.0,0.0,0.0,-0.6927,-0.7499,-0.7149,-0.6969,-0.7139,-0.6697,-0.6254,-0.5822,-0.6014,-0.6164,-0.6084,-0.5996,-0.6051,-0.6153,-0.5855,-0.5858,-0.6051,0.0,0.0,-0.5901,-0.6162,-0.6412,-0.6538,-0.6864,-0.7091,-0.7211,-0.7329,-0.7441,-0.7643,0.0,0.0,0.0,0.0,0.0,0.0,0.0,0.0,0.0,0.0,0.0,0.0,0.0,0.0,0.0,0.0,0.0,0.0,0.0,0.0,0.0,0.0,0.0719,0.0719,0.0719,0.0719,0.0719,0.0719,0.0315,-0.0138,-0.0621,-0.0625,-0.075,-0.0907,-0.0884,-0.0617,-0.0168,-0.0617,-0.0561,-0.0168,-0.0393,0.0,0.0,0.0,0.0,0.0,0.0,0.0,0.0,-0.1066,-0.101,-0.0954,-0.1066,0.0,0.0,0.0,0.0,0.0,-0.0954,-0.1318,-0.1687,-0.1696,-0.1497,-0.1227,-0.1187,0.0,0.0,0.0,0.0,0.0,0.0,-0.2426,-0.2728,0.0,0.0,-0.3754,0.0,0.0,-0.4798,0.0,0.0,0.0,0.0,0.0,0.0,0.0,-0.6944,-0.739,-0.7503,-0.7418,-0.7326,-0.7139,-0.7051,-0.6786,-0.6254,-0.6457,-0.6612,-0.6813,-0.6456,-0.6288,-0.6302,-0.6102,-0.6017,-0.5923,0.0,-0.6169,-0.5896,-0.6242,-0.6367,-0.6409,-0.691,-0.7238,-0.7378,-0.7793,-0.7942,-0.7942,0.0,0.0,0.0,0.0,0.0,0.0,0.0,0.0,0.0,0.0,0.0,0.0,0.0,0.0,0.0,0.0,0.0,0.0,0.0,0.0,0.0,0.0743,0.0728,0.0719,0.0719,0.0719,0.0719,0.0719,0.0276,-0.0234,-0.0812,-0.0896,-0.0887,-0.0877,-0.0724,-0.0561,-0.0505,-0.0785,-0.0617,-0.0224,0.0,0.0,0.0,0.0,0.0,0.0,0.0,0.0,0.0,0.0,-0.0842,-0.0898,-0.0954,0.0,0.0,0.0,0.0,0.0,-0.1147,-0.1282,-0.1534,-0.1832,-0.1614,-0.1379,-0.1394,-0.1347,0.0,0.0,0.0,0.0,0.0,0.0,-0.2638,-0.3064,0.0,-0.3986,0.0,0.0,0.0,0.0,0.0,0.0,0.0,0.0,0.0,-0.6652,-0.7327,-0.7768,-0.7852,-0.7768,-0.7676,-0.7669,-0.7408,-0.7323,-0.7231,-0.6943,-0.6793,-0.67,-0.6436,-0.6346,-0.6346,-0.6284,-0.6198,-0.6161,0.0,-0.6287,-0.6161,-0.6459,-0.6607,-0.6743,-0.7168,-0.7422,-0.7627,-0.7791,-0.7916,-0.7906,0.0,0.0,0.0,0.0,0.0,0.0,0.0,0.0,0.0,0.0,0.0,0.0,0.0,0.0,0.0,0.0,0.0,0.0,0.0,0.0,0.073,0.08,0.0739,0.073,0.073,0.073,0.0681,0.0584,0.014,-0.0333,-0.0847,-0.0957,-0.095,-0.0867,-0.06,-0.0605,-0.0721,-0.0831,-0.0612,-0.0112,0.0,0.0,0.0,0.0,0.0,0.0,0.0,0.0,0.0,0.0,0.0,0.0,0.0,0.0,0.0,-0.0898,-0.1015,-0.1199,-0.1288,-0.1311,-0.145,-0.1842,0.0,-0.1533,-0.1549,-0.1428,0.0,0.0,0.0,0.0,0.0,-0.2232,0.0,-0.3182,-0.3732,0.0,0.0,0.0,0.0,0.0,0.0,0.0,0.0,0.0,-0.7147,-0.7128,-0.7603,-0.8028,-0.8201,-0.8028,-0.8028,-0.8201,-0.7676,-0.7503,-0.7768,-0.7319,-0.6962,-0.6697,-0.652,-0.652,-0.652,-0.652,-0.6432,-0.6428,-0.6517,-0.652,-0.6432,-0.67,-0.686,-0.6963,-0.7269,-0.7533,-0.7763,-0.7763,-0.7763,-0.7746,0.0,0.0,0.0,0.0,0.0,0.0,0.0,0.0,0.0,0.0,0.0,0.0,0.0,0.0,0.0,0.0,0.0,0.0,0.0,0.0,0.0765,0.0903,0.0841,0.0809,0.0809,0.0714,0.0561,0.0225,0.0094,-0.0234,-0.0723,-0.0803,-0.0821,-0.0824,-0.0852,-0.057,-0.0107,-0.0641,-0.0218,0.0729,0.0168,0.0,0.0,0.0,0.0,0.0,0.0,0.0,0.0,0.0,0.0,0.0,0.0,0.0,-0.0898,0.0,-0.1032,-0.1176,-0.1178,-0.1475,-0.1783,-0.1736,-0.1604,-0.1475,-0.1502,-0.1615,0.0,-0.1525,0.0,0.0,0.0,-0.2679,-0.317,-0.3403,0.0,0.0,0.0,0.0,0.0,0.0,0.0,0.0,0.0,-0.7073,-0.7311,-0.746,-0.7925,-0.8201,-0.8201,-0.8028,-0.8028,-0.8201,-0.7492,-0.7234,-0.7507,-0.7234,-0.7231,-0.7418,-0.6972,-0.6792,-0.6792,-0.6792,-0.6612,-0.6432,-0.6874,-0.6786,-0.6432,-0.6874,-0.6972,-0.6824,-0.7225,-0.7472,-0.7614,-0.7614,-0.7614,-0.7614,0.0,0.0,0.0,0.0,0.0,0.0,0.0,0.0,0.0,0.0,0.0,0.0,0.0,0.0,0.0,0.0,0.0,0.0,0.0,0.0,0.0728,0.084,0.0786,0.0746,0.0813,0.0765,0.0469,-0.018,-0.0515,-0.0718,-0.0774,-0.0883,-0.089,-0.0791,-0.0651,-0.0406,-0.0052,-0.0264,-0.0161,0.0054,-0.0389,-0.0561,0.0,0.0,0.0,0.0,0.0,0.0,0.0,0.0,-0.0954,0.0,0.0,0.0,0.0,0.0,0.0,-0.1211,-0.1439,-0.1398,-0.135,-0.1701,-0.1549,0.0,0.0,-0.1556,-0.1597,-0.1549,-0.1812,0.0,0.0,0.0,-0.3112,-0.3411,0.0,0.0,0.0,0.0,0.0,0.0,0.0,-0.6448,-0.6929,-0.7429,-0.7763,-0.7921,-0.8292,-0.838,-0.8201,-0.8113,-0.8028,-0.8028,-0.7588,-0.7415,-0.7507,-0.7231,-0.7143,-0.7234,-0.7054,-0.6966,-0.6966,-0.6966,-0.6966,-0.6874,-0.7051,-0.6962,-0.6874,-0.7051,-0.7051,-0.6982,-0.7312,-0.7407,-0.7458,-0.7458,-0.7366,-0.7263,0.0,0.0,0.0,0.0,0.0,0.0,0.0,0.0,0.0,0.0,0.0,0.0,0.0,0.0,0.0,0.0,0.0,0.0,0.0,0.0674,0.0729,0.0843,0.0786,0.0785,0.0844,0.0713,0.0375,-0.0225,-0.0739,-0.0902,-0.0779,-0.073,-0.073,-0.073,-0.0341,-0.0098,-0.005,0.0153,-0.0,-0.0427,-0.0765,-0.0833,0.0,0.0,0.0,0.0,0.0,0.0,0.0,0.0,0.0,0.0,0.0,0.0,0.0,0.0,0.0,0.0,-0.1566,-0.1407,-0.13,-0.1769,0.0,0.0,-0.1532,-0.1555,-0.1562,-0.1655,-0.1938,0.0,-0.2394,0.0,0.0,0.0,0.0,0.0,0.0,0.0,0.0,0.0,-0.6188,-0.6746,-0.7267,-0.7727,-0.8166,-0.8285,-0.8384,-0.8384,-0.8201,-0.8025,-0.794,-0.7944,-0.7591,-0.7415,-0.7507,-0.7231,-0.7139,-0.7139,-0.7139,-0.7139,-0.7139,-0.7139,-0.7139,-0.7139,-0.7139,-0.7139,-0.7139,-0.7139,-0.7051,-0.6976,-0.7171,-0.7212,-0.7212,-0.7299,-0.7121,-0.6927,0.0,0.0,0.0,0.0,0.0,0.0,0.0,0.0,0.0,0.0,0.0,0.0,0.0,0.0,0.0,0.0,0.0,0.0,0.0,0.0584,0.0764,0.09,0.0842,0.0844,0.099,0.0562,0.0281,0.018,-0.0405,-0.0719,-0.0674,-0.0225,-0.027,-0.0674,0.0045,0.023,0.0048,0.0478,0.0249,-0.0426,-0.0746,-0.0652,-0.0336,0.0,0.0,0.0,0.0,0.0,0.0,0.0,0.0,0.0,0.0,0.0,0.0,0.0,-0.1409,-0.1651,-0.1427,-0.1575,-0.1855,0.0,0.0,0.0,-0.1767,-0.1651,-0.1567,-0.1862,-0.2088,-0.2259,-0.2525,0.0,0.0,-0.3916,-0.4397,0.0,0.0,0.0,0.0,-0.5864,-0.6354,-0.695,-0.7608,-0.7998,-0.8292,-0.8568,-0.838,-0.8201,-0.8201,-0.7768,-0.7591,-0.7852,-0.7408,-0.7231,-0.7507,-0.7231,-0.7139,-0.7139,-0.7139,-0.7139,-0.7139,-0.7139,-0.7139,-0.7139,-0.7051,-0.7051,-0.7139,-0.7139,-0.6966,-0.6795,-0.6795,-0.6795,-0.6792,-0.7054,-0.6966,-0.6795,0.0,0.0,0.0,0.0,0.0,0.0,0.0,0.0,0.0,0.0,0.0,0.0,0.0,0.0,0.0,0.0,0.0,0.0,0.0,0.0674,0.0719,0.0764,0.0728,0.0729,0.081,0.0637,0.0364,-0.009,-0.0494,-0.0629,-0.0494,-0.0135,-0.027,-0.0674,-0.0315,0.0091,0.0459,-0.0047,-0.0246,-0.0205,-0.0632,-0.0762,-0.0729,0.0,0.0,0.0,0.0,0.0,0.0,0.0,0.0,0.0,0.0,0.0,0.0,-0.1122,-0.1251,-0.1392,-0.1422,-0.1309,0.0,-0.1591,0.0,0.0,0.0,-0.1784,0.0,0.0,-0.2177,-0.2324,-0.2594,0.0,0.0,-0.4136,-0.4622,-0.5007,0.0,0.0,0.0,-0.586,-0.668,-0.7281,-0.7447,-0.8092,-0.8476,-0.8568,-0.838,-0.8113,-0.8028,-0.768,-0.7415,-0.7319,-0.7139,-0.7143,-0.7231,-0.7143,-0.7139,-0.7139,-0.7139,-0.7139,-0.7051,-0.6966,-0.6881,-0.6881,-0.6697,-0.6697,-0.6881,-0.6881,-0.67,-0.652,-0.6704,-0.6704,-0.6523,-0.6792,-0.6615,-0.6349,0.0,0.0,0.0,0.0,0.0,0.0,0.0,0.0,0.0,0.0,0.0,0.0,0.0,0.0,0.0,0.0,0.0,0.0,0.0,0.0,0.0719,0.0719,0.0719,0.0719,0.0719,0.0315,-0.0045,-0.0405,-0.0405,-0.036,-0.0225,-0.009,-0.0045,-0.0135,-0.009,0.0135,0.0406,-0.0047,-0.0293,-0.0405,-0.0735,-0.087,-0.0898,0.0,0.0,0.0,0.0,0.0,0.0,0.0,0.0,0.0,0.0,0.0,0.0,-0.1178,-0.1246,-0.1321,-0.1279,-0.1225,0.0,-0.1481,-0.15,-0.1528,-0.1901,0.0,0.0,0.0,0.0,-0.2422,-0.2773,-0.3138,0.0,-0.427,-0.4724,-0.5082,-0.5401,-0.5709,-0.5941,-0.6022,-0.676,-0.7364,-0.7529,-0.7944,-0.8309,-0.8468,-0.8055,-0.7781,-0.7764,-0.7503,-0.7234,-0.7139,-0.7139,-0.7139,-0.7139,-0.7054,-0.7054,-0.7139,-0.7054,-0.6966,-0.6966,-0.6881,-0.6704,-0.6612,-0.6432,-0.652,-0.6612,-0.6526,-0.6438,-0.6257,-0.6438,-0.6438,-0.6346,-0.6523,-0.6435,-0.6083,0.0,0.0,0.0,0.0,0.0,0.0,0.0,0.0,0.0,0.0,0.0,0.0,0.0,0.0,0.0,0.0,0.0,0.0,0.0,0.0,0.0719,0.0674,0.0674,0.0674,0.0584,-0.018,-0.0584,-0.0584,-0.018,-0.0,-0.0,0.0045,0.027,0.0674,0.0584,0.036,0.009,0.0281,-0.0049,-0.0759,-0.0837,-0.0868,-0.0898,-0.0898,0.0,0.0,0.0,0.0,0.0,0.0,0.0,0.0,0.0,0.0,-0.1347,-0.1291,-0.1319,-0.1341,-0.1188,0.0,0.0,-0.1677,-0.1743,0.0,-0.2154,-0.2221,-0.2172,-0.2232,0.0,-0.2711,-0.2999,-0.3402,-0.3882,-0.4365,-0.4771,-0.5162,-0.5318,-0.5709,-0.6022,-0.6261,-0.675,-0.7256,-0.7585,-0.7567,-0.7726,-0.8142,-0.7584,-0.7307,-0.7453,-0.7204,-0.7122,-0.7122,-0.7122,-0.7031,-0.7031,-0.6848,-0.6848,-0.7031,-0.6861,-0.6782,-0.6792,-0.6792,-0.6615,-0.6343,-0.6343,-0.6343,-0.6343,-0.6171,-0.6083,-0.6083,-0.6083,-0.6083,-0.6083,-0.6254,-0.6257,-0.6083,0.0,0.0,0.0,0.0,0.0,0.0,0.0,0.0,0.0,0.0,0.0,0.0,0.0,0.0,0.0,0.0,0.0,0.0,0.0,0.0,0.0855,0.0494,0.0629,0.036,-0.0405,0.0135,0.0405,0.0405,0.0135,-0.0,-0.0,0.036,0.0584,0.0719,0.0674,0.0629,0.054,0.0227,-0.0142,-0.0504,-0.0712,-0.0849,-0.0898,-0.0898,-0.101,0.0,0.0,0.0,0.0,0.0,0.0,0.0,-0.1403,-0.1459,-0.1515,-0.1347,-0.1297,-0.1303,0.0,-0.1247,0.0,0.0,-0.1917,-0.2154,-0.2154,-0.2221,-0.2172,-0.2232,-0.2565,-0.2989,-0.3231,-0.3774,-0.4334,-0.483,-0.5243,-0.5556,-0.5709,-0.6022,-0.6257,-0.6261,-0.6655,-0.6932,-0.7013,-0.7241,-0.7514,-0.7552,-0.7268,-0.7177,-0.7213,-0.6994,-0.6973,-0.6973,-0.6973,-0.6887,-0.6708,-0.6593,-0.6597,-0.6708,-0.6541,-0.6424,-0.652,-0.652,-0.6257,-0.5819,-0.6083,-0.6083,-0.5908,-0.5997,-0.5997,-0.5819,-0.5997,-0.5997,-0.5822,-0.6083,-0.5994,-0.5822,0.0,0.0,0.0,0.0,0.0,0.0,0.0,0.0,0.0,0.0,0.0,0.0,0.0,0.0,0.0,0.0,0.0,0.0,0.0,0.0,0.0,0.0225,0.0315,0.0135,-0.036,-0.009,0.027,0.0719,0.045,0.0,0.0,0.0,0.0,0.0719,0.0719,0.0719,0.0675,0.0459,0.0048,-0.0403,-0.0706,-0.0886,-0.0876,-0.0876,-0.0931,-0.0988,-0.1059,0.0,0.0,0.0,0.0,0.0,0.0,0.0,-0.1572,-0.1459,-0.1403,0.0,0.0,0.0,0.0,-0.1845,0.0,-0.2221,-0.2221,-0.2221,-0.223,-0.2397,-0.2838,-0.3231,-0.3383,-0.3888,-0.4474,-0.4763,-0.5085,-0.5398,-0.5712,-0.5944,-0.618,-0.6261,-0.6548,-0.6718,-0.6802,-0.6873,-0.7033,-0.7274,-0.6958,-0.6866,-0.6943,-0.686,-0.682,-0.682,-0.6733,-0.6645,-0.6473,-0.6235,-0.6155,-0.6395,-0.6144,-0.604,-0.6162,-0.6051,-0.5994,-0.5908,-0.5908,-0.5822,-0.5733,-0.5819,-0.5822,-0.5733,-0.5819,-0.5822,-0.5733,-0.5819,-0.5822,-0.5733,0.0,0.0,0.0,0.0,0.0,0.0,0.0,0.0,0.0,0.0,0.0,0.0,0.0,0.0,0.0,0.0,0.0,0.0,0.0,0.0,0.0,0.0,0.0045,-0.0,-0.0,-0.0315,-0.0135,0.0629,0.0,0.0,0.0,0.0,0.0,0.0584,0.0,0.0677,0.0638,0.0707,0.0343,-0.0305,-0.0713,-0.0885,-0.0806,-0.0854,-0.0852,-0.0855,-0.0929,-0.1051,-0.1168,-0.1503,0.0,0.0,0.0,0.0,-0.1629,-0.1629,-0.1515,0.0,0.0,0.0,-0.1852,-0.2119,-0.221,0.0,-0.2218,-0.2288,-0.2357,-0.2703,-0.3098,-0.3372,-0.3515,-0.4072,-0.4543,-0.4701,-0.4929,-0.5162,-0.5479,-0.5786,-0.6018,-0.618,-0.6363,-0.6517,-0.6683,-0.6596,-0.6568,-0.6941,-0.6666,-0.6491,-0.6617,-0.6647,-0.6661,-0.6579,-0.6493,-0.6325,-0.6242,-0.5815,-0.5735,-0.6004,-0.5779,-0.5762,-0.586,-0.5731,-0.58,-0.5997,-0.5822,-0.5733,-0.5733,-0.5733,-0.5733,-0.5733,-0.5733,-0.5733,-0.5733,-0.5733,-0.5733,-0.5733,0.0,0.0,0.0,0.0,0.0,0.0,0.0,0.0,0.0,0.0,0.0,0.0,0.0,0.0,0.0,0.0,0.0,0.0,0.0,0.0,0.0,0.0584,0.0225,-0.0,-0.0,0.018,0.0315,0.045,0.0,0.0,0.0,0.0,0.0,0.009,0.0,0.0,0.0474,0.062,0.0547,0.0212,-0.0582,-0.0702,-0.05,-0.0808,-0.0746,-0.0584,-0.1034,-0.1202,-0.1342,-0.1611,-0.1699,0.0,0.0,0.0,-0.1797,-0.1797,0.0,0.0,0.0,0.0,-0.2109,0.0,-0.2296,-0.2323,0.0,0.0,-0.2707,0.0,-0.328,-0.3642,-0.3946,-0.4485,-0.4937,-0.4937,-0.5168,-0.5243,-0.5321,-0.5631,-0.5941,-0.5941,-0.6193,-0.6366,-0.6369,-0.6366,-0.6376,-0.6397,-0.6379,-0.6298,-0.6318,-0.6434,-0.6425,-0.6267,-0.6267,-0.6025,-0.5621,-0.5427,-0.5427,-0.554,-0.5653,-0.5719,-0.5736,-0.5606,-0.5632,-0.5733,-0.5733,-0.5733,-0.5733,-0.5733,-0.5733,-0.5733,-0.5733,-0.5733,-0.5733,-0.5733,-0.5733,-0.5733,0.0,0.0,0.0,0.0,0.0,0.0,0.0,0.0,0.0,0.0,0.0,0.0,0.0,0.0,0.0,0.0,0.0,0.0,0.0,0.0,0.0,0.0674,0.0405,0.027,0.0405,0.027,0.0315,0.0,0.0,0.0,0.0,0.0618,0.0522,0.0,0.0,0.0,0.0,-0.0,-0.0152,-0.0106,-0.0469,-0.0633,-0.0653,-0.0643,-0.0631,-0.0672,-0.0883,-0.1051,-0.1226,-0.1385,-0.1582,-0.1685,-0.1797,0.0,0.0,0.0,0.0,0.0,-0.2132,-0.2284,-0.2418,0.0,-0.2603,-0.2697,-0.2615,0.0,-0.29,-0.3073,-0.3424,-0.3734,-0.407,-0.4392,-0.4709,-0.4929,-0.5015,-0.501,-0.5243,-0.5553,-0.5789,-0.586,-0.6103,-0.6257,-0.6099,-0.6099,-0.6099,-0.6099,-0.6099,-0.618,-0.6261,-0.6237,-0.6113,-0.6035,-0.5801,-0.5562,-0.5404,-0.5196,-0.5196,-0.5255,-0.5375,-0.5431,-0.5437,-0.5477,-0.5601,-0.5807,-0.5703,-0.5733,-0.5733,-0.5733,-0.5733,-0.5733,-0.5733,-0.5733,-0.5733,-0.5733,-0.5733,-0.5733,0.0,0.0,0.0,0.0,0.0,0.0,0.0,0.0,0.0,0.0,0.0,0.0,0.0,0.0,0.0,0.0,0.0,0.0,0.0,0.0,0.0,0.0719,0.0539,0.045,0.0539,0.0315,0.0,0.0,0.0,0.0,0.0727,0.0604,0.0504,0.0,0.03,0.0,0.0,0.0,0.0,-0.0538,-0.0524,-0.0685,-0.0863,-0.0641,-0.0628,-0.082,-0.0835,-0.0952,-0.1119,-0.1279,-0.1473,-0.1628,-0.1741,-0.1906,0.0,0.0,0.0,0.0,0.0,0.0,-0.2644,-0.2644,-0.2816,-0.2997,0.0,0.0,-0.3092,0.0,-0.3483,-0.3792,-0.4193,-0.4323,-0.454,-0.4836,-0.4833,-0.4822,-0.5162,-0.5401,-0.5556,-0.5709,-0.5948,-0.6025,-0.5867,-0.5786,-0.5786,-0.5786,-0.5786,-0.5944,-0.6106,-0.5944,-0.5786,-0.5786,-0.5473,-0.5243,-0.5246,-0.5093,-0.5018,-0.5018,-0.5102,-0.5143,-0.5146,-0.5268,-0.5455,-0.5718,-0.5706,-0.5687,-0.5687,-0.5687,-0.5667,-0.5643,-0.5676,-0.5687,-0.5692,-0.5722,-0.5733,-0.5733,0.0,0.0,0.0,0.0,0.0,0.0,0.0,0.0,0.0,0.0,0.0,0.0,0.0,0.0,0.0,0.0674,0.0674,0.0719,0.0719,0.0719,0.0719,0.0719,0.0584,0.0,0.0045,0.045,0.0,0.0,0.0,0.0,0.0805,0.0261,0.0053,0.0053,0.0461,0.0771,0.0849,0.0,0.0,-0.0895,-0.0893,-0.0894,-0.0892,0.0,0.0,0.0,0.0,-0.1035,-0.1119,-0.1385,-0.1527,-0.1628,-0.1741,-0.1906,-0.2015,0.0,0.0,0.0,0.0,-0.2691,0.0,-0.2802,-0.2886,0.0,0.0,0.0,0.0,0.0,-0.3632,-0.3738,-0.4397,-0.4586,-0.4667,-0.474,-0.4765,-0.4882,-0.5002,-0.5168,-0.5321,-0.5321,-0.5479,-0.5637,-0.5637,-0.5637,-0.5637,-0.5637,-0.5637,-0.5637,-0.5637,-0.5637,-0.5556,-0.5321,-0.5321,-0.5246,-0.5015,-0.5018,-0.5018,-0.5018,-0.5023,-0.5026,-0.5029,-0.5143,-0.52,-0.5216,-0.5455,-0.5475,-0.5475,-0.5475,-0.5491,-0.5401,-0.5515,-0.5475,-0.5489,-0.5692,-0.5733,-0.5733,0.0,0.0,0.0,0.0,0.0,0.0,0.0,0.0,0.0,0.0,0.0,0.0,0.0,0.0584,0.0539,0.0674,0.0719,0.0719,0.0719,0.0719,0.0719,0.0719,0.0674,0.0592,0.0467,0.0327,0.0,0.0,0.0,0.0464,0.0784,0.065,0.0385,-0.0,0.0163,0.0272,0.033,0.0495,0.0,0.0,-0.0729,-0.0898,-0.0896,0.0,0.0,0.0,0.0,0.0,0.0,-0.1438,-0.1583,-0.174,-0.1906,-0.2017,-0.2183,-0.2464,0.0,0.0,0.0,0.0,0.0,-0.3294,-0.3295,-0.3315,-0.3294,-0.3218,-0.3259,-0.332,-0.3468,-0.3631,-0.3799,-0.4042,-0.4306,-0.4607,-0.4659,-0.4696,-0.4817,-0.5118,-0.5321,-0.5321,-0.5479,-0.5559,-0.5401,-0.5401,-0.5401,-0.5401,-0.5401,-0.5479,-0.5559,-0.5479,-0.5398,-0.5321,-0.5168,-0.5093,-0.5018,-0.5018,-0.5018,-0.5018,-0.5018,-0.5018,-0.5018,-0.5059,-0.5118,-0.5189,-0.5279,-0.536,-0.5434,-0.5434,-0.5409,-0.5374,-0.5417,-0.5483,-0.547,-0.5513,-0.5665,-0.5733,0.0,0.0,0.0,0.0,0.0,0.0,0.0,0.0,0.0,0.0,0.0,0.0,0.0,0.0,0.036,0.0584,0.0539,0.0494,0.0629,0.0629,0.0674,0.0719,0.0729,0.0744,0.0716,0.0382,0.0294,0.0,0.0,0.0,0.0,0.0888,0.0561,-0.0,-0.0,0.0056,0.0,0.0,0.0,-0.0056,-0.0505,-0.0785,-0.0898,0.0,0.0,0.0,0.0,0.0,0.0,0.0,-0.1762,-0.1906,-0.2128,-0.2296,0.0,0.0,0.0,0.0,-0.3294,0.0,0.0,0.0,0.0,-0.3429,-0.344,0.0,-0.3219,-0.3286,-0.3519,-0.3692,-0.3699,-0.3864,-0.4119,-0.4485,-0.4541,-0.4591,-0.4747,-0.4977,-0.512,-0.5162,-0.5323,-0.5326,-0.5246,-0.5168,-0.5168,-0.5168,-0.5165,0.0,-0.5323,-0.5087,-0.5007,-0.5087,-0.5015,-0.5018,-0.5018,-0.5018,-0.5018,-0.5018,-0.5018,-0.5018,-0.5018,-0.5018,-0.5059,-0.5129,-0.5129,-0.5197,-0.5306,-0.5306,-0.5284,-0.5254,-0.5292,-0.5358,-0.5439,-0.5435,-0.5515,-0.5678,0.0,0.0,0.0,0.0,0.0,0.0,0.0,0.0,0.0,0.0,0.0,0.0,0.0,0.0,0.0,0.0405,0.018,0.0135,0.045,0.0494,0.0585,0.0675,0.0749,0.0813,0.0815,0.0623,0.0497,0.0,0.0,0.0,0.0,0.0,0.0561,-0.0,-0.0,0.0112,0.0393,0.0,0.0561,-0.0,0.0,-0.0561,-0.0898,0.0,0.0,0.0,-0.129,-0.1459,0.0,-0.1903,0.0,0.0,0.0,0.0,0.0,0.0,0.0,0.0,0.0,0.0,0.0,0.0,0.0,0.0,-0.3467,0.0,-0.3317,-0.363,-0.3776,-0.3849,-0.4049,-0.4213,-0.4306,-0.4324,-0.4406,-0.4553,-0.479,-0.483,-0.4876,-0.4996,-0.5015,-0.5018,-0.5018,-0.5018,-0.5018,-0.5018,-0.4776,-0.4696,-0.4696,-0.4535,-0.4538,-0.4701,-0.4859,-0.5018,-0.5018,-0.5018,-0.5018,-0.5018,-0.5018,-0.5018,-0.5018,-0.5018,-0.5018,-0.5018,-0.5018,-0.508,-0.5181,-0.5181,-0.5116,-0.5029,-0.5137,-0.5184,-0.5214,-0.5453,-0.5456,-0.5475,0.0,0.0,0.0,0.0,0.0,0.0,0.0,0.0,0.0,0.0,0.0,0.0,0.0,0.0,0.0539,0.0629,0.0539,0.0405,0.0135,0.045,0.0684,0.0704,0.0523,0.0588,0.0878,0.0776,0.0688,0.0,0.0,0.0,0.0,0.0,0.0,0.0,-0.0561,-0.0449,-0.0056,0.0617,0.0,0.0505,-0.0842,-0.1291,0.0,0.0,0.0,0.0,0.0,-0.1685,-0.1797,0.0,-0.2127,-0.2184,0.0,0.0,0.0,0.0,0.0,0.0,-0.3574,0.0,0.0,0.0,0.0,0.0,0.0,0.0,0.0,-0.3669,-0.383,-0.4002,-0.4156,-0.4339,-0.4543,-0.4507,-0.4505,-0.4493,-0.4561,-0.4722,-0.4847,-0.4879,-0.4963,-0.5018,-0.5018,-0.5018,-0.5018,0.0,-0.4857,-0.4806,-0.4806,-0.473,-0.477,-0.4935,-0.4937,-0.5018,-0.5018,-0.5018,-0.5018,-0.5018,-0.5018,-0.5018,-0.5018,-0.5018,-0.5018,-0.5018,-0.5018,-0.5034,-0.5064,-0.5064,-0.5045,-0.5021,-0.5053,-0.5113,-0.5195,-0.5262,-0.5344,-0.5423,0.0,0.0,0.0,0.0,0.0,0.0,0.0,0.0,0.0,0.0,0.0,0.0,0.0,0.0,0.0,0.0225,0.036,0.0272,-0.0092,0.0092,0.0329,0.0488,0.0347,0.0306,0.0372,0.0426,0.0488,0.0561,0.0,0.0,0.0,0.0,0.0,0.0,0.0,0.0,0.0,0.0,0.0,0.0,-0.0785,0.0,0.0,-0.1291,-0.1347,0.0,0.0,0.0,-0.2018,-0.224,-0.2464,0.0,0.0,0.0,0.0,0.0,0.0,0.0,0.0,0.0,0.0,0.0,0.0,0.0,-0.3838,-0.3682,-0.3596,0.0,-0.3952,-0.4133,-0.421,-0.439,-0.4502,-0.4455,-0.4463,-0.4498,-0.4519,-0.4591,-0.47,-0.4751,-0.4822,-0.4866,-0.4866,-0.4866,-0.4866,-0.4866,-0.4726,-0.4538,-0.4464,-0.4538,-0.4667,-0.478,-0.4786,-0.4809,-0.4859,-0.4859,-0.4859,-0.4859,-0.4859,-0.4937,-0.5018,-0.4937,-0.4937,-0.5018,-0.5018,-0.5018,-0.5018,-0.5018,-0.5018,-0.5018,-0.5018,-0.5059,-0.5121,-0.5092,-0.5154,-0.5301,0.0,0.0,0.0,0.0,0.0,0.0,0.0,0.0,0.0,0.0,0.0,0.0,0.0,0.0,0.0,0.0,-0.0226,-0.0138,-0.0336,-0.0384,-0.0244,0.0051,0.0105,-0.0053,-0.0428,-0.0214,-0.0,0.0168,0.0,0.0,0.0,0.0,0.0,0.0,0.0,0.0,0.0,0.0,0.0,-0.0449,-0.0505,-0.0785,0.0,0.0,-0.1347,-0.1629,-0.1796,-0.1962,-0.224,-0.2465,-0.28,0.0,0.0,0.0,0.0,0.0,-0.3585,0.0,0.0,0.0,0.0,0.0,0.0,0.0,-0.3799,-0.3852,-0.3852,-0.4021,-0.4178,-0.4268,-0.4226,-0.438,-0.4406,-0.4241,-0.4363,-0.4424,-0.4453,-0.4511,-0.4566,-0.469,-0.4718,-0.4726,-0.4726,-0.4726,-0.4726,-0.4726,-0.4501,-0.4277,-0.4056,-0.4203,-0.44,-0.4507,-0.451,-0.4558,-0.466,-0.4675,-0.4681,-0.4681,-0.4693,-0.4779,-0.4937,-0.4779,-0.4779,-0.5018,-0.5018,-0.5018,-0.5018,-0.5018,-0.5018,-0.5018,-0.5018,-0.5018,-0.4951,-0.4895,-0.5009,-0.51,0.0,0.0,0.0,0.0,0.0,0.0,0.0,0.0,0.0,0.0,0.0,0.0,0.0,0.0,0.0,0.0,-0.0614,-0.0624,-0.0797,-0.0549,-0.0507,-0.0684,-0.0477,-0.0485,-0.0777,-0.0778,-0.0724,-0.0673,0.0,0.0,0.0,0.0,0.0,0.0,0.0,0.0,0.0,0.0,0.0,-0.0842,-0.1178,0.0,-0.1459,-0.1628,-0.1685,-0.1796,-0.1905,-0.2071,-0.224,-0.2691,-0.3026,-0.3357,0.0,0.0,0.0,-0.3585,0.0,0.0,0.0,0.0,0.0,0.0,0.0,0.0,-0.4079,-0.4024,-0.4021,0.0,-0.4432,-0.4488,-0.4609,-0.4598,-0.4595,-0.4527,-0.4546,-0.455,-0.4426,-0.4604,-0.4716,-0.4702,-0.481,-0.4801,-0.4726,-0.4726,-0.4726,-0.4726,-0.4561,-0.4437,-0.4434,-0.4437,-0.4493,-0.4683,-0.4686,-0.47,-0.4724,-0.4592,-0.4561,-0.4563,-0.4498,-0.4543,-0.4779,-0.4701,-0.4779,-0.5018,-0.5018,-0.5018,-0.5018,-0.5018,-0.5018,-0.5018,-0.5018,-0.5018,-0.4943,-0.4805,-0.4734,-0.4734,0.0,0.0,0.0,0.0,0.0,0.0,0.0,0.0,0.0,0.0,0.0,0.0,0.0,0.0,0.0,0.0,0.0,0.0,0.0,-0.0673,-0.0738,-0.0873,-0.0765,-0.0771,-0.0897,-0.0898,-0.0898,-0.0898,0.0,0.0,0.0,0.0,0.0,0.0,0.0,0.0,0.0,0.0,-0.1122,-0.1122,-0.1234,0.0,-0.1403,-0.1628,-0.1796,-0.1906,-0.1906,-0.2017,-0.224,-0.2691,-0.297,0.0,-0.3246,-0.3357,-0.3527,0.0,-0.3527,-0.3583,0.0,0.0,0.0,-0.3691,0.0,0.0,0.0,-0.4079,-0.419,-0.4463,-0.4519,-0.4539,-0.4562,0.0,-0.4545,-0.4449,-0.4458,-0.4507,-0.447,-0.454,-0.4586,-0.4584,-0.4645,-0.4725,-0.4657,-0.4645,-0.4613,-0.4477,-0.442,-0.4384,-0.4384,-0.4384,-0.4439,-0.4629,-0.4493,-0.4451,-0.4364,-0.4347,-0.4225,-0.4151,-0.4204,-0.438,-0.453,-0.4533,-0.4642,-0.4925,-0.4925,-0.4961,-0.5018,-0.5018,-0.5018,-0.5018,-0.4859,-0.4937,-0.4937,-0.4698,-0.4621,-0.4698,0.0,0.0,0.0,0.0,0.0,0.0,0.0,0.0,0.0,0.0,0.0,0.0,0.0,0.0,0.0,0.0,0.0,0.0,0.0,-0.0753,-0.0872,-0.084,-0.0898,-0.0898,-0.0898,-0.0898,-0.0898,-0.0898,0.0,0.0,0.0,0.0,0.0,0.0,0.0,0.0,0.0,0.0,0.0,-0.1246,0.0,-0.1242,-0.1403,-0.1628,-0.185,-0.2015,-0.1964,-0.2084,-0.2372,-0.2641,-0.2871,-0.2995,-0.3084,-0.3244,0.0,0.0,0.0,0.0,0.0,0.0,0.0,0.0,0.0,-0.3852,0.0,0.0,0.0,0.0,0.0,0.0,0.0,0.0,0.0,0.0,0.0,0.0,0.0,-0.4451,0.0,-0.4412,-0.4519,-0.4586,-0.4586,-0.4555,-0.4498,-0.4262,-0.4265,-0.4276,-0.43,-0.4233,-0.4274,-0.4433,-0.4304,-0.4142,-0.4013,-0.4037,-0.3972,-0.3754,-0.3921,-0.4147,-0.4359,-0.4295,-0.4491,-0.4726,-0.4747,-0.4814,-0.4908,-0.4929,-0.4937,-0.4937,-0.4779,-0.4859,-0.4937,-0.4543,-0.454,-0.4621,-0.2199,-0.1973,0.0,0.0,0.0,0.0,0.0,0.0,0.0,0.0,0.0,0.0,0.0,0.0,0.0,0.0,0.0,0.0,-0.0835,0.0,-0.0838,-0.0617,-0.0785,-0.0898,-0.0898,-0.0898,-0.0898,-0.0898,0.0,0.0,0.0,0.0,0.0,0.0,-0.129,0.0,0.0,0.0,-0.1142,0.0,-0.1348,-0.1441,0.0,-0.1961,-0.2073,-0.2015,-0.2298,-0.2571,-0.2741,0.0,-0.3028,-0.3256,0.0,-0.3244,-0.3413,-0.3413,0.0,0.0,0.0,0.0,0.0,0.0,-0.3691,0.0,0.0,0.0,-0.4249,-0.4463,0.0,0.0,0.0,0.0,0.0,0.0,0.0,0.0,-0.4657,-0.456,-0.4498,-0.4575,-0.462,-0.4568,-0.4442,-0.4393,-0.4329,-0.4129,-0.414,-0.4186,-0.4295,-0.4164,-0.4033,-0.4046,-0.4185,-0.4123,-0.3862,-0.3887,-0.3795,-0.3653,-0.3741,-0.393,-0.4147,-0.4225,-0.4372,-0.4458,-0.4484,-0.4465,-0.4412,-0.466,-0.4701,-0.4779,-0.4937,-0.5018,-0.4937,-0.4543,-0.4384,-0.4384,-0.2243,-0.1975,0.0,0.0,0.0,0.0,0.0,0.0,0.0,0.0,0.0,0.0,0.0,0.0,0.0,0.0,0.0,-0.0973,0.0,0.0,0.0,-0.0898,-0.1122,-0.1234,-0.1122,-0.1122,-0.1122,-0.1122,-0.1122,0.0,0.0,0.0,0.0,0.0,-0.143,0.0,-0.1443,0.0,-0.1833,0.0,0.0,0.0,0.0,-0.2061,-0.2074,-0.2192,-0.2606,-0.2749,-0.2771,0.0,-0.2911,0.0,0.0,0.0,0.0,-0.3244,0.0,0.0,0.0,0.0,0.0,0.0,0.0,0.0,-0.3965,0.0,-0.4408,0.0,0.0,0.0,0.0,0.0,0.0,0.0,-0.4664,0.0,0.0,0.0,-0.4474,0.0,0.0,0.0,-0.4537,-0.4543,-0.4446,-0.4196,-0.4139,-0.4099,-0.3956,-0.3895,-0.3798,-0.3736,-0.3871,-0.3835,-0.3627,-0.3671,-0.3623,-0.3555,-0.3733,-0.382,-0.3961,-0.4032,-0.4134,-0.4124,-0.417,-0.4193,-0.4317,-0.4434,-0.4488,-0.4543,-0.4621,-0.4701,-0.4779,-0.4389,-0.4233,-0.4233,-0.2286,0.0,0.0,0.0,0.0,0.0,0.0,0.0,0.0,0.0,0.0,0.0,-0.0669,-0.0697,0.0,0.0,-0.1042,-0.1147,0.0,0.0,-0.129,0.0,-0.1403,0.0,-0.1403,-0.1402,-0.1402,-0.1291,-0.1347,0.0,0.0,0.0,0.0,0.0,0.0,-0.1749,-0.1765,0.0,-0.2306,-0.2238,-0.2413,-0.2415,-0.2324,-0.2274,-0.234,-0.2526,-0.2956,-0.3034,-0.2923,-0.2893,-0.2922,0.0,-0.3037,0.0,-0.3188,0.0,0.0,0.0,-0.3302,0.0,0.0,0.0,0.0,0.0,0.0,0.0,0.0,0.0,0.0,0.0,0.0,0.0,0.0,0.0,0.0,-0.461,0.0,-0.4517,0.0,0.0,0.0,0.0,0.0,-0.447,-0.4389,-0.4128,-0.4068,-0.3961,-0.3747,-0.3689,-0.3683,-0.3606,-0.3608,-0.3593,-0.3429,-0.3496,-0.3563,-0.3498,-0.3761,-0.3825,-0.3825,-0.3961,-0.3939,-0.3809,-0.3834,-0.3935,-0.4082,-0.4136,-0.4201,-0.4267,-0.4297,-0.4387,-0.4467,-0.4235,-0.4079,-0.4079,-0.2324,-0.215,0.0,0.0,0.0,0.0,0.0,0.0,0.0,0.0,0.0,0.0,0.0,0.0,0.0,0.0,0.0,-0.1514,-0.1572,0.0,-0.1403,0.0,0.0,-0.1572,0.0,-0.1737,-0.1624,-0.1291,-0.1515,-0.1572,0.0,0.0,0.0,0.0,0.0,-0.183,-0.1882,-0.1883,-0.2074,-0.238,-0.2383,-0.2486,-0.2727,0.0,-0.3077,-0.3202,-0.3388,0.0,0.0,-0.3294,-0.3258,0.0,0.0,0.0,0.0,0.0,0.0,0.0,0.0,0.0,0.0,-0.3585,0.0,0.0,0.0,0.0,-0.4519,0.0,0.0,0.0,0.0,0.0,0.0,0.0,0.0,0.0,0.0,0.0,0.0,0.0,0.0,0.0,0.0,-0.4069,-0.4091,-0.3809,-0.3759,-0.3749,-0.3867,-0.3758,-0.3688,-0.3606,-0.3732,-0.3586,-0.3226,-0.3627,-0.3694,-0.3498,-0.383,-0.3894,-0.3825,-0.3961,-0.383,-0.3507,-0.3595,-0.3572,-0.3457,-0.378,-0.3933,-0.3944,-0.4042,-0.4079,-0.4079,-0.4079,-0.4079,-0.4079,0.0,0.0,0.0,0.0,0.0,0.0,0.0,-0.0961,0.0,0.0,0.0,0.0,0.0,-0.1459,-0.157,0.0,0.0,-0.1681,-0.1741,-0.1738,0.0,0.0,0.0,-0.2017,0.0,-0.2015,-0.2015,-0.1905,-0.1961,-0.2017,0.0,0.0,0.0,0.0,0.0,-0.2242,0.0,0.0,0.0,0.0,0.0,-0.2883,-0.2883,0.0,-0.3134,-0.3264,-0.3589,-0.3743,0.0,-0.3526,-0.3446,-0.3418,-0.3357,-0.3388,-0.3413,-0.3413,-0.3471,-0.3585,0.0,0.0,-0.3744,-0.3744,0.0,0.0,0.0,0.0,0.0,0.0,0.0,0.0,0.0,0.0,0.0,0.0,0.0,0.0,0.0,0.0,0.0,0.0,0.0,0.0,0.0,0.0,-0.4015,-0.3787,-0.3755,-0.371,-0.3582,-0.353,-0.3467,-0.3394,-0.3466,-0.3491,-0.3466,-0.3659,-0.3758,-0.3694,-0.3825,-0.3761,-0.3629,-0.3629,-0.3563,-0.3297,-0.3326,-0.3374,-0.3438,-0.3637,-0.3666,-0.3705,-0.3891,-0.3943,-0.3921,-0.3921,-0.3921,-0.3921,-0.2617,0.0,0.0,0.0,0.0,0.0,0.0,0.0,0.0,0.0,-0.129,0.0,-0.1626,0.0,-0.1874,0.0,-0.198,-0.1986,-0.1965,-0.2096,0.0,-0.2113,-0.2251,0.0,0.0,0.0,-0.2395,-0.2279,-0.231,-0.2296,0.0,0.0,0.0,0.0,0.0,-0.243,-0.2593,-0.2831,-0.3017,0.0,0.0,-0.3238,0.0,0.0,-0.3407,-0.3383,0.0,-0.3936,-0.3896,-0.3803,-0.3722,-0.3663,-0.3567,-0.3537,-0.354,-0.3487,-0.3527,-0.3585,-0.3585,-0.3635,0.0,-0.3796,-0.3852,0.0,-0.3965,0.0,-0.4372,0.0,0.0,0.0,0.0,0.0,0.0,0.0,0.0,0.0,0.0,-0.4563,0.0,0.0,0.0,0.0,0.0,-0.4006,-0.3926,-0.3764,-0.374,-0.3624,-0.3408,-0.3448,-0.3468,-0.3346,-0.3457,-0.3564,-0.3608,-0.3708,-0.3825,-0.3825,-0.3825,-0.3694,-0.3498,-0.3498,-0.3362,-0.3226,-0.3226,-0.326,-0.3318,-0.3485,-0.3518,-0.3585,-0.3766,-0.3759,-0.3763,-0.3763,-0.3763,-0.3763,-0.2609,0.0,0.0,0.0,-0.1627,0.0,0.0,0.0,-0.1457,0.0,-0.1682,-0.1682,-0.1847,-0.2073,-0.2143,-0.2077,-0.2249,-0.2375,-0.2244,-0.2369,0.0,0.0,-0.2669,-0.2716,-0.2716,0.0,0.0,0.0,-0.2505,0.0,0.0,0.0,0.0,0.0,-0.224,0.0,-0.2709,-0.2709,-0.2995,-0.3491,-0.3496,-0.3629,-0.3825,-0.3825,-0.3762,-0.3687,-0.4125,-0.4227,-0.4078,-0.4058,-0.4085,-0.4046,-0.3824,-0.3771,-0.3792,-0.364,-0.3591,-0.3585,-0.3585,-0.3641,-0.3638,-0.3799,-0.3796,0.0,0.0,0.0,-0.4187,0.0,0.0,0.0,0.0,0.0,0.0,0.0,0.0,0.0,0.0,0.0,0.0,0.0,0.0,0.0,0.0,-0.4005,-0.3868,-0.365,-0.3606,-0.3559,0.0,-0.3515,-0.3575,-0.3516,-0.363,-0.3683,-0.3601,-0.3767,-0.382,-0.3825,-0.3825,-0.3694,-0.3498,-0.3498,-0.3362,-0.3226,-0.3226,-0.3226,-0.3234,-0.332,-0.3411,-0.3501,-0.3581,-0.3669,-0.3752,-0.3761,-0.3841,-0.3841,-0.2672,-0.2534,-0.2284,0.0,-0.1807,-0.1737,0.0,0.0,0.0,0.0,-0.1903,-0.2017,-0.241,-0.2428,-0.2488,-0.2637,-0.2655,0.0,0.0,0.0,0.0,-0.2591,-0.2788,-0.2956,-0.3081,-0.2987,-0.2997,-0.3058,0.0,0.0,-0.2852,0.0,0.0,0.0,0.0,0.0,-0.2915,-0.2915,-0.3147,-0.3591,-0.3799,-0.3828,-0.3825,0.0,-0.4025,-0.3811,-0.4188,-0.4281,-0.4259,-0.4223,-0.4153,-0.4068,-0.4014,-0.3919,-0.3814,-0.3773,-0.3678,-0.3638,-0.3744,-0.3802,-0.3913,-0.3965,-0.4024,-0.4079,0.0,0.0,0.0,0.0,0.0,0.0,0.0,0.0,0.0,0.0,0.0,0.0,0.0,0.0,0.0,-0.4416,0.0,0.0,0.0,-0.3832,-0.3814,-0.3761,-0.3676,-0.3609,-0.3684,-0.3641,-0.3615,-0.357,-0.3685,-0.38,-0.3797,-0.3974,-0.3944,-0.3825,-0.3892,-0.3694,-0.3295,-0.3431,-0.3498,-0.3431,-0.3295,-0.3295,-0.3433,-0.3457,-0.3455,-0.3472,-0.3559,-0.3555,-0.3583,-0.3716,-0.3921,-0.3999,-0.2715,0.0,0.0,-0.2282,0.0,0.0,-0.2227,-0.2082,0.0,-0.2296,-0.2296,0.0,-0.2747,-0.2817,-0.2832,-0.2811,-0.282,0.0,-0.2527,0.0,0.0,-0.2883,-0.3068,-0.3266,-0.3455,-0.3252,0.0,-0.3361,0.0,0.0,-0.3074,0.0,0.0,0.0,0.0,-0.2853,-0.2943,-0.3102,-0.3306,-0.3549,-0.3781,-0.3888,0.0,-0.402,-0.3981,-0.386,-0.4003,-0.411,-0.4221,-0.4221,-0.4211,-0.4208,-0.4143,-0.4046,-0.389,-0.376,-0.3704,-0.3708,-0.3699,-0.3786,-0.391,-0.3965,-0.4079,-0.4138,-0.4024,-0.4018,-0.4062,0.0,-0.421,-0.4338,0.0,0.0,0.0,0.0,0.0,0.0,0.0,0.0,0.0,0.0,-0.428,0.0,0.0,-0.374,-0.3715,-0.3717,-0.3738,0.0,0.0,-0.3782,-0.3787,-0.3583,-0.3809,-0.3907,-0.3854,-0.3918,-0.3885,-0.3754,-0.3754,-0.3584,-0.3366,-0.3499,-0.3588,-0.3629,-0.3429,-0.3362,-0.3498,-0.3498,-0.3487,-0.3436,-0.3615,-0.3737,-0.3728,-0.3759,-0.3873,-0.3949,-0.2656,0.0,0.0,0.0,0.0,0.0,0.0,-0.2362,0.0,-0.2689,0.0,-0.2802,-0.2916,-0.3064,-0.3038,-0.2761,0.0,-0.2866,-0.2531,-0.2866,-0.3092,-0.3202,-0.3392,-0.3625,-0.3803,-0.3549,-0.3381,0.0,0.0,0.0,0.0,0.0,0.0,0.0,0.0,0.0,0.0,-0.3264,-0.3498,-0.352,-0.3733,-0.3911,-0.4115,-0.3906,-0.3837,-0.3824,-0.3786,-0.3887,-0.4054,-0.4054,-0.42,-0.43,-0.4164,-0.4097,-0.4,-0.3847,-0.3758,-0.3746,-0.3611,-0.3716,-0.3855,-0.3965,-0.4135,-0.4138,-0.4024,-0.4028,-0.3977,-0.3819,-0.3969,-0.416,-0.4243,0.0,0.0,0.0,0.0,0.0,0.0,0.0,0.0,0.0,0.0,0.0,0.0,0.0,0.0,0.0,-0.382,0.0,0.0,0.0,-0.4009,-0.3638,-0.3855,-0.3972,-0.3812,-0.3745,-0.3745,-0.3699,-0.3574,-0.3568,-0.3611,-0.3608,-0.3728,-0.3825,-0.3563,-0.3498,-0.3565,-0.3498,-0.3411,-0.3424,-0.3643,-0.3817,-0.3891,-0.3817,-0.3817,-0.3893,-0.2359,0.0,0.0,0.0,0.0,-0.2611,-0.2834,-0.2792,-0.2802,-0.3021,-0.3021,-0.3021,-0.3077,-0.2999,-0.2954,-0.2863,-0.2847,0.0,0.0,0.0,0.0,-0.3206,-0.3392,-0.359,-0.3823,-0.3511,-0.3409,0.0,0.0,0.0,0.0,0.0,0.0,0.0,0.0,0.0,-0.3053,-0.3561,0.0,-0.4064,-0.3958,-0.4028,-0.4171,-0.3942,-0.3784,-0.3599,-0.3819,-0.3887,-0.3924,-0.3924,-0.4067,-0.43,-0.43,-0.4097,-0.3934,-0.4043,-0.3926,-0.3842,-0.3886,-0.3937,-0.3978,-0.4138,-0.4193,-0.4138,-0.4024,-0.4028,-0.3928,-0.3667,-0.3904,-0.4179,-0.4217,0.0,0.0,0.0,0.0,0.0,0.0,0.0,0.0,0.0,0.0,-0.3968,0.0,0.0,0.0,0.0,0.0,-0.3791,-0.3718,0.0,-0.4126,0.0,-0.399,-0.3996,0.0,0.0,-0.3841,-0.3699,-0.3941,-0.388,-0.3611,-0.3732,-0.3856,-0.3961,-0.3629,-0.3563,-0.3692,-0.336,-0.3236,-0.3252,-0.3472,-0.3549,-0.3617,-0.3748,-0.3951,-0.4185,0.0,0.0,0.0,0.0,0.0,0.0,0.0,-0.3161,-0.3085,-0.303,-0.3077,-0.3077,-0.3023,-0.2956,-0.293,-0.293,-0.296,-0.2915,-0.2766,-0.3217,-0.3434,-0.3331,-0.3586,-0.3845,-0.3926,-0.375,-0.3578,-0.3528,0.0,0.0,0.0,0.0,0.0,0.0,0.0,-0.3079,0.0,0.0,0.0,-0.3876,-0.3878,-0.3876,-0.3983,-0.3863,-0.3724,-0.354,-0.36,-0.3649,-0.3697,-0.3877,-0.4038,-0.4194,-0.4129,-0.4064,-0.4,-0.3977,-0.3913,-0.3835,-0.3851,-0.388,-0.3916,-0.4082,-0.4138,-0.4193,-0.4135,-0.4084,-0.4091,-0.3932,-0.4085,-0.4267,-0.4473,-0.4606,0.0,0.0,0.0,0.0,0.0,0.0,-0.4243,0.0,0.0,0.0,0.0,0.0,0.0,0.0,0.0,-0.4009,-0.402,0.0,-0.4304,0.0,0.0,0.0,-0.3796,0.0,-0.3866,-0.387,-0.3926,-0.3932,-0.3811,-0.3686,-0.3715,-0.3873,-0.3551,-0.3515,-0.3627,-0.3295,-0.3293,-0.3493,-0.3627,-0.3696,-0.3763,-0.3961,-0.4164,-0.425,0.0,-0.2747,0.0,0.0,-0.2947,0.0,-0.3397,-0.337,-0.3294,-0.3156,-0.3201,-0.3145,-0.3035,-0.3098,-0.3084,-0.3025,-0.3175,-0.3193,-0.292,-0.34,-0.3648,-0.3576,-0.3843,-0.402,-0.4042,-0.391,-0.3745,0.0,0.0,0.0,0.0,0.0,0.0,0.0,0.0,0.0,0.0,0.0,-0.354,-0.3682,-0.3749,-0.379,-0.3809,-0.3785,-0.3603,-0.3425,-0.3473,-0.3509,-0.3541,-0.3805,-0.3977,-0.4061,-0.3904,-0.394,-0.4009,-0.3872,-0.3871,-0.3848,-0.3768,-0.377,-0.3855,-0.4024,-0.4079,-0.4138,-0.4193,-0.4193,-0.4128,-0.4097,-0.4167,-0.432,-0.4735,-0.4719,0.0,0.0,0.0,0.0,0.0,0.0,0.0,0.0,0.0,0.0,-0.3744,0.0,0.0,0.0,0.0,-0.4191,-0.4131,-0.4494,-0.4412,-0.3865,-0.3966,-0.392,-0.3708,0.0,-0.391,-0.4021,-0.391,-0.3922,-0.3993,-0.3728,-0.3732,-0.3793,-0.3628,-0.3556,-0.3563,-0.336,-0.3493,-0.3825,-0.3825,-0.3961,-0.4097,-0.4298,-0.4431,-0.4431,0.0,0.0,0.0,0.0,0.0,0.0,-0.329,-0.3373,-0.3491,-0.3782,-0.3724,-0.3544,-0.336,-0.3547,-0.3488,-0.3062,-0.3342,-0.3423,-0.3195,-0.3694,-0.3851,-0.3697,-0.3906,-0.3942,-0.3854,-0.3769,-0.3592,0.0,0.0,-0.3413,0.0,0.0,0.0,0.0,0.0,0.0,0.0,-0.3688,-0.3866,-0.3964,-0.3696,-0.3718,-0.3801,-0.364,-0.3429,-0.3212,-0.3587,-0.3632,-0.3528,-0.3709,-0.3852,-0.3888,-0.3878,-0.3888,-0.382,-0.3883,-0.3882,-0.3803,-0.3929,-0.3893,-0.3863,-0.4138,-0.4079,-0.4024,-0.4193,-0.4079,-0.3987,-0.3862,-0.4089,-0.4428,-0.4826,-0.4852,-0.4856,0.0,0.0,0.0,0.0,0.0,-0.3922,-0.3902,0.0,0.0,-0.388,-0.3922,0.0,0.0,-0.4115,-0.4087,-0.3862,-0.4382,-0.446,-0.4003,-0.4015,-0.3959,-0.395,-0.3959,-0.3965,-0.4024,-0.4135,-0.4097,-0.3995,-0.4114,-0.3993,-0.3798,-0.3901,-0.3885,-0.3758,-0.3758,-0.3758,-0.3825,-0.3961,-0.4097,-0.43,-0.4495,-0.4758,-0.5024,0.0,0.0,0.0,0.0,0.0,0.0,0.0,-0.3638,-0.369,-0.3818,-0.3588,-0.3326,-0.3202,-0.3324,-0.3347,-0.322,-0.358,-0.3651,-0.3484,-0.3878,-0.409,-0.3859,-0.3944,-0.4022,-0.3865,-0.3781,-0.3632,0.0,0.0,0.0,0.0,0.0,0.0,0.0,0.0,-0.3796,-0.3747,-0.3796,-0.3825,-0.3868,-0.3764,-0.3719,-0.3645,-0.3602,-0.358,-0.3527,-0.3634,-0.3707,-0.3707,-0.3761,-0.3842,-0.3814,-0.3746,-0.3782,-0.3804,-0.3841,-0.3811,-0.3827,-0.3866,-0.3755,-0.3749,-0.3913,-0.3965,-0.4024,-0.4193,-0.4245,-0.4226,-0.4063,-0.4104,-0.4229,-0.4615,-0.4574,-0.4467,-0.4415,0.0,0.0,0.0,0.0,0.0,-0.3873,0.0,-0.3841,0.0,-0.3725,0.0,0.0,0.0,-0.3982,-0.3971,-0.4084,-0.4036,-0.3811,0.0,-0.3944,-0.3884,-0.4053,-0.419,-0.4298,-0.4245,-0.4166,-0.4109,-0.4068,-0.4058,-0.406,-0.4109,-0.4092,-0.3894,-0.3894,-0.3894,-0.3961,-0.4097,-0.4298,-0.4495,-0.4824,-0.4891,-0.4894,-0.2789,0.0,-0.3188,0.0,-0.3556,-0.3703,-0.3781,-0.3796,-0.3759,-0.3704,-0.343,-0.3224,-0.3216,-0.3324,-0.3409,-0.3512,-0.3816,-0.3875,-0.3716,-0.4053,-0.418,-0.3993,-0.4086,0.0,-0.3875,-0.3852,-0.3748,-0.3519,-0.3599,0.0,0.0,0.0,0.0,0.0,-0.391,-0.3965,-0.3965,-0.391,-0.3852,-0.3852,-0.3796,-0.3744,-0.3635,-0.3638,-0.3691,-0.3796,-0.3691,-0.3747,-0.3852,-0.3796,-0.3801,-0.38,-0.3663,-0.3749,-0.3811,-0.3755,-0.3755,-0.3755,-0.3755,-0.3697,-0.3638,-0.3744,-0.391,-0.4024,-0.4135,-0.4301,-0.4353,-0.419,-0.4079,-0.4079,-0.4298,-0.419,-0.4079,-0.4079,0.0,0.0,0.0,-0.3983,0.0,-0.3785,-0.369,-0.37,-0.3752,-0.3547,0.0,0.0,0.0,-0.3773,-0.3924,-0.3835,-0.372,-0.3624,0.0,0.0,-0.3881,-0.4072,-0.4301,-0.4519,-0.4356,-0.4249,-0.42,-0.4091,-0.4166,-0.4315,-0.4369,-0.4359,-0.4228,-0.4228,-0.4228,-0.4228,-0.4364,-0.4564,-0.4758,-0.5024,-0.5024,-0.5027,-0.2698,-0.2956,-0.3294,-0.3526,-0.3608,-0.367,-0.3793,-0.367,-0.3544,-0.3416,-0.3263,-0.3337,-0.3732,-0.3791,-0.3771,-0.3813,-0.3988,-0.4038,-0.4018,-0.4164,-0.4246,0.0,0.0,-0.4183,-0.388,-0.3872,-0.3873,-0.3809,0.0,0.0,-0.3585,0.0,-0.391,-0.3796,-0.4079,-0.4135,-0.4024,-0.4021,-0.4021,-0.3965,-0.3852,-0.3796,-0.3796,-0.3635,-0.3691,-0.3796,-0.3796,-0.391,-0.3965,-0.3852,-0.3796,-0.3796,-0.3796,-0.3802,-0.3755,-0.3641,-0.3585,-0.3585,-0.3585,-0.3585,-0.3638,-0.3744,-0.391,-0.4024,-0.4024,-0.4079,-0.4138,-0.4024,-0.4024,-0.4024,-0.4024,-0.391,-0.3796,-0.3796,0.0,0.0,0.0,-0.3617,0.0,-0.3602,-0.3492,-0.347,-0.3579,-0.3616,0.0,0.0,0.0,-0.3453,-0.3617,0.0,0.0,-0.3418,-0.3548,0.0,-0.3977,-0.412,-0.4301,-0.4519,-0.4519,-0.4411,-0.4203,-0.4186,-0.4314,-0.4568,-0.4569,-0.4694,-0.4764,-0.4764,-0.4764,-0.4764,-0.4764,-0.4894,-0.5087,-0.5087,-0.5223,-0.5362,-0.3062,-0.3381,-0.3714,-0.3825,-0.398,-0.4017,-0.3803,-0.386,-0.3771,-0.3321,-0.3467,-0.3614,-0.3549,-0.3582,-0.3714,0.0,-0.413,-0.4257,0.0,-0.4233,-0.4284,-0.4243,-0.42,-0.414,-0.4061,-0.3977,-0.3873,-0.3812,0.0,0.0,0.0,-0.391,-0.391,-0.3796,-0.4079,-0.4138,-0.4024,-0.4079,-0.4079,-0.4024,-0.4079,-0.4024,-0.391,-0.3913,-0.3968,-0.4079,-0.3965,-0.4024,-0.4138,-0.4079,-0.4079,-0.4079,-0.3965,-0.3805,-0.3641,-0.3641,-0.3585,-0.3585,-0.3585,-0.3585,-0.3638,-0.3744,-0.3852,-0.391,-0.3965,-0.3965,-0.3965,-0.3965,-0.3802,-0.3635,-0.3694,-0.3522,-0.3297,-0.3297,-0.3469,0.0,-0.3476,0.0,-0.3576,-0.3462,-0.3273,-0.3229,-0.355,-0.3337,0.0,0.0,0.0,0.0,0.0,0.0,0.0,0.0,-0.3755,0.0,-0.4141,-0.4338,-0.4463,-0.4519,-0.4519,-0.4518,-0.4569,-0.4647,-0.4748,-0.4947,-0.5094,-0.5093,-0.5024,-0.5024,-0.5024,-0.5024,-0.5024,-0.5156,-0.5292,-0.5292,-0.5359,-0.5428,-0.3084,-0.3537,-0.3931,-0.383,-0.3967,-0.4072,-0.3934,-0.3914,-0.3709,-0.3339,-0.3628,-0.3784,-0.3635,-0.3793,0.0,-0.4159,-0.4232,-0.4383,-0.4495,-0.4498,-0.4498,-0.4498,-0.4424,-0.4378,-0.4378,-0.4207,0.0,-0.3997,-0.4022,-0.3934,-0.3855,-0.4024,-0.4024,-0.3965,-0.4138,-0.4138,-0.4079,-0.4138,-0.4138,-0.4079,-0.4135,-0.4079,-0.4021,-0.3965,-0.4024,-0.4135,-0.4079,-0.419,-0.4301,-0.4249,-0.4193,-0.4193,-0.4024,-0.386,-0.3752,-0.3641,-0.3585,-0.3585,-0.3585,-0.3585,-0.3638,-0.3691,-0.3744,-0.3852,-0.3965,-0.3855,-0.3744,-0.391,-0.3633,-0.3413,-0.3527,-0.3246,-0.3023,-0.3023,-0.3193,-0.3307,-0.3249,0.0,-0.3372,0.0,0.0,-0.3079,0.0,-0.3169,-0.3154,0.0,0.0,0.0,0.0,0.0,-0.3299,-0.345,-0.3776,-0.398,-0.4141,-0.4389,-0.4519,-0.4519,-0.4519,-0.457,-0.4609,-0.4762,-0.4911,-0.506,-0.5209,-0.5239,-0.5223,-0.5223,-0.5223,-0.5223,-0.5223,-0.5292,-0.5428,-0.5428,-0.5428,-0.5428,-0.2901,-0.3472,-0.3906,0.0,-0.3722,0.0,-0.403,-0.3782,-0.3523,-0.3518,-0.3693,-0.3854,-0.3961,-0.4281,-0.4429,-0.4429,0.0,0.0,-0.4755,-0.4821,-0.4815,-0.4815,-0.4815,-0.4812,-0.48,-0.4559,-0.4424,-0.4406,-0.4149,-0.4024,-0.4024,-0.4138,-0.4193,-0.4193,-0.4193,-0.4193,-0.4193,-0.4249,-0.4249,-0.4193,-0.4079,-0.4021,-0.4021,-0.3907,-0.3965,-0.4079,-0.4193,-0.4356,-0.4463,-0.4301,-0.4249,-0.4193,-0.4076,-0.403,-0.3981,-0.3697,-0.3641,-0.3585,-0.3585,-0.3585,-0.3638,-0.3641,-0.3691,-0.3852,-0.3968,-0.3805,-0.3638,-0.3744,-0.3577,-0.3357,-0.3357,-0.3081,-0.286,-0.286,-0.286,-0.286,-0.286,-0.2968,-0.3042,0.0,0.0,0.0,-0.3004,-0.3023,-0.3077,0.0,0.0,0.0,0.0,0.0,-0.3241,-0.3223,-0.3589,-0.3875,-0.3993,-0.4341,-0.4519,-0.4519,-0.4519,-0.4519,-0.4522,-0.4633,-0.4782,-0.4928,-0.5081,-0.5226,-0.5428,-0.5428,-0.5428,-0.5428,-0.5428,-0.5428,-0.5428,-0.5428,-0.5428,-0.5428,0.0,0.0,-0.376,-0.3797,-0.3853,-0.3883,-0.3854,-0.3854,-0.3785,-0.3581,-0.3877,-0.4024,-0.3838,-0.4421,-0.4712,-0.4609,-0.4666,-0.4731,-0.4827,-0.4733,-0.4675,-0.4675,-0.4675,-0.4623,-0.4519,-0.4556,-0.4473,-0.4383,-0.4103,-0.4079,-0.4138,-0.4193,-0.4138,-0.4079,-0.4415,-0.4415,-0.4193,-0.447,-0.4522,-0.4408,-0.4408,-0.4408,-0.4408,-0.4463,-0.4522,-0.4577,-0.4684,-0.4684,-0.4632,-0.4581,-0.4522,-0.4408,-0.4236,-0.4239,-0.4301,-0.3863,-0.3755,-0.3752,-0.3641,-0.3691,-0.3747,-0.3752,-0.3802,-0.3796,-0.3691,-0.3638,-0.3583,-0.3524,-0.3299,-0.3132,-0.3026,-0.2802,-0.2577,-0.2577,-0.2691,-0.2691,-0.2635,-0.2691,-0.2794,0.0,-0.2676,-0.2683,-0.2883,-0.2956,-0.297,0.0,0.0,-0.3319,-0.3176,-0.3369,-0.3485,-0.3508,-0.3791,-0.4031,-0.4142,-0.4391,-0.4519,-0.4519,-0.4519,-0.4519,-0.4525,-0.4741,-0.4884,-0.4935,-0.5192,-0.5328,-0.5428,-0.5428,-0.5428,-0.5428,-0.5428,-0.5428,-0.5428,-0.5428,-0.5428,-0.5428,-0.3459,-0.3639,-0.3793,-0.3745,-0.3854,-0.3952,-0.3882,-0.3941,-0.3937,-0.3814,-0.4083,-0.4311,-0.4119,-0.4606,-0.4882,-0.4799,-0.4996,-0.5067,-0.4935,-0.4858,-0.4788,-0.4725,-0.4725,-0.4686,-0.461,-0.462,-0.4637,-0.4529,-0.4392,-0.4356,-0.4415,-0.4415,-0.4411,-0.4356,-0.4577,-0.4581,-0.447,-0.4684,-0.4684,-0.4519,-0.4519,-0.4463,-0.4356,-0.447,-0.447,-0.4525,-0.4739,-0.4743,-0.4691,-0.4691,-0.4632,-0.4574,-0.446,-0.4519,-0.4519,-0.4187,-0.4027,-0.3866,-0.3641,-0.3691,-0.3796,-0.3802,-0.3747,-0.3691,-0.3638,-0.3585,-0.3583,-0.3413,-0.3244,-0.3077,-0.2916,-0.2747,-0.2577,-0.2577,-0.2577,-0.2577,-0.2521,-0.2465,-0.2465,-0.2465,-0.2465,-0.2521,-0.2577,-0.2747,-0.2802,-0.2798,-0.3077,0.0,-0.3054,-0.3485,-0.3613,-0.3504,-0.3812,-0.4059,-0.4079,-0.4353,-0.4519,-0.4519,-0.4519,-0.4519,-0.4522,-0.4633,-0.4785,-0.4928,-0.5087,-0.5237,-0.5428,-0.5428,-0.5428,-0.5428,-0.5428,-0.5428,-0.5362,-0.5292,-0.5292,-0.5362,-0.3487,-0.3627,-0.3732,-0.3576,-0.379,-0.3961,-0.3961,-0.3984,-0.4024,-0.4024,-0.4292,-0.4535,-0.4535,-0.4789,-0.4944,-0.4944,-0.5198,-0.5305,-0.5108,-0.5077,-0.5009,-0.4891,-0.4884,-0.4874,-0.485,-0.4783,-0.4709,-0.4743,-0.4743,-0.4743,-0.4743,-0.4743,-0.4743,-0.4743,-0.4743,-0.4743,-0.4743,-0.4846,-0.4791,-0.457,-0.457,-0.4467,-0.4304,-0.4304,-0.4304,-0.4356,-0.4691,-0.4798,-0.4743,-0.4743,-0.4743,-0.4743,-0.4746,-0.4743,-0.4739,-0.456,-0.4349,-0.4089,-0.3749,-0.3744,-0.3796,-0.3796,-0.3691,-0.3585,-0.3585,-0.3585,-0.3527,-0.3413,-0.3244,-0.3077,-0.2916,-0.2747,-0.2691,-0.2691,-0.2521,-0.2465,-0.241,0.0,-0.2188,-0.2199,-0.2372,-0.2431,-0.2329,-0.256,-0.2673,-0.256,-0.2954,-0.3116,-0.2995,-0.3487,-0.368,-0.346,-0.3828,-0.3987,-0.4024,-0.4376,-0.4553,-0.4553,-0.4577,-0.4587,-0.4587,-0.4555,-0.4704,-0.4955,-0.4975,-0.5128,-0.5428,-0.5428,-0.5428,-0.5428,-0.5428,-0.5428,-0.5362,-0.5223,-0.5226,-0.5362,-0.353,-0.35,-0.3519,-0.3559,-0.3719,-0.3825,-0.3825,-0.4036,-0.4193,-0.4193,-0.4376,-0.4553,-0.4668,-0.498,-0.5133,-0.5075,-0.5246,-0.5283,-0.4952,-0.5065,-0.5042,-0.4907,-0.4907,-0.4843,-0.471,-0.4737,-0.4768,-0.4846,-0.4846,-0.4846,-0.4846,-0.4846,-0.4846,-0.4901,-0.4959,-0.4959,-0.4901,-0.5014,-0.4959,-0.4846,-0.4846,-0.4739,-0.4636,-0.4853,-0.4904,-0.4846,-0.5128,-0.5132,-0.5018,-0.5018,-0.4959,-0.4849,-0.4857,-0.4967,-0.5014,-0.4728,-0.4732,-0.4625,-0.4067,-0.3846,-0.3796,-0.3796,-0.3691,-0.3585,-0.3585,-0.3585,-0.3527,-0.3188,-0.313,-0.3021,-0.2802,-0.2635,-0.2521,-0.2521,-0.2352,-0.2184,-0.2071,0.0,-0.2093,-0.2329,-0.2395,-0.2538,-0.2845,-0.2913,-0.2974,-0.2913,-0.3218,-0.3301,-0.3215,-0.3664,-0.3844,-0.376,-0.3892,-0.408,-0.4193,-0.4478,-0.4657,-0.4657,-0.4785,-0.485,-0.4853,-0.4972,-0.5119,-0.5301,-0.5301,-0.5446,-0.555,-0.5425,-0.5428,-0.5428,-0.5428,-0.5428,-0.5428,-0.5362,-0.5362,-0.5428,-0.3583,-0.3635,-0.3635,-0.3583,-0.3802,-0.3965,-0.391,-0.4187,-0.4356,-0.4356,-0.4522,-0.4632,-0.4688,-0.4919,-0.5016,-0.5012,-0.5087,-0.5074,-0.4901,-0.4912,-0.4883,-0.4805,-0.4801,-0.4818,-0.4798,-0.4794,-0.4849,-0.5011,-0.5011,-0.5011,-0.5011,-0.5011,-0.5011,-0.5011,-0.5069,-0.5124,-0.5128,-0.5183,-0.5128,-0.5011,-0.5011,-0.4904,-0.4743,-0.4904,-0.4901,-0.4794,-0.5014,-0.5069,-0.5073,-0.4908,-0.4959,-0.4959,-0.4857,-0.4908,-0.5069,-0.4842,-0.4677,-0.4512,-0.4291,-0.4015,-0.3796,-0.391,-0.3747,-0.3585,-0.3585,-0.3585,-0.3527,-0.3188,-0.3074,-0.3021,-0.2747,-0.2635,-0.2635,-0.2635,-0.2352,-0.2183,-0.2127,-0.2104,-0.214,-0.2291,-0.245,-0.2592,-0.2583,-0.2745,-0.2816,-0.2769,-0.3112,-0.3364,-0.3495,-0.3843,-0.3977,-0.3854,-0.4091,-0.4299,-0.4416,-0.466,-0.4772,-0.4694,-0.4963,-0.5051,-0.4974,-0.5067,-0.5248,-0.5396,-0.5274,-0.5349,-0.5491,-0.5428,-0.5428,-0.5428,-0.5428,-0.5428,-0.5362,-0.5292,-0.5292,-0.5362,-0.3638,-0.3744,-0.3799,-0.3694,-0.3971,-0.4138,-0.4079,-0.4353,-0.4519,-0.4519,-0.4632,-0.4688,-0.4743,-0.4846,-0.4901,-0.5011,-0.4956,-0.4956,-0.4956,-0.4794,-0.4755,-0.4805,-0.4798,-0.4849,-0.4956,-0.4956,-0.5014,-0.5128,-0.5128,-0.5128,-0.5128,-0.5128,-0.5128,-0.5128,-0.5128,-0.5183,-0.5297,-0.5297,-0.5242,-0.5128,-0.5128,-0.5018,-0.4798,-0.4959,-0.4904,-0.4798,-0.4904,-0.5014,-0.5073,-0.4853,-0.4904,-0.5014,-0.4798,-0.4908,-0.5018,-0.4956,-0.4622,-0.4401,-0.446,-0.4187,-0.391,-0.3965,-0.3802,-0.3638,-0.3638,-0.3638,-0.3527,-0.3188,-0.3074,-0.3021,-0.2747,-0.2691,-0.2691,-0.2691,0.0,-0.2266,-0.2266,-0.2214,-0.2206,-0.2284,-0.2519,-0.2602,-0.2434,-0.2671,-0.2806,-0.2802,-0.3107,-0.3384,-0.3727,-0.3964,-0.4051,-0.3898,-0.4209,-0.4421,-0.4543,-0.4765,-0.485,-0.4796,-0.5125,-0.5258,-0.5142,-0.5269,-0.5457,-0.5574,-0.5378,-0.538,-0.5557,-0.5491,-0.5425,-0.5425,-0.5425,-0.5428,-0.5362,-0.5223,-0.5292,-0.5362,-0.3744,-0.3796,-0.3852,-0.3968,-0.4079,-0.4193,-0.4193,-0.4467,-0.4632,-0.4519,-0.4632,-0.4743,-0.4901,-0.4897,-0.5011,-0.5242,-0.5183,-0.5069,-0.5069,-0.4967,-0.4967,-0.5073,-0.5073,-0.5073,-0.5069,-0.5069,-0.5128,-0.5297,-0.5297,-0.5297,-0.5297,-0.5297,-0.5297,-0.5297,-0.5297,-0.5297,-0.5297,-0.5297,-0.5297,-0.5297,-0.5297,-0.5183,-0.5073,-0.5242,-0.5183,-0.5073,-0.5069,-0.5069,-0.5069,-0.4956,-0.4897,-0.4901,-0.4901,-0.4908,-0.4916,-0.4901,-0.4897,-0.4787,-0.457,-0.4356,-0.4138,-0.4024,-0.391,-0.3796,-0.3796,-0.3691,-0.3527,-0.3188,-0.3074,-0.3021,-0.2747,-0.2691,-0.2691,-0.2691,0.0,0.0,-0.2521,-0.2228,-0.2172,-0.2555,-0.257,-0.2725,-0.2922,-0.307,-0.3205,-0.3398,-0.3471,-0.3565,-0.3786,-0.3954,-0.401,-0.4002,-0.4119,-0.4302,-0.4418,-0.4737,-0.4925,-0.5101,-0.5441,-0.5574,-0.5563,-0.5782,-0.5924,-0.6129,-0.5935,-0.5943,-0.6083,-0.5749,-0.5617,-0.555,-0.5425,-0.5428,-0.5428,-0.5362,-0.5362,-0.5428,-0.391,-0.3965,-0.4024,-0.4024,-0.419,-0.4411,-0.4411,-0.4577,-0.4688,-0.4736,-0.4849,-0.4963,-0.5014,-0.5069,-0.5183,-0.5297,-0.5183,-0.5128,-0.5242,-0.5183,-0.5128,-0.5124,-0.5183,-0.5242,-0.5242,-0.5242,-0.5242,-0.5297,-0.5297,-0.5297,-0.5297,-0.5297,-0.5297,-0.5297,-0.5297,-0.5297,-0.5297,-0.5297,-0.5297,-0.5297,-0.5297,-0.5242,-0.5128,-0.5242,-0.5242,-0.5069,-0.5011,-0.5069,-0.5187,-0.4794,-0.4791,-0.4959,-0.4736,-0.4743,-0.4916,-0.4912,-0.4846,-0.4732,-0.4677,-0.4515,-0.4356,-0.419,-0.3965,-0.3796,-0.3796,-0.3691,-0.3527,-0.3188,-0.3074,-0.3021,-0.2747,-0.2691,-0.2691,-0.2691,0.0,-0.253,-0.2591,-0.2581,-0.2607,-0.2766,-0.2881,-0.2969,-0.2946,-0.3127,-0.3272,-0.3409,-0.3462,-0.368,-0.4101,-0.414,-0.4097,-0.4028,-0.4077,-0.4159,-0.4352,-0.4662,-0.4906,-0.5011,-0.5549,-0.5767,-0.5671,-0.584,-0.602,-0.621,-0.5885,-0.5818,-0.6017,-0.5818,-0.5686,-0.5617,-0.5554,-0.5488,-0.5428,-0.5428,-0.5428,-0.5428,-0.4079,-0.419,-0.4301,-0.4245,-0.4463,-0.4625,-0.4625,-0.4798,-0.4908,-0.4901,-0.5069,-0.5128,-0.5124,-0.5183,-0.5242,-0.5297,-0.5242,-0.5238,-0.5407,-0.5407,-0.5407,-0.5348,-0.5407,-0.5466,-0.5466,-0.5407,-0.5407,-0.5407,-0.5352,-0.5297,-0.5297,-0.5297,-0.5297,-0.5297,-0.5297,-0.5297,-0.5297,-0.5297,-0.5297,-0.5242,-0.5242,-0.5183,-0.5124,-0.5183,-0.5183,-0.5128,-0.5014,-0.5069,-0.5128,-0.4736,-0.4739,-0.4849,-0.4629,-0.4632,-0.4802,-0.4805,-0.4798,-0.4677,-0.4677,-0.4625,-0.4519,-0.4356,-0.4132,-0.391,-0.391,-0.3802,-0.3635,-0.3302,-0.3244,-0.3132,-0.2802,-0.2747,-0.2701,-0.2728,-0.2693,-0.2638,-0.2724,-0.2784,-0.2805,-0.2805,-0.2988,-0.3068,-0.2875,-0.3123,-0.3334,-0.3528,-0.359,-0.3763,-0.4164,-0.4231,-0.4097,-0.3961,-0.3961,-0.4028,-0.4231,-0.4561,-0.4826,-0.5014,-0.5618,-0.5894,-0.5849,-0.5967,-0.6152,-0.6214,-0.5951,-0.5951,-0.6024,-0.602,-0.5885,-0.5683,-0.5617,-0.5488,-0.5428,-0.5428,-0.5428,-0.5428,-0.4193,-0.4356,-0.4519,-0.4688,-0.4794,-0.4897,-0.4897,-0.5128,-0.5183,-0.4956,-0.5128,-0.5242,-0.5128,-0.5124,-0.5128,-0.5297,-0.5297,-0.5407,-0.5567,-0.5736,-0.5795,-0.5795,-0.5795,-0.5795,-0.5795,-0.5677,-0.5622,-0.5622,-0.5407,-0.5297,-0.5297,-0.5297,-0.5297,-0.5297,-0.5297,-0.5297,-0.5297,-0.5297,-0.5242,-0.5124,-0.5124,-0.5124,-0.5124,-0.5124,-0.5183,-0.5297,-0.5128,-0.5014,-0.4897,-0.4897,-0.4736,-0.4519,-0.4632,-0.4632,-0.4519,-0.4632,-0.4691,-0.4691,-0.4691,-0.4691,-0.4688,-0.4519,-0.4356,-0.4193,-0.4193,-0.4079,-0.3913,-0.3638,-0.3471,-0.3304,-0.2972,-0.2805,-0.2719,-0.2813,-0.2722,-0.2805,-0.3079,-0.2903,-0.2686,-0.2686,-0.2889,-0.2956,-0.2753,-0.3159,-0.3563,-0.3758,-0.3825,-0.3892,-0.3961,-0.4028,-0.3961,-0.3825,-0.3825,-0.3892,-0.4028,-0.4425,-0.4823,-0.5202,-0.5679,-0.602,-0.6214,-0.635,-0.642,-0.642,-0.642,-0.642,-0.6416,-0.628,-0.6083,-0.5888,-0.5683,-0.5488,-0.5428,-0.5428,-0.5428,-0.5428,-0.4408,-0.4522,-0.4632,-0.4688,-0.4794,-0.4956,-0.5128,-0.5242,-0.5297,-0.5399,-0.5458,-0.5458,-0.5242,-0.5242,-0.5242,-0.5297,-0.5297,-0.5407,-0.5736,-0.5795,-0.5905,-0.6069,-0.5905,-0.5795,-0.5795,-0.5677,-0.5622,-0.5622,-0.5407,-0.5297,-0.5297,-0.5297,-0.5297,-0.5297,-0.5297,-0.5297,-0.5297,-0.5297,-0.5297,-0.5242,-0.5128,-0.5124,-0.5124,-0.5124,-0.5128,-0.5128,-0.5011,-0.5011,-0.5014,-0.4736,-0.4629,-0.4632,-0.4574,-0.4519,-0.4519,-0.4574,-0.4574,-0.4574,-0.4574,-0.4632,-0.4632,-0.4356,-0.4249,-0.4193,-0.4079,-0.4024,-0.3968,-0.3799,-0.3688,-0.3577,-0.3304,-0.3304,-0.3227,-0.2982,-0.3079,-0.3177,-0.3079,-0.3103,-0.3025,-0.3025,-0.3092,-0.3092,-0.3025,-0.3226,-0.3362,-0.3563,-0.3828,-0.3894,-0.3892,-0.3961,-0.3961,-0.3825,-0.3825,-0.3857,-0.404,-0.4518,-0.4942,-0.536,-0.5862,-0.6214,-0.635,-0.628,-0.6412,-0.6609,-0.6346,-0.6284,-0.6416,-0.628,-0.6083,-0.5888,-0.5683,-0.5488,-0.5428,-0.5428,-0.5428,-0.5428,-0.4739,-0.4853,-0.4912,-0.4912,-0.5128,-0.5289,-0.5407,-0.5517,-0.5626,-0.5681,-0.5732,-0.5677,-0.5517,-0.5521,-0.5521,-0.5521,-0.5572,-0.5677,-0.5845,-0.59,-0.6014,-0.6178,-0.6069,-0.5959,-0.59,-0.5736,-0.5677,-0.5622,-0.5407,-0.5297,-0.5297,-0.5297,-0.5297,-0.5297,-0.5297,-0.5297,-0.5297,-0.5297,-0.5242,-0.5128,-0.5069,-0.5014,-0.4963,-0.5014,-0.5014,-0.5014,-0.5011,-0.4959,-0.4908,-0.4739,-0.4684,-0.4688,-0.4519,-0.4519,-0.4519,-0.4519,-0.4519,-0.4519,-0.4519,-0.4577,-0.4632,-0.4356,-0.4356,-0.4359,-0.4242,-0.4187,-0.4132,-0.3965,-0.391,-0.3799,-0.3577,-0.358,-0.3508,-0.3326,-0.3318,-0.3361,-0.327,-0.3234,-0.3159,-0.3159,-0.3228,-0.3295,-0.3159,-0.336,-0.3629,-0.3832,-0.403,-0.4097,-0.4028,-0.4028,-0.3961,-0.3892,-0.3892,-0.3992,-0.4319,-0.4788,-0.5134,-0.5404,-0.5986,-0.635,-0.6544,-0.6343,-0.6371,-0.6565,-0.6233,-0.6181,-0.631,-0.6177,-0.6025,-0.5888,-0.5683,-0.5488,-0.5428,-0.5428,-0.5425,-0.5491,-0.4973,-0.5136,-0.5257,-0.5273,-0.555,-0.5719,-0.5673,-0.5837,-0.595,-0.5795,-0.59,-0.595,-0.5795,-0.574,-0.574,-0.574,-0.5896,-0.595,-0.6,-0.6119,-0.6178,-0.6178,-0.6178,-0.6119,-0.6005,-0.5845,-0.5736,-0.5622,-0.5407,-0.5297,-0.5297,-0.5297,-0.5352,-0.5352,-0.5352,-0.5352,-0.5352,-0.5301,-0.5183,-0.4956,-0.4901,-0.4849,-0.4743,-0.4846,-0.4901,-0.4901,-0.5014,-0.4908,-0.4743,-0.4846,-0.4794,-0.4688,-0.4519,-0.4519,-0.4519,-0.4519,-0.4519,-0.4519,-0.4519,-0.4577,-0.4688,-0.4519,-0.4577,-0.4688,-0.4519,-0.4519,-0.4463,-0.4249,-0.4135,-0.4021,-0.3852,-0.3747,-0.3677,-0.3735,-0.355,-0.3475,-0.3528,-0.3361,-0.3218,-0.309,-0.3295,-0.3362,-0.309,-0.3627,-0.4028,-0.4233,-0.4233,-0.4233,-0.43,-0.4097,-0.3961,-0.3961,-0.3961,-0.4156,-0.461,-0.514,-0.5411,-0.5477,-0.6063,-0.6523,-0.6645,-0.6464,-0.6379,-0.6375,-0.6035,-0.6002,-0.6148,-0.5978,-0.5883,-0.5888,-0.5686,-0.5488,-0.5428,-0.5428,-0.5488,-0.5617,-0.4575,-0.4774,-0.497,-0.5278,-0.5461,-0.5664,-0.5869,-0.5946,-0.595,-0.5795,-0.585,-0.5736,-0.5462,-0.5411,-0.5411,-0.5411,-0.5567,-0.5786,-0.6,-0.6005,-0.6114,-0.6178,-0.6119,-0.6005,-0.585,-0.5795,-0.5736,-0.5622,-0.5407,-0.5297,-0.5297,-0.5462,-0.5513,-0.5513,-0.5513,-0.5513,-0.5513,-0.5352,-0.5242,-0.5183,-0.5011,-0.4901,-0.4846,-0.4794,-0.4743,-0.4743,-0.4798,-0.4743,-0.4688,-0.4629,-0.4574,-0.4519,-0.4519,-0.4519,-0.4519,-0.4519,-0.4519,-0.4519,-0.4519,-0.4577,-0.4688,-0.4519,-0.4577,-0.4688,-0.4519,-0.4519,-0.4463,-0.4463,-0.4408,-0.4353,-0.4135,-0.4245,-0.4231,-0.3909,-0.3957,-0.3934,-0.3766,-0.3561,-0.3475,-0.3616,-0.3563,-0.3563,-0.3625,-0.3758,-0.3892,-0.3892,-0.3892,-0.3961,-0.4028,-0.3763,-0.3696,-0.3825,-0.3825,-0.4114,-0.4604,-0.499,-0.5352,-0.5771,-0.6193,-0.64,-0.6459,-0.6265,-0.618,-0.6185,-0.6171,-0.6049,-0.597,-0.5914,-0.5924,-0.5892,-0.5557,-0.5491,-0.555,-0.555,-0.555,-0.5617,-0.4767,-0.5009,-0.5268,-0.5517,-0.5756,-0.593,-0.6086,-0.6138,-0.6072,-0.5863,-0.5834,-0.5722,-0.5462,-0.554,-0.5636,-0.5732,-0.5845,-0.5955,-0.6059,-0.6114,-0.6119,-0.6178,-0.5972,-0.581,-0.565,-0.551,-0.5443,-0.5462,-0.5462,-0.5407,-0.5301,-0.5572,-0.5626,-0.5462,-0.5567,-0.5567,-0.5462,-0.5352,-0.5242,-0.5069,-0.4956,-0.4846,-0.4736,-0.4688,-0.4632,-0.4632,-0.4688,-0.4632,-0.4577,-0.4519,-0.4519,-0.4519,-0.4519,-0.4519,-0.4519,-0.4519,-0.4519,-0.4519,-0.4519,-0.4577,-0.4688,-0.4632,-0.4632,-0.4688,-0.4519,-0.4519,-0.4519,-0.4519,-0.4519,-0.4463,-0.4356,-0.4408,-0.4432,-0.4226,-0.4183,-0.416,-0.3989,-0.381,-0.3675,-0.3793,-0.3739,-0.3761,-0.3941,-0.3929,-0.3961,-0.4028,-0.3977,-0.3946,-0.4014,-0.3771,-0.368,-0.3865,-0.3865,-0.4091,-0.459,-0.4961,-0.5314,-0.578,-0.6219,-0.6451,-0.6527,-0.6309,-0.6233,-0.6252,-0.605,-0.6051,-0.603,-0.5864,-0.5817,-0.5892,-0.5561,-0.5425,-0.5488,-0.555,-0.5749,-0.587,-0.507,-0.536,-0.5566,-0.582,-0.6056,-0.6181,-0.6144,-0.6181,-0.611,-0.5859,-0.5808,-0.5702,-0.5609,-0.5709,-0.593,-0.6109,-0.6124,-0.6124,-0.6124,-0.6211,-0.623,-0.618,-0.5942,-0.5693,-0.5548,-0.5237,-0.5144,-0.5209,-0.5362,-0.5362,-0.5263,-0.5567,-0.5579,-0.5362,-0.5555,-0.5513,-0.5352,-0.5297,-0.5128,-0.4956,-0.4901,-0.4791,-0.457,-0.4688,-0.4632,-0.4519,-0.4632,-0.4577,-0.4519,-0.4519,-0.4463,-0.4463,-0.4463,-0.4463,-0.446,-0.446,-0.446,-0.4519,-0.4519,-0.4574,-0.4688,-0.4688,-0.4688,-0.4632,-0.4574,-0.4519,-0.4519,-0.4463,-0.4463,-0.4463,-0.4463,-0.4463,-0.4519,-0.4519,-0.4342,-0.4259,-0.4222,-0.402,-0.3912,-0.3931,-0.4014,-0.4069,-0.4105,-0.414,-0.414,-0.4364,-0.4186,-0.4115,-0.4118,-0.3838,-0.3776,-0.3875,-0.3936,-0.4169,-0.4632,-0.4931,-0.5292,-0.5592,-0.608,-0.6438,-0.6569,-0.6454,-0.638,-0.6299,-0.5994,-0.598,-0.6103,-0.578,-0.5762,-0.5892,-0.5557,-0.5425,-0.5491,-0.5686,-0.5928,-0.6213,-0.4937,-0.507,-0.5176,-0.5563,-0.5691,-0.5724,-0.5849,-0.5854,-0.579,-0.5646,-0.5628,-0.5609,-0.5506,-0.5529,-0.5656,-0.5937,-0.5833,-0.5828,-0.5937,-0.6161,-0.6219,-0.6119,-0.6109,-0.5998,-0.5666,-0.5522,-0.5242,-0.4877,-0.4877,-0.4931,-0.504,-0.5405,-0.5536,-0.5488,-0.5662,-0.5681,-0.5513,-0.5238,-0.5183,-0.5242,-0.5011,-0.4901,-0.4846,-0.4743,-0.4632,-0.4519,-0.4519,-0.4519,-0.4519,-0.4519,-0.4411,-0.4249,-0.4249,-0.4242,-0.4233,-0.4233,-0.4346,-0.4519,-0.4519,-0.4519,-0.4574,-0.4688,-0.4632,-0.4574,-0.4632,-0.4574,-0.4463,-0.4301,-0.4356,-0.4463,-0.4249,-0.4411,-0.4519,-0.4519,-0.448,-0.4426,-0.4378,-0.4238,-0.4237,-0.447,-0.459,-0.4541,-0.4298,-0.4446,-0.4505,-0.4553,-0.4375,-0.424,-0.4118,-0.3908,-0.3791,-0.3875,-0.3997,-0.4312,-0.4841,-0.5009,-0.5238,-0.5591,-0.5835,-0.6055,-0.6193,-0.6332,-0.6236,-0.6002,-0.6214,-0.608,-0.5693,-0.5989,-0.6063,-0.5888,-0.5686,-0.5686,-0.5892,-0.6152,-0.6319,-0.6375,-0.5067,-0.5241,-0.5492,-0.5713,-0.5795,-0.5867,-0.6003,-0.598,-0.585,-0.5719,-0.5656,-0.5621,-0.5525,-0.5541,-0.5663,-0.5888,-0.5893,-0.5936,-0.5985,-0.6131,-0.6187,-0.6087,-0.5917,-0.5715,-0.5576,-0.5469,-0.5218,-0.4785,-0.5048,-0.5153,-0.5157,-0.549,-0.5585,-0.5384,-0.5529,-0.5466,-0.5255,-0.5043,-0.494,-0.5004,-0.4941,-0.487,-0.4824,-0.4812,-0.4739,-0.4577,-0.4519,-0.4519,-0.4519,-0.4519,-0.4356,-0.4193,-0.4193,-0.419,-0.4187,-0.4181,-0.4346,-0.4519,-0.4519,-0.4519,-0.4519,-0.4688,-0.4632,-0.4632,-0.4794,-0.4791,-0.468,-0.4522,-0.4522,-0.4632,-0.4574,-0.4629,-0.4629,-0.4736,-0.4574,-0.4539,-0.4661,-0.4565,-0.4475,-0.4538,-0.4618,-0.4581,-0.4394,-0.4656,-0.4744,-0.4535,-0.4415,-0.4291,-0.3978,-0.3849,-0.3789,-0.3851,-0.414,-0.4458,-0.4798,-0.5016,-0.5293,-0.5578,-0.5864,-0.6055,-0.615,-0.6401,-0.6476,-0.6378,-0.6438,-0.635,-0.6065,-0.6025,-0.5885,-0.5679,-0.5455,-0.5488,-0.5815,-0.6137,-0.6407,-0.6604]},{"header":{"parameterUnit":"m.s-1","parameterCategory":1,"la1":30.6,"la2":28.766,"lo1":-90.7593,"lo2":-88.6598,"dy":0.0162,"dx":0.0183,"nx":116,"ny":114,"refTime":"2023-03-08T18:00:00:Z","depth":0,"parameterNumber":3,"parameterNumberName":"V-component_of_WINDS"},"data":[0.0,0.0,0.0,0.0,0.0,0.0,0.0,0.0,0.0,0.0,0.0,0.0,0.0,0.0,0.0,0.0,0.0,0.0,0.0,0.0,0.0,0.0,0.0,0.0,0.0,0.0,0.0,0.0,0.0,0.0,0.0,0.0,0.0,0.0,0.0,0.0,0.0,0.0,0.0,0.0,0.0,0.0,0.0,0.0,0.0,0.0,0.0,0.0,0.0,0.0,0.0,0.0,0.0,0.0,0.0,0.0,0.0,0.0,0.0,0.0,0.0,0.0,0.0,0.0,0.0,0.0,0.0,0.0,0.0,0.0,0.0,0.0,0.0,0.0,0.0,0.0,0.0,0.0,0.0,0.0,0.0,0.0,0.0,0.0,0.0,0.0,0.0,0.0,0.0,0.0,0.0,0.0,0.0,0.0,0.0,0.0,0.0,0.0,0.0,0.0,0.0,0.0,0.0,0.0,0.0,0.0,0.0,0.0,0.0,0.0,0.0,0.0,0.0,0.0,0.0,0.0,0.0,0.0,0.0,0.0,0.0,0.0,0.0,0.0,0.0,0.0,0.0,0.0,0.0,0.0,0.0,0.0,0.0,0.0,0.0,0.0,0.0,0.0,0.0,0.0,0.0,0.0,0.0,0.0,0.0,0.0,0.0,0.0,0.0,0.0,0.0,0.0,0.0,0.0,0.0,0.0,0.0,0.0,0.0,0.0,0.0,0.0,0.0,0.0,0.0,0.0,0.0,0.0,0.0,0.0,0.0,0.0,0.0,0.0,0.0,0.0,0.0,0.0,0.0,0.0,0.0,0.0,0.0,0.0,0.0,0.0,0.0,0.0,0.0,0.0,0.0,0.0,0.0,0.0,0.0,0.0,0.0,0.0,0.0,0.0,0.0,0.0,0.0,0.0,0.0,0.0,0.0,0.0,0.0,0.0,0.0,0.0,0.0,0.0,0.0,0.0,0.0,0.0,0.0,0.0,0.0,0.0,0.0,0.0,0.0,0.0,0.0,0.0,0.0,0.0,0.0,0.0,0.0,0.0,0.0,0.0,0.0,0.0,0.0,0.0,0.0,0.0,0.0,0.0,0.0,0.0,0.0,0.0,0.0,0.0,0.0,0.0,0.0,0.0,0.0,0.0,0.0,0.0,0.0,0.0,0.0,0.0,0.0,0.0,0.0,0.0,0.0,0.0,0.0,0.0,0.0,0.0,0.0,0.0,0.0,0.0,0.0,0.0,0.0,0.0,0.0,0.0,0.0,0.0,0.0,0.0,0.0,0.0,0.0,0.0,0.0,0.0,0.0,0.0,0.0,0.0,0.0,0.0,0.0,0.0,0.0,0.0,0.0,0.0,0.0,0.0,0.0,0.0,0.0,0.0,0.0,0.0,0.0,0.0,0.0,0.0,0.0,0.0,0.0,0.0,0.0,0.0,0.0,0.0,0.0,0.0,0.0,0.0,0.0,0.0,0.0,0.0,0.0,0.0,0.0,0.0,0.0,0.0,0.0,0.0,0.0,0.0,0.0,0.0,0.0,0.0,0.0,0.0,0.0,0.0,0.0,0.0,0.0,0.0,0.0,0.0,0.0,0.0,0.0,0.0,0.0,0.0,0.0,0.0,0.0,0.0,0.0,0.0,0.0,0.0,0.0,0.0,0.0,0.0,0.0,0.0,0.0,0.0,0.0,0.0,0.0,0.0,0.0,0.0,0.0,0.0,0.0,0.0,0.0,0.0,0.0,0.0,0.0,0.0,0.0,0.0,0.0,0.0,0.0,0.0,0.0,0.0,0.0,0.0,0.0,0.0,0.0,0.0,0.0,0.0,0.0,0.0,0.0,0.0,0.0,0.0,0.0,0.0,0.0,0.0,0.0,0.0,0.0,0.0,0.0,0.0,0.0,0.0,0.0,0.0,0.0,0.0,0.0,0.0,0.0,0.0,0.0,0.0,0.0,0.0,0.0,0.0,0.0,0.0,0.0,0.0,0.0,0.0,0.0,0.0,0.0,0.0,0.0,0.0,0.0,0.0,0.0,0.0,0.0,0.0,0.0,0.0,0.0,0.0,0.0,0.0,0.0,0.0,0.0,0.0,0.0,0.0,0.0,0.0,0.0,0.0,0.0,0.0,0.0,0.0,0.0,0.0,0.0,0.0,0.0,0.0,0.0,0.0,0.0,0.0,0.0,0.0,0.0,0.0,0.0,0.0,0.0,0.0,0.0,0.0,0.0,0.0,0.0,0.0,0.0,0.0,0.0,0.0,0.0,0.0,0.0,0.0,0.0,0.0,0.0,0.0,0.0,0.0,0.0,0.0,0.0,0.0,0.0,0.0,0.0,0.0,0.0,0.0,0.0,0.0,0.0,0.0,0.0,0.0,0.0,0.0,0.0,0.0,0.0,0.0,0.0,0.0,0.0,0.0,0.0,0.0,0.0,0.0,0.0,0.0,0.0,0.0,0.0,0.0,0.0,0.0,0.0,0.0,0.0,0.0,0.0,0.0,0.0,0.0,0.0,0.0,0.0,0.0,0.0,0.0,0.0,0.0,0.0,0.0,0.0,0.0,0.0,0.0,0.0,0.0,0.0,0.0,0.0,0.0,0.0,0.0,0.0,0.0,0.0,0.0,0.0,0.0,0.0,0.0,0.0,0.0,0.0,0.0,0.0,0.0,0.0,0.0,0.0,0.0,0.0,0.0,0.0,0.0,0.0,0.0,0.0,0.0,0.0,0.0,0.0,0.0,0.0,0.0,0.0,0.0,0.0,0.0,0.0,0.0,0.0,0.0,0.0,0.0,0.0,0.0,0.0,0.0,0.0,0.0,0.0,0.0,0.0,0.0,0.0,0.0,0.0,0.0,0.0,0.0,0.0,0.0,0.0,0.0,0.0,0.0,0.0,0.0,0.0,0.0,0.0,0.0,0.0,0.0,0.0,0.0,0.0,0.0,0.0,0.0,0.0,0.0,0.0,0.0,0.0,0.0,0.0,0.0,0.0,0.0,0.0,0.0,0.0,0.0,0.0,0.0,0.0,0.0,0.0,0.0,0.0,0.0,0.0,0.0,0.0,0.0,0.0,0.0,0.0,0.0,0.0,0.0,0.0,0.0,0.0,0.0,0.0,0.0,0.0,0.0,0.0,0.0,0.0,0.0,0.0,0.0,0.0,0.0,0.0,0.0,0.0,0.0,0.0,0.0,0.0,0.0,0.0,0.0,0.0,0.0,0.0,0.0,0.0,0.0,0.0,0.0,0.0,0.0,0.0,0.0,0.0,0.0,0.0,0.0,0.0,0.0,0.0,0.0,0.0,0.0,0.0,0.0,0.0,0.0,0.0,0.0,0.0,0.0,0.0,0.0,0.0,0.0,0.0,0.0,0.0,0.0,0.0,0.0,0.0,0.0,0.0,0.0,0.0,0.0,0.0,0.0,0.0,0.0,0.0,0.0,0.0,0.0,0.0,0.0,0.0,0.0,0.0,0.0,0.0,0.0,0.0,0.0,0.0,0.0,0.0,0.0,0.0,0.0,0.0,0.0,0.0,0.0,0.0,0.0,0.0,0.0,0.0,0.0,0.0,0.0,0.0,0.0,0.0,0.0,0.0,0.0,0.0,0.0,0.0,0.0,0.0,0.0,0.0,0.0,0.0,0.0,0.0,0.0,0.0,0.0,0.0,0.0,0.0,0.0,0.0,0.0,0.0,0.0,0.0,0.0,0.0,0.0,0.0,0.0,0.0,0.0,0.0,0.0,0.0,0.0,0.0,0.0,0.0,0.0,0.0,0.0,0.0,0.0,0.0,0.0,0.0,0.0,0.0,0.0,0.0,0.0,0.0,0.0,0.0,0.0,0.0,0.0,0.0,0.0,0.0,0.0,0.0,0.0,0.0,0.0,0.0,0.0,0.0,0.0,0.0,0.0,0.0,0.0,0.0,0.0,0.0,0.0,0.0,0.0,0.0,0.0,0.0,0.0,0.0,0.0,0.0,0.0,0.0,0.0,0.0,0.0,0.0,0.0,0.0,0.0,0.0,0.0,0.0,0.0,0.0,0.0,0.0,0.0,0.0,0.0,0.0,0.0,0.0,0.0,0.0,0.0,0.0,0.0,0.0,0.0,0.0,0.0,0.0,0.0,0.0,0.0,0.0,0.0,0.0,0.0,0.0,0.0,0.0,0.0,0.0,0.0,0.0,0.0,0.0,0.0,0.0,0.0,0.0,0.0,0.0,0.0,0.0,0.0,0.0,0.0,0.0,0.0,0.0,0.0,0.0,0.0,0.0,0.0,0.0,0.0,0.0,0.0,0.0,0.0,0.0,0.0,0.0,0.0,0.0,0.0,0.0,0.0,0.0,0.0,0.0,0.0,0.0,0.0,0.0,0.0,0.0,0.0,0.0,0.0,0.0,0.0,0.0,0.0,0.0,0.0,0.0,0.0,0.0,0.0,0.0,0.0,0.0,0.0,0.0,0.0,0.0,0.0,0.0,0.0,0.0,0.0,0.0,0.0,0.0,0.0,0.0,0.0,0.0,0.0,0.0,0.0,0.0,0.0,0.0,0.0,0.0,0.0,0.0,0.0,0.0,0.0,0.0,0.0,0.0,0.0,0.0,0.0,0.0,0.0,0.0,0.0,0.0,0.0,0.0,0.0,0.0,0.0,0.0,0.0,0.0,0.0,0.0,0.0,0.0,0.0,0.0,0.0,0.0,0.0,0.0,0.0,0.0,0.0,0.0,0.0,0.0,0.0,0.0,0.0,0.0,0.0,0.0,0.0,0.0,0.0,0.0,0.0,0.0,0.0,0.0,0.0,0.0,0.0,0.0,0.0,0.0,0.0,0.0,0.0,0.0,0.0,0.0,0.0,0.0,0.0,0.0,0.0,0.0,0.0,0.0,0.0,0.0,0.0,0.0,0.0,0.0,0.0,0.0,0.0,0.0,0.0,0.0,0.0,0.0,0.0,0.0,0.0,0.0,0.0,0.0,0.0,0.0,0.0,0.0,0.0,0.0,0.0,0.0,0.0,0.0,0.0,0.0,0.0,0.0,0.0,0.0,0.0,0.0,0.0,0.0,0.0,0.0,0.0,0.0,0.0,0.0,0.0,0.0,0.0,0.0,0.0,0.0,0.0,0.0,0.0,0.0,0.0,0.0,0.0,0.0,0.0,0.0,0.0,0.0,0.0,0.0,0.0,0.0,0.0,0.0,0.0,0.0,0.0,0.0,0.0,0.0,0.0,0.0,0.0,0.0,0.0,0.0,0.0,0.0,0.0,0.0,0.0,0.0,0.0,0.0,0.0,0.0,0.0,0.0,0.0,0.0,0.0,0.0,0.0,0.0,0.0,0.0,0.0,0.0,0.0,0.0,0.0,0.0,0.0,0.0,0.0,0.0,0.0,0.0,0.0,0.0,0.0,0.0,0.0,0.0,0.0,0.0,0.0,0.0,0.0,0.0,0.0,0.0,0.0,0.0,0.0,0.0,0.0,0.0,0.0,0.0,0.0,0.0,0.0,0.0,0.0,0.0,0.0,0.0,0.0,0.0,0.0,0.0,0.0,0.0,0.0,0.0,0.0,0.0,0.0,0.0,0.0,0.0,0.0,0.0,0.0,0.0,0.0,0.0,0.0,0.0,0.0,0.0,0.0,0.0,0.0,0.0,0.0,0.0,0.0,0.0,0.0,0.0,0.0,0.0,0.0,0.0,0.0,0.0,0.0,0.0,0.0,0.0,0.0,0.0,0.0,0.0,0.0,0.0,0.0,0.0,0.0,0.0,0.0,0.0,0.0,0.0,0.0,0.0,0.0,0.0,0.0,0.0,0.0,0.0,0.0,0.0,0.0,0.0,0.0,0.0,0.0,0.0,0.0,0.0,0.0,0.0,0.0,0.0,0.0,0.0,0.0,0.0,0.0,0.0,0.0,0.0,0.0,0.0,0.0,0.0,0.0,0.0,0.0,0.0,0.0,0.0,0.0,0.0,0.0,0.0,0.0,0.0,0.0,0.0,0.0,0.0,0.0,0.0,0.0,0.0,0.0,0.0,0.0,0.0,0.0,0.0,0.0,0.0,0.0,0.0,0.0,0.0,0.0,0.0,0.0,0.0,0.0,0.0,0.0,0.0,0.0,0.0,0.0,0.0,0.0,-2.3791,0.0,0.0,0.0,0.0,0.0,0.0,0.0,0.0,0.0,0.0,0.0,0.0,0.0,0.0,0.0,0.0,0.0,0.0,0.0,0.0,0.0,0.0,0.0,0.0,0.0,0.0,0.0,0.0,0.0,0.0,0.0,0.0,0.0,0.0,0.0,0.0,0.0,0.0,0.0,0.0,0.0,0.0,0.0,0.0,0.0,0.0,0.0,0.0,0.0,0.0,0.0,0.0,0.0,0.0,0.0,0.0,0.0,0.0,0.0,0.0,0.0,0.0,0.0,0.0,0.0,0.0,0.0,0.0,0.0,0.0,0.0,0.0,0.0,0.0,0.0,0.0,0.0,0.0,0.0,0.0,0.0,0.0,0.0,0.0,0.0,0.0,0.0,0.0,0.0,0.0,0.0,0.0,0.0,0.0,0.0,0.0,0.0,0.0,0.0,0.0,0.0,0.0,0.0,0.0,0.0,0.0,0.0,0.0,0.0,0.0,0.0,0.0,0.0,0.0,0.0,0.0,-2.5428,0.0,0.0,0.0,0.0,0.0,0.0,0.0,0.0,0.0,0.0,0.0,0.0,0.0,0.0,0.0,0.0,0.0,0.0,0.0,0.0,0.0,0.0,0.0,0.0,0.0,0.0,0.0,0.0,0.0,0.0,0.0,0.0,0.0,0.0,0.0,0.0,0.0,0.0,0.0,0.0,0.0,0.0,0.0,0.0,0.0,0.0,0.0,0.0,0.0,0.0,0.0,0.0,0.0,0.0,0.0,0.0,0.0,0.0,0.0,0.0,0.0,0.0,0.0,0.0,0.0,0.0,0.0,0.0,0.0,0.0,0.0,0.0,0.0,0.0,0.0,0.0,0.0,0.0,0.0,0.0,0.0,0.0,0.0,0.0,0.0,0.0,0.0,0.0,0.0,0.0,0.0,0.0,0.0,0.0,0.0,0.0,0.0,0.0,0.0,0.0,0.0,0.0,0.0,0.0,0.0,0.0,0.0,0.0,-2.8575,-2.8719,-2.887,-2.9024,-2.9006,-2.8838,-2.8948,-2.8621,-2.797,-2.7299,0.0,0.0,0.0,0.0,0.0,0.0,0.0,0.0,0.0,0.0,0.0,0.0,0.0,0.0,0.0,0.0,0.0,0.0,0.0,0.0,0.0,0.0,0.0,0.0,0.0,0.0,0.0,0.0,0.0,0.0,0.0,0.0,0.0,0.0,0.0,0.0,0.0,0.0,-2.6755,-2.7576,-2.7962,-2.7891,-2.6383,0.0,0.0,0.0,0.0,0.0,0.0,0.0,0.0,0.0,0.0,0.0,0.0,0.0,0.0,0.0,0.0,0.0,0.0,0.0,0.0,0.0,0.0,0.0,0.0,0.0,0.0,0.0,0.0,0.0,0.0,0.0,0.0,0.0,0.0,0.0,0.0,0.0,0.0,0.0,0.0,0.0,0.0,0.0,-2.4107,-2.4213,0.0,0.0,0.0,0.0,0.0,0.0,0.0,0.0,0.0,0.0,0.0,0.0,0.0,-2.8108,-2.8037,-2.817,-2.8595,-2.9338,-3.0102,-3.0813,-3.1518,-3.2285,-3.2175,-3.1445,-3.2194,0.0,-2.8073,-2.797,0.0,0.0,0.0,0.0,0.0,0.0,0.0,0.0,0.0,0.0,0.0,0.0,0.0,0.0,0.0,0.0,0.0,0.0,0.0,0.0,0.0,0.0,0.0,0.0,0.0,0.0,0.0,0.0,0.0,0.0,0.0,0.0,0.0,0.0,0.0,0.0,-2.6267,-2.716,-2.764,-2.809,-2.8552,-2.8973,-2.7727,-2.7308,-2.7557,-2.7285,0.0,0.0,0.0,0.0,0.0,0.0,0.0,0.0,0.0,0.0,0.0,0.0,0.0,0.0,0.0,0.0,0.0,0.0,0.0,0.0,0.0,0.0,0.0,0.0,0.0,0.0,0.0,0.0,0.0,0.0,0.0,0.0,0.0,0.0,0.0,0.0,0.0,0.0,0.0,-2.4346,-2.5138,-2.513,-2.5466,-2.5547,0.0,0.0,0.0,0.0,0.0,0.0,0.0,0.0,0.0,-2.8995,-2.9502,-2.996,-3.04,-3.0876,-3.1293,-3.1646,-3.2016,-3.2388,-3.2746,-3.3128,-3.3068,-3.264,-3.3064,-3.2396,-3.0933,-3.0436,-3.0513,-3.0913,0.0,0.0,0.0,0.0,-3.1282,-3.1014,0.0,0.0,0.0,0.0,0.0,0.0,0.0,0.0,0.0,0.0,0.0,0.0,0.0,0.0,0.0,-2.179,0.0,0.0,0.0,0.0,0.0,0.0,0.0,0.0,0.0,0.0,0.0,0.0,-2.7035,-2.7897,-2.8548,-2.8834,-2.9316,-2.9892,-2.924,-2.8617,-2.8002,-2.8201,-2.7674,0.0,0.0,0.0,0.0,0.0,0.0,0.0,0.0,0.0,0.0,0.0,0.0,0.0,0.0,0.0,0.0,0.0,0.0,0.0,0.0,0.0,0.0,0.0,0.0,0.0,0.0,0.0,0.0,0.0,0.0,0.0,0.0,0.0,0.0,0.0,0.0,0.0,0.0,-2.5281,-2.5779,-2.6013,-2.6035,-2.6115,0.0,0.0,0.0,0.0,0.0,0.0,-2.8945,-2.9152,-2.9665,-3.0543,-3.1209,-3.1831,-3.2423,-3.3064,-3.3457,-3.3632,-3.3632,-3.3745,-3.3969,-3.3976,-3.3806,-3.3541,-3.3829,-3.379,-3.3464,-3.261,-3.2629,-3.3172,-3.2574,-3.2703,-3.3231,-3.3239,-3.3355,-3.3522,0.0,0.0,0.0,0.0,0.0,0.0,0.0,0.0,0.0,0.0,0.0,0.0,0.0,0.0,-2.1809,-2.2744,-2.2825,-2.284,0.0,0.0,0.0,0.0,0.0,0.0,0.0,0.0,0.0,-2.6835,-2.8544,-2.9386,-2.9455,-3.0345,-3.0782,-3.0821,-3.0782,-3.0743,-3.0606,-2.8984,-2.873,-2.9259,0.0,0.0,0.0,0.0,0.0,0.0,0.0,0.0,0.0,0.0,0.0,0.0,0.0,0.0,0.0,0.0,0.0,0.0,0.0,0.0,0.0,0.0,0.0,0.0,0.0,0.0,0.0,0.0,0.0,0.0,0.0,0.0,0.0,0.0,0.0,0.0,0.0,0.0,0.0,-2.6839,-2.6939,0.0,0.0,0.0,0.0,-2.8223,-2.904,-2.9894,-3.0726,-3.1485,-3.2319,-3.3171,-3.3256,-3.3289,-3.3321,-3.3307,-3.3731,-3.4525,-3.4528,-3.4964,-3.5762,-3.5781,-3.5275,-3.4478,-3.5313,-3.5197,-3.4361,-3.3565,-3.3254,-3.3293,-3.3257,-3.325,-3.3293,-3.3296,-3.3774,-3.4439,0.0,0.0,0.0,0.0,0.0,0.0,0.0,0.0,0.0,0.0,0.0,0.0,0.0,-2.2384,-2.2763,-2.3651,-2.3751,-2.3966,-2.4548,0.0,0.0,0.0,0.0,0.0,0.0,0.0,-2.7437,-2.8569,-2.9769,-3.0625,-3.1198,-3.2085,-3.2207,-3.166,-3.1667,-3.1665,-3.1563,-2.9869,-2.8988,-2.8711,-2.809,-2.7842,0.0,0.0,0.0,0.0,0.0,0.0,0.0,0.0,0.0,0.0,0.0,0.0,0.0,0.0,0.0,0.0,0.0,0.0,0.0,0.0,0.0,0.0,0.0,0.0,0.0,0.0,0.0,0.0,0.0,0.0,0.0,0.0,0.0,0.0,0.0,0.0,0.0,-2.6967,-2.7498,0.0,-2.8262,-2.9316,-2.9977,-2.997,-3.1257,-3.219,-3.2497,-3.277,-3.3336,-3.4212,-3.4248,-3.4514,-3.5065,-3.5041,-3.5178,-3.5431,-3.6015,-3.6404,-3.6697,-3.725,-3.7303,-3.6978,-3.7325,-3.7277,-3.692,-3.6684,-3.6246,-3.5799,-3.6351,-3.6584,-3.6576,-3.6584,-3.6759,-3.7003,0.0,0.0,0.0,0.0,0.0,0.0,0.0,0.0,0.0,0.0,0.0,-2.2315,-2.3152,-2.3292,-2.3682,-2.4563,-2.4651,-2.493,-2.5506,0.0,0.0,0.0,0.0,0.0,0.0,-2.7717,-2.8768,-2.9936,-3.1106,-3.1975,-3.255,-3.3122,-3.3085,-3.2539,-3.2545,-3.2543,-3.2461,-3.1355,-3.0376,-2.953,-2.8969,-2.8735,-2.8715,0.0,0.0,0.0,0.0,0.0,0.0,0.0,0.0,0.0,0.0,0.0,0.0,0.0,0.0,0.0,0.0,0.0,0.0,0.0,0.0,0.0,0.0,0.0,0.0,0.0,0.0,0.0,0.0,0.0,0.0,0.0,0.0,0.0,0.0,0.0,-2.7334,-2.8203,-2.8827,-2.9391,-2.9977,-3.1068,-3.1747,-3.1736,-3.3044,-3.3844,-3.3844,-3.4114,-3.4544,-3.5129,-3.5145,-3.5412,-3.5986,-3.6274,-3.6372,-3.6352,-3.7215,-3.7598,-3.7572,-3.8136,-3.8382,-3.8336,-3.8355,-3.8346,-3.8326,-3.8666,-3.847,-3.7966,-3.8285,-3.8402,-3.8402,-3.8402,-3.8596,-3.8887,0.0,0.0,0.0,0.0,0.0,0.0,0.0,0.0,0.0,0.0,-2.2365,-2.3171,-2.4056,-2.4192,-2.4583,-2.5434,-2.557,-2.5596,-2.5602,-2.5596,0.0,0.0,0.0,0.0,-2.7025,-2.9433,-3.075,-3.0884,-3.2592,-3.3441,-3.3437,-3.3476,-3.3476,-3.3437,-3.3437,-3.3437,-3.3437,-3.342,-3.2929,-3.2029,-3.0343,-2.9679,-2.9591,0.0,0.0,0.0,0.0,0.0,0.0,0.0,0.0,0.0,0.0,0.0,0.0,0.0,0.0,0.0,0.0,0.0,0.0,0.0,0.0,0.0,0.0,0.0,0.0,0.0,0.0,0.0,0.0,0.0,0.0,0.0,0.0,0.0,-2.7072,-2.7097,-2.8065,-3.0624,-3.0966,-3.1616,-3.3239,-3.3414,-3.3434,-3.3434,-3.4256,-3.4744,-3.4744,-3.5536,-3.6001,-3.6001,-3.6001,-3.6013,-3.6044,-3.6811,-3.7216,-3.7249,-3.8116,-3.8501,-3.8439,-3.8478,-3.8482,-3.8479,-3.8414,-3.8374,-3.8433,-3.9296,-3.9646,-3.9549,-3.8781,-3.8479,-3.8479,-3.8479,-3.9004,-3.9849,0.0,0.0,0.0,0.0,0.0,0.0,0.0,0.0,0.0,0.0,-2.3639,-2.4083,-2.5004,-2.5132,-2.5231,-2.5473,-2.5557,-2.5601,-2.5607,0.0,0.0,0.0,0.0,0.0,-2.9608,-3.0394,-3.1397,-3.2689,-3.3809,-3.4345,-3.4354,-3.4998,-3.4959,-3.4334,-3.4334,-3.4334,-3.4295,-3.3662,-3.3621,-3.3824,-3.2112,-3.1438,-3.1385,0.0,0.0,0.0,0.0,0.0,0.0,0.0,0.0,0.0,0.0,0.0,0.0,0.0,0.0,0.0,0.0,0.0,0.0,0.0,0.0,0.0,0.0,0.0,0.0,0.0,0.0,0.0,0.0,0.0,0.0,0.0,0.0,-2.8881,-2.8881,-2.9433,-3.0311,-3.1621,-3.2332,-3.2895,-3.336,-3.3971,-3.4345,-3.4345,-3.5152,-3.5642,-3.5642,-3.5874,-3.6007,-3.6001,-3.6001,-3.629,-3.6863,-3.7084,-3.7498,-3.8079,-3.8941,-3.9357,-3.9371,-3.9956,-4.0209,-4.0218,-4.0179,-4.0169,-4.0139,-4.0372,-4.0469,-4.046,-4.0286,-4.0208,-4.0208,-4.0208,-4.0354,-4.0704,0.0,0.0,0.0,0.0,0.0,0.0,0.0,0.0,0.0,0.0,-2.4474,-2.4896,-2.5444,-2.5524,-2.5544,-2.5544,-2.5582,-2.5607,-2.5601,0.0,0.0,0.0,0.0,-2.8818,-3.0695,-3.1505,-3.2561,-3.3938,-3.4827,-3.5243,-3.5252,-3.5759,-3.574,-3.5252,-3.5623,-3.5584,-3.5252,-3.5476,-3.5669,-3.5701,-3.4697,-3.365,-3.2656,-3.2148,-3.1639,-3.1184,-3.1194,-3.0415,-2.9384,-2.9396,0.0,0.0,0.0,0.0,0.0,0.0,0.0,0.0,0.0,0.0,0.0,0.0,0.0,0.0,0.0,0.0,0.0,0.0,0.0,0.0,0.0,0.0,0.0,0.0,-2.9764,-3.0898,-3.1639,-3.1869,-3.2268,-3.3087,-3.3961,-3.4488,-3.4484,-3.5272,-3.5786,-3.5786,-3.6261,-3.6693,-3.7022,-3.6729,-3.6707,-3.7035,-3.7051,-3.7277,-3.7732,-3.8107,-3.8513,-3.8953,-4.0202,-4.0585,-4.0228,-4.1063,-4.1441,-4.145,-4.1399,-4.1571,-4.1811,-4.1482,-4.1346,0.0,0.0,0.0,0.0,0.0,-4.1432,-4.1567,0.0,0.0,0.0,0.0,0.0,0.0,0.0,0.0,0.0,0.0,0.0,-2.5503,-2.5518,-2.5556,-2.5601,-2.5601,-2.5599,-2.5593,0.0,0.0,0.0,-2.7019,-2.8559,-2.9944,-3.1056,-3.2606,-3.3871,-3.4854,-3.5627,-3.6004,-3.5991,-3.5991,-3.6049,-3.6189,-3.695,-3.6931,-3.6384,-3.7946,-3.8144,-3.7446,-3.7459,-3.5937,-3.3672,-3.3574,-3.3496,-3.3398,-3.3406,-3.2441,-3.1172,-3.1172,0.0,0.0,0.0,0.0,0.0,0.0,0.0,0.0,0.0,0.0,0.0,0.0,0.0,0.0,0.0,0.0,0.0,0.0,0.0,0.0,0.0,0.0,0.0,0.0,-3.1735,-3.2961,-3.4613,-3.4342,-3.423,-3.4897,-3.5576,-3.6064,-3.6255,-3.6891,-3.7347,-3.7425,-3.7432,-3.7747,-3.8459,0.0,0.0,0.0,0.0,-3.8551,-3.8653,-3.9415,-3.985,-4.001,-4.1446,-4.176,-4.1063,-4.1859,-4.2199,-4.2207,-4.2121,-4.2504,-4.3105,-4.2395,-4.2143,-4.2156,-4.1361,-4.1043,-4.114,-4.1947,-4.2228,-4.2324,0.0,0.0,0.0,0.0,0.0,0.0,0.0,0.0,0.0,-2.5059,-2.5408,-2.5518,-2.5576,-2.5587,-2.5599,-2.5599,-2.5595,-2.5604,0.0,0.0,-2.7181,-2.7841,-2.8907,-3.0525,-3.277,-3.32,-3.4172,-3.5752,-3.5923,-3.5991,-3.5991,-3.5991,-3.6384,-3.7067,-3.7223,-3.7594,-3.8121,-3.8456,-3.8504,-3.8358,-3.8359,-3.7207,-3.543,-3.4726,-3.4004,-3.3398,-3.3394,-3.319,-3.2929,-3.2929,-3.2241,-3.1237,-3.0547,0.0,0.0,0.0,0.0,0.0,0.0,0.0,0.0,0.0,0.0,0.0,0.0,0.0,0.0,0.0,0.0,0.0,0.0,0.0,0.0,-3.0857,-3.2758,-3.4557,-3.5607,-3.6762,-3.7313,-3.6772,-3.6294,-3.6528,-3.7883,-3.7574,-3.7562,-3.8225,-3.8264,-3.8365,-3.857,-3.8385,-3.8339,-3.8506,-3.8502,-3.8839,-3.9538,-3.9662,-4.042,-4.1785,0.0,0.0,-4.1956,-4.2111,-4.2198,-4.2207,-4.2136,-4.2179,-4.2318,-4.2099,-4.2421,-4.2988,-4.2244,-4.1946,-4.2005,-4.2374,-4.2383,-4.2382,0.0,0.0,0.0,0.0,0.0,0.0,0.0,0.0,0.0,0.0,-2.5008,-2.5395,-2.4996,-2.5337,-2.5595,-2.5595,-2.5609,0.0,0.0,-2.707,-2.8093,-2.9343,-3.0292,-3.1812,-3.394,-3.4031,-3.4686,-3.5994,-3.6007,-3.5991,-3.601,-3.6443,-3.6875,-3.7346,-3.8202,-3.8595,-3.8661,-3.9524,-3.9646,-3.9297,-3.9726,-3.9121,-3.7812,-3.6504,-3.5723,-3.5293,-3.486,-3.4422,-3.4059,-3.4042,-3.347,-3.2602,-3.1737,-3.1145,-3.0455,0.0,0.0,0.0,0.0,0.0,0.0,0.0,0.0,0.0,0.0,0.0,0.0,0.0,0.0,-2.9336,0.0,0.0,-3.2573,-3.3888,-3.5142,-3.6259,-3.7128,-3.7976,-3.8341,-3.7908,-3.7888,-3.8064,-3.8454,-3.8526,-3.8725,-3.9115,-3.9158,-3.9353,-3.9837,-3.9408,-3.934,-3.975,-3.9739,-3.9961,-4.0402,-4.0373,-4.0777,-4.1606,-4.1558,-4.1752,-4.2168,-4.2595,-4.302,-4.3404,-4.3373,-4.3569,-4.3931,-4.3479,-4.3473,-4.3705,-4.3342,-4.2865,-4.2519,-4.3384,-4.3509,-4.3419,0.0,0.0,0.0,0.0,0.0,0.0,0.0,0.0,0.0,0.0,0.0,-2.5074,-2.4379,-2.5085,-2.5605,0.0,0.0,0.0,0.0,-2.7723,-2.8888,-3.0403,-3.152,-3.284,-3.4408,-3.4608,-3.5123,-3.6001,-3.6007,-3.5991,-3.601,-3.6891,-3.7382,-3.7624,-3.92,-3.9596,-3.9197,-4.0605,-4.0781,-4.0215,-4.0918,-4.0781,-3.9961,-3.8223,-3.7441,-3.7187,-3.6306,-3.5439,-3.4722,-3.4901,-3.4153,-3.3048,-3.2518,-3.212,-3.1492,-2.9764,-2.9258,0.0,0.0,0.0,0.0,0.0,0.0,0.0,0.0,0.0,-2.8193,-2.9765,-3.0351,-3.1228,-3.3276,-3.3937,-3.4847,-3.6953,-3.7394,-3.7756,-3.8624,-3.8745,-3.8823,-3.8985,-3.9331,-3.9409,-3.9048,-3.9496,-3.9872,-4.0047,-4.0047,-4.0355,-4.1061,-4.0423,-4.0335,-4.0987,-4.0993,-4.0991,-4.1007,-4.0991,-4.1033,-4.117,-4.1869,-4.2257,-4.2377,-4.3264,-4.4017,-4.4615,-4.4615,-4.4937,-4.5432,-4.4794,-4.4517,-4.4505,-4.4537,-4.3981,-4.3369,-4.4566,-4.4702,-4.4455,0.0,0.0,0.0,0.0,0.0,0.0,0.0,0.0,0.0,0.0,0.0,0.0,0.0,0.0,0.0,0.0,0.0,0.0,-2.6843,-2.7731,-2.8622,-2.9596,-3.1222,-3.2556,-3.3516,-3.4296,-3.5123,-3.6001,-3.6007,-3.5991,-3.601,-3.6891,-3.7711,-3.8495,-3.9468,-4.0283,-4.0918,-4.1113,-4.1133,-4.1055,-4.1152,-4.1133,-4.0859,-3.9121,-3.7969,-3.7187,-3.6308,-3.5445,-3.4822,-3.5584,-3.4245,-3.2358,-3.3044,-3.219,-3.0609,-2.8866,0.0,-2.7978,-2.6236,-2.635,-2.715,-2.7836,-2.8081,-2.8362,0.0,0.0,-3.0714,-3.1621,-3.306,-3.4217,-3.4491,-3.5818,-3.695,-3.724,-3.789,-3.8658,-3.9531,-3.9647,-3.9934,-4.0721,-3.9535,-3.9223,-4.0667,-4.0207,-4.0118,-4.0898,-4.0955,-4.1008,-4.1091,-4.0953,-4.0909,-4.0993,-4.0991,-4.1007,-4.101,-4.0945,-4.1296,-4.2053,-4.215,-4.2576,-4.3283,-4.4167,-4.4591,-4.4691,-4.4628,-4.4511,-4.4355,-4.4279,-4.4782,-4.562,-4.5686,-4.5602,-4.5461,-4.5692,-4.5161,-4.4451,0.0,0.0,0.0,0.0,0.0,0.0,0.0,0.0,0.0,0.0,0.0,0.0,0.0,0.0,0.0,0.0,0.0,0.0,-2.7579,-2.7994,-2.9041,-3.0935,-3.1718,-3.2744,-3.4137,-3.4502,-3.5129,-3.6007,-3.5991,-3.5991,-3.603,-3.7419,-3.8249,-3.8668,-4.0034,-4.0834,-4.1144,-4.1171,-4.1191,-4.1191,-4.1191,-4.0897,-4.0306,-3.9062,-3.7734,-3.6426,-3.5566,-3.5018,0.0,0.0,-3.3754,-3.2826,-3.2686,-3.2147,-3.131,-3.0078,-2.9708,0.0,-2.8217,-2.817,-2.8532,-2.8906,-2.9413,-3.0032,-3.0873,-3.1345,-3.1973,-3.3333,-3.4608,-3.5767,-3.6771,-3.7533,-3.833,0.0,-3.9369,-3.955,-4.0423,-4.0557,-4.0688,-4.1061,-4.0462,-4.0296,-4.1035,-4.0762,-4.0699,-4.1061,-4.1106,-4.107,-4.1039,-4.1013,-4.0991,-4.0996,-4.0952,-4.0935,-4.0945,-4.0917,-4.1073,-4.1451,-4.1431,-4.2139,-4.3427,-4.4114,-4.4737,-4.5338,-4.5305,-4.5233,-4.5123,-4.5137,-4.5407,-4.5814,-4.5841,-4.5822,-4.5822,-4.5873,-4.5583,-4.5228,0.0,0.0,0.0,0.0,0.0,0.0,0.0,0.0,0.0,0.0,0.0,0.0,0.0,0.0,0.0,0.0,0.0,0.0,0.0,-2.7857,-2.8922,-3.128,-3.1613,-3.256,-3.4303,-3.4585,-3.5137,-3.5999,-3.5994,-3.5991,-3.6033,-3.7543,-3.8374,-3.8672,-4.0176,-4.0955,-4.1121,-4.1171,-4.1191,-4.1172,-4.0937,-4.0462,-3.9786,-3.8667,-3.7305,-3.5897,-3.5018,-3.4392,0.0,0.0,-3.3071,-3.2611,-3.2214,-3.1772,-3.1252,-3.0638,-3.0263,-3.0054,-2.9897,-2.9854,-2.9965,-3.0459,-3.1083,-3.1737,-3.2324,-3.2636,-3.3236,-3.4744,-3.5946,-3.7172,-3.8668,-3.9094,-3.9634,-4.0883,-4.0563,-4.0374,-4.1003,-4.1084,-4.1071,-4.107,-4.107,-4.1061,-4.107,-4.1066,-4.1076,-4.1096,-4.107,-4.1046,-4.1006,-4.1003,-4.0999,-4.0974,-4.0936,-4.0907,-4.0907,-4.0907,-4.0898,-4.0898,-4.0877,-4.1682,-4.3191,-4.4214,-4.5099,-4.5814,-4.5814,-4.5814,-4.58,-4.58,-4.58,-4.58,-4.58,-4.58,-4.5814,-4.5848,-4.5848,-4.5802,0.0,0.0,0.0,0.0,0.0,0.0,0.0,0.0,0.0,0.0,0.0,0.0,0.0,0.0,0.0,0.0,0.0,0.0,0.0,-2.7004,-2.7794,-2.9507,-3.0398,-3.1669,-3.3402,-3.4273,-3.5123,-3.5991,-3.5999,-3.5991,-3.6013,-3.6912,-3.7793,-3.8633,-3.9531,-4.041,-4.1191,-4.1191,-4.1191,-4.1133,-4.0283,-3.992,-3.9705,-3.7987,-3.6776,-3.5882,-3.5003,0.0,0.0,0.0,-3.2277,-3.1012,-3.1831,-3.0938,0.0,-2.9541,-2.8932,0.0,0.0,0.0,-3.1161,-3.2867,-3.33,-3.3339,-3.3355,-3.401,-3.4878,-3.5776,-3.7337,-3.8782,-3.9605,-4.0444,-4.103,-4.1088,-4.1081,-4.107,-4.1096,-4.1031,-4.0994,-4.0994,-4.0994,-4.0994,0.0,-4.0994,-4.1025,-4.1091,-4.1039,-4.1003,-4.1006,-4.0988,-4.0974,-4.0907,-4.0907,-4.0907,-4.0907,-4.0907,-4.0907,-4.0907,-4.0839,-4.1396,-4.2606,-4.4821,-4.5874,-4.5893,-4.5893,-4.586,-4.58,-4.58,-4.58,-4.58,-4.58,-4.58,-4.58,-4.5814,-4.5814,-4.58,0.0,0.0,0.0,0.0,0.0,0.0,0.0,0.0,0.0,0.0,0.0,0.0,0.0,0.0,0.0,0.0,0.0,0.0,0.0,-2.6994,-2.7504,-2.8652,-2.9533,-3.0554,-3.1714,-3.2558,-3.34,-3.4261,-3.4858,-3.5134,-3.5173,-3.6621,-3.7461,-3.7773,-3.8652,-3.9199,-3.9473,-3.9473,-3.9473,-3.9453,-3.9159,-3.8684,-3.8043,-3.6872,-3.5541,-3.4158,0.0,0.0,0.0,0.0,0.0,0.0,-3.1145,0.0,0.0,-3.0355,0.0,0.0,0.0,0.0,-3.2086,-3.3828,-3.4253,-3.441,-3.4995,-3.5353,-3.5658,-3.5935,-3.6462,-3.6953,-3.723,-3.7995,-3.8583,-3.8587,-3.9517,-4.0231,-4.0246,-4.0686,-4.0994,-4.0994,-4.0993,0.0,0.0,0.0,0.0,-4.1033,-4.1057,-4.1054,-4.1007,-4.0963,-4.0917,-4.0907,-4.0907,-4.0907,-4.0907,-4.0907,-4.0898,-4.0917,-4.2011,-4.3296,-4.4718,-4.5538,-4.588,-4.5847,-4.5893,-4.586,-4.58,-4.5847,-4.5847,-4.58,-4.58,-4.58,-4.58,-4.58,-4.58,-4.58,0.0,0.0,0.0,0.0,0.0,0.0,0.0,0.0,0.0,0.0,0.0,0.0,0.0,0.0,0.0,0.0,0.0,0.0,0.0,0.0,-2.6915,-2.7791,-2.8374,-2.9216,-3.0409,-3.0938,-3.1624,-3.2508,-3.3378,-3.3809,-3.3848,-3.5254,-3.6074,-3.6406,-3.6953,-3.7559,-3.8144,-3.8144,-3.8144,-3.8105,-3.7793,-3.7147,-3.6279,-3.54,-3.4177,0.0,0.0,0.0,0.0,0.0,0.0,0.0,0.0,0.0,0.0,0.0,0.0,0.0,0.0,-3.2787,-3.3457,-3.5191,-3.5386,-3.5401,-3.6243,-3.622,-3.6099,-3.6399,-3.6224,-3.6091,-3.6411,-3.6921,-3.7292,-3.7298,-3.8466,-3.9478,-3.9751,-4.0223,-4.0656,-4.0968,-4.0991,-4.0996,0.0,0.0,0.0,-4.102,-4.1015,-4.103,-4.101,-4.0945,-4.0907,-4.0907,-4.0907,-4.0907,-4.0907,-4.0907,-4.0908,-4.0925,-4.3241,-4.4846,-4.5809,-4.5854,-4.5847,-4.58,-4.5847,-4.5615,-4.5258,-4.5692,-4.5673,-4.5394,-4.5684,-4.58,-4.58,-4.58,-4.58,-4.58,0.0,0.0,0.0,0.0,0.0,0.0,0.0,0.0,0.0,0.0,0.0,0.0,0.0,0.0,0.0,0.0,0.0,0.0,0.0,0.0,0.0,-2.6892,-2.699,-2.7767,-2.9435,-2.9513,-2.9933,-3.0762,-3.1641,-3.207,-3.207,-3.2891,-3.373,-3.457,-3.457,-3.5508,-3.7109,-3.7109,-3.7109,-3.7031,-3.6191,-3.5371,-3.4531,-3.3672,0.0,0.0,0.0,0.0,0.0,0.0,0.0,0.0,0.0,0.0,0.0,0.0,0.0,-3.237,-3.3236,-3.4062,-3.5114,-3.6804,-3.6614,-3.6196,-3.6957,-3.6547,-3.622,-3.6992,-3.6469,-3.6118,0.0,0.0,-3.7106,-3.7106,-3.7946,-3.8863,-3.9621,-3.976,-4.0072,0.0,0.0,0.0,0.0,0.0,0.0,-4.1007,0.0,-4.0936,-4.0982,-4.0926,-4.0907,-4.0907,-4.0907,-4.0907,-4.0907,-4.0907,-4.0898,-4.0942,-4.4374,-4.5919,-4.5796,-4.5808,-4.58,-4.58,-4.5814,-4.522,-4.4355,-4.5258,-4.5239,-4.4736,-4.549,-4.58,-4.58,-4.58,-4.58,-4.58,0.0,0.0,0.0,0.0,0.0,0.0,0.0,0.0,0.0,0.0,0.0,0.0,0.0,0.0,0.0,0.0,0.0,0.0,0.0,0.0,0.0,0.0,0.0,0.0,0.0,0.0,0.0,0.0,0.0,-3.025,-3.0273,-3.1133,-3.1992,-3.2832,-3.2832,-3.3418,-3.4394,-3.4394,-3.4394,-3.4375,0.0,-3.3924,-3.3643,0.0,0.0,0.0,0.0,0.0,0.0,0.0,0.0,0.0,0.0,-3.1773,-3.1858,0.0,0.0,-3.3255,-3.412,-3.4521,-3.4953,-3.6064,-3.6124,-3.5977,-3.6172,-3.6075,-3.5802,-3.5373,-3.4636,-3.3929,0.0,0.0,0.0,-3.4381,-3.6723,0.0,-3.879,-3.9939,0.0,-4.0991,0.0,-4.0945,-4.098,-4.0954,0.0,0.0,-4.0904,-4.0907,-4.0917,-4.0907,-4.0907,-4.0907,-4.0907,-4.0907,-4.0907,-4.0898,-4.0876,-4.0878,-4.424,-4.5829,-4.5796,-4.5808,-4.58,-4.58,-4.5789,-4.5634,-4.5297,-4.3904,-4.4175,-4.551,-4.5717,-4.5794,-4.58,-4.58,-4.58,-4.58,0.0,0.0,0.0,0.0,0.0,0.0,0.0,0.0,0.0,0.0,0.0,0.0,0.0,0.0,0.0,0.0,0.0,0.0,0.0,0.0,0.0,0.0,0.0,0.0,0.0,0.0,0.0,0.0,0.0,0.0,0.0,-2.9355,-3.0215,-3.1055,-3.1055,-3.1738,-3.2871,0.0,0.0,0.0,0.0,0.0,0.0,0.0,0.0,0.0,0.0,0.0,0.0,0.0,0.0,-3.146,-3.1939,-3.2352,-3.277,-3.3268,0.0,-3.4082,-3.4576,-3.4986,-3.5474,-3.6324,-3.6211,-3.5903,-3.5908,-3.5903,-3.5552,-3.4321,-3.3719,-3.3126,-3.2254,-3.282,0.0,0.0,0.0,0.0,-3.8071,-3.9169,-4.0169,0.0,-4.0935,0.0,-4.0943,-4.0945,-4.0936,0.0,-4.0906,-4.0907,-4.0907,-4.0898,-4.0898,-4.0907,-4.0898,-4.1238,-4.1985,-4.2692,-4.3028,-4.3032,-4.4905,-4.5796,-4.5796,-4.5808,-4.58,-4.58,0.0,-4.5808,-4.5698,-4.4459,-4.4117,-4.4452,-4.5413,-4.5814,-4.58,-4.58,-4.58,-4.58,0.0,0.0,0.0,0.0,0.0,0.0,0.0,0.0,0.0,0.0,0.0,0.0,0.0,0.0,0.0,0.0,0.0,0.0,0.0,0.0,0.0,0.0,0.0,0.0,0.0,0.0,0.0,0.0,0.0,0.0,0.0,0.0,0.0,0.0,0.0,0.0,0.0,0.0,0.0,0.0,0.0,0.0,0.0,0.0,0.0,0.0,0.0,0.0,0.0,0.0,-3.1396,-3.2121,-3.2243,-3.2875,-3.3604,-3.3711,-3.4277,-3.4879,-3.4866,-3.5416,-3.6168,-3.6865,-3.6454,-3.5872,-3.5747,-3.5722,-3.524,-3.3559,-3.3236,-3.295,-3.2087,-3.2651,-3.3278,-3.3375,0.0,-3.6397,-3.7527,-3.8305,-3.9298,-4.0813,-4.0935,-4.0907,-4.0917,-4.0966,-4.0966,-4.0917,-4.0907,-4.0907,-4.0898,-4.0898,-4.0898,-4.0898,-4.0898,-4.1703,-4.3382,-4.4846,-4.5658,-4.5808,-4.5822,-4.5827,-4.5796,-4.5794,-4.58,-4.58,-4.58,-4.5814,-4.5794,-4.5814,-4.4664,-4.3071,-4.4568,-4.5413,-4.58,-4.58,-4.58,-4.58,0.0,0.0,0.0,0.0,0.0,0.0,0.0,0.0,0.0,0.0,-2.1453,-2.1943,0.0,0.0,0.0,0.0,0.0,0.0,0.0,0.0,0.0,0.0,0.0,0.0,0.0,0.0,0.0,0.0,0.0,0.0,0.0,0.0,0.0,0.0,0.0,0.0,0.0,0.0,0.0,0.0,0.0,0.0,0.0,0.0,0.0,0.0,0.0,0.0,0.0,0.0,-3.1424,-3.2226,-3.2949,-3.3763,-3.4629,-3.5341,-3.5667,-3.5762,-3.5763,-3.5873,-3.602,-3.6104,-3.6006,-3.571,-3.4995,-3.4831,0.0,-3.2673,-3.2326,-3.2068,-3.1192,-3.1733,-3.2563,-3.3286,-3.4861,-3.6387,-3.7462,-3.931,-4.0645,0.0,-4.0917,-4.0917,-4.0982,-4.0936,0.0,0.0,0.0,-4.0898,-4.0888,-4.0849,-4.0849,-4.0888,-4.0907,-4.1701,-4.3385,-4.4114,-4.4924,-4.5808,-4.591,-4.591,-4.5794,-4.5814,-4.58,-4.58,-4.58,0.0,-4.5814,-4.5794,-4.5582,-4.4993,-4.2593,-4.3361,-4.58,-4.58,-4.58,-4.58,0.0,0.0,0.0,0.0,0.0,0.0,0.0,-2.0593,-2.0593,-2.0593,-2.0965,-2.1219,-2.1219,-2.1961,-2.2473,0.0,0.0,0.0,0.0,0.0,0.0,0.0,0.0,0.0,0.0,0.0,0.0,0.0,0.0,0.0,0.0,0.0,0.0,0.0,0.0,0.0,0.0,0.0,0.0,0.0,0.0,0.0,0.0,0.0,0.0,0.0,0.0,0.0,0.0,0.0,-3.0782,-3.1699,-3.2988,-3.3999,-3.4784,-3.5201,-3.5642,-3.5893,-3.5454,-3.5658,-3.5981,-3.5914,-3.5558,-3.4995,-3.4164,0.0,0.0,-3.1761,-3.1776,-3.1825,-3.0953,-3.1513,0.0,-3.2849,-3.4126,-3.543,-3.6514,-3.8159,-3.9435,-3.9945,-4.0538,-4.0917,0.0,-4.0917,-4.0917,-4.0945,0.0,-4.0898,-4.0907,-4.0828,-4.0818,-4.0865,-4.0856,-4.164,-4.3342,-4.3633,-4.4453,-4.5789,-4.5872,-4.5852,-4.5789,-4.5794,-4.5794,-4.5789,-4.5789,-4.5789,-4.5789,-4.5802,-4.5808,-4.5645,-4.4032,-4.4394,-4.58,-4.58,-4.58,-4.58,0.0,0.0,0.0,0.0,0.0,0.0,0.0,-2.0593,-2.0593,-2.0593,-2.0594,-2.0596,-2.0596,-2.1219,-2.1629,0.0,0.0,0.0,0.0,0.0,0.0,0.0,0.0,0.0,0.0,0.0,0.0,0.0,0.0,0.0,0.0,0.0,0.0,0.0,0.0,0.0,0.0,0.0,0.0,0.0,0.0,0.0,0.0,0.0,0.0,0.0,0.0,0.0,0.0,0.0,-2.9652,-3.0355,-3.2041,-3.3436,-3.4374,-3.4207,-3.4881,-3.5561,-3.4889,-3.535,-3.5981,-3.5914,-3.5251,-3.4397,-3.359,-3.3205,0.0,-3.1106,-3.1347,-3.1604,-3.0927,-3.1354,-3.1964,0.0,-3.3059,-3.4016,-3.5604,-3.6627,-3.7719,0.0,-4.0043,0.0,-4.0849,-4.0898,0.0,-4.0869,0.0,0.0,-4.0886,-4.0826,-4.0804,-4.0812,-4.0804,-4.1598,-4.331,-4.3356,-4.4189,-4.5802,-4.5794,-4.5794,-4.5802,-4.5794,-4.5794,-4.5802,-4.5822,-4.5841,-4.5841,-4.5802,-4.5789,-4.58,-4.58,-4.58,-4.58,-4.58,-4.58,-4.58,0.0,0.0,0.0,0.0,0.0,0.0,0.0,-2.0593,-2.0593,-2.0593,-2.0598,-2.0601,-2.0601,-2.0675,-2.0712,0.0,0.0,0.0,0.0,0.0,0.0,0.0,0.0,0.0,0.0,0.0,0.0,0.0,0.0,0.0,0.0,0.0,0.0,0.0,0.0,0.0,0.0,0.0,0.0,0.0,0.0,0.0,0.0,0.0,0.0,0.0,0.0,0.0,0.0,0.0,0.0,-2.7666,-2.9392,-3.1595,-3.3355,-3.2563,0.0,0.0,-3.4716,-3.535,-3.5981,-3.5914,-3.5237,-3.4389,-3.357,0.0,-3.1945,-3.0993,-3.0869,-3.0894,-3.0813,-3.0869,-3.1272,-3.2337,0.0,-3.2224,-3.5438,-3.5935,-3.6767,-3.8937,0.0,0.0,-4.074,-4.0858,0.0,0.0,0.0,0.0,-4.08,-4.0796,-4.0808,-4.0807,-4.0792,-4.1625,-4.3373,-4.3349,-4.4157,-4.5794,-4.58,-4.58,-4.5794,-4.58,-4.58,-4.5814,-4.593,-4.5988,0.0,-4.5852,-4.5814,-4.58,-4.58,-4.58,-4.58,-4.58,-4.58,-4.58,0.0,0.0,0.0,0.0,0.0,0.0,-2.0594,-2.0593,-2.0593,-2.0593,-2.0598,-2.0601,-2.0601,-2.0597,-2.0593,-2.0593,0.0,0.0,0.0,0.0,0.0,0.0,0.0,0.0,0.0,0.0,0.0,0.0,0.0,0.0,0.0,0.0,0.0,0.0,0.0,0.0,0.0,0.0,0.0,0.0,0.0,0.0,0.0,0.0,0.0,0.0,0.0,0.0,0.0,0.0,0.0,0.0,-2.7203,-2.9035,0.0,0.0,-3.2578,-3.3802,-3.3269,-3.4113,-3.5027,-3.4525,-3.4101,-3.3604,-3.2801,0.0,-3.123,-3.0863,-3.0791,-3.0794,-3.0804,-3.0804,-3.0954,0.0,0.0,0.0,-3.2772,-3.5138,-3.6914,-3.7128,-3.8597,0.0,0.0,0.0,0.0,0.0,0.0,0.0,-4.0796,-4.0803,-4.0803,-4.0788,-4.0796,-4.1628,-4.3324,-4.366,-4.4511,-4.58,-4.58,-4.58,-4.58,-4.58,-4.5794,-4.5802,-4.586,-4.588,0.0,-4.5822,-4.5808,-4.58,-4.58,-4.58,-4.58,-4.58,-4.58,-4.58,0.0,0.0,0.0,0.0,0.0,-2.0598,-2.0594,-2.0593,-2.0593,-2.0593,-2.0596,-2.0598,-2.0599,-2.0596,-2.0593,-2.0593,-2.0593,0.0,0.0,0.0,0.0,0.0,0.0,0.0,0.0,0.0,0.0,-2.3105,-2.3965,0.0,0.0,0.0,0.0,0.0,0.0,0.0,0.0,0.0,0.0,0.0,0.0,0.0,0.0,0.0,0.0,0.0,0.0,0.0,0.0,0.0,0.0,0.0,0.0,0.0,0.0,0.0,-3.1304,-3.282,-3.1955,-3.2955,-3.4106,-3.3546,-3.3161,-3.28,0.0,0.0,-3.0801,-3.0807,-3.0794,-3.0794,-3.0804,-3.0801,-3.079,0.0,0.0,-3.2472,-3.231,-3.471,-3.6417,0.0,0.0,-3.8947,0.0,0.0,0.0,0.0,0.0,0.0,-4.079,-4.079,-4.0803,-4.0803,-4.1035,-4.1848,-4.3279,-4.3976,-4.4827,-4.58,-4.5471,-4.549,-4.58,-4.5814,-4.5808,-4.5802,-4.5802,-4.5802,0.0,-4.5802,-4.5808,-4.58,-4.58,-4.58,-4.58,-4.58,-4.58,-4.58,0.0,0.0,0.0,0.0,0.0,0.0,-2.0594,-2.0593,-2.0593,-2.0593,-2.0593,-2.0593,-2.0593,-2.0593,-2.0593,-2.0593,-2.0593,0.0,0.0,0.0,0.0,0.0,0.0,0.0,0.0,0.0,0.0,-2.3105,-2.3965,-2.4394,-2.4414,0.0,0.0,0.0,0.0,0.0,0.0,0.0,0.0,0.0,0.0,0.0,0.0,0.0,0.0,0.0,0.0,0.0,0.0,0.0,0.0,0.0,0.0,0.0,0.0,0.0,-2.9445,-3.192,-3.104,-3.2088,-3.3414,-3.34,-3.2757,-3.2114,0.0,0.0,-3.0798,-3.0798,-3.0791,-3.0799,-3.0794,-3.0804,-3.0794,-3.0798,0.0,0.0,-3.5269,-3.4821,-3.4843,0.0,0.0,-3.7347,0.0,0.0,0.0,0.0,0.0,0.0,-4.0752,-4.079,-4.0803,-4.08,-4.1557,-4.2409,-4.3298,-4.415,-4.5007,-4.578,-4.4736,-4.4775,-4.58,-4.5794,-4.5794,-4.58,-4.58,-4.58,0.0,-4.58,-4.58,-4.58,-4.58,-4.58,-4.58,-4.58,-4.58,-4.58,0.0,0.0,0.0,0.0,0.0,0.0,0.0,-2.0596,-2.0593,-2.0593,-2.0593,-2.0593,-2.0593,-2.0593,-2.0593,-2.0593,-2.0593,0.0,0.0,0.0,0.0,0.0,0.0,0.0,0.0,0.0,-2.1133,-2.1387,-2.2812,-2.3516,-2.3535,-2.5016,-2.5693,0.0,0.0,0.0,0.0,0.0,0.0,0.0,0.0,0.0,0.0,0.0,0.0,0.0,0.0,0.0,0.0,0.0,0.0,0.0,0.0,0.0,0.0,0.0,0.0,0.0,-2.911,-2.9858,-3.0589,-2.9985,-3.0535,-3.1066,-3.0466,0.0,-3.0622,-3.0037,-3.0395,-3.057,-2.978,-3.0275,-3.0793,-3.0804,-3.0734,0.0,0.0,0.0,0.0,-3.4404,-3.5987,-3.7366,0.0,0.0,0.0,0.0,0.0,0.0,-4.0694,-4.0778,-4.0803,-4.0803,-4.1577,-4.2415,-4.3279,-4.4156,-4.4736,-4.4987,-4.52,-4.5181,-4.5007,-4.5548,-4.5827,-4.586,-4.5814,-4.5388,-4.4763,-4.5504,-4.5471,-4.5026,-4.5587,-4.58,-4.58,-4.58,-4.58,-4.58,0.0,0.0,0.0,0.0,0.0,0.0,0.0,-2.0596,-2.0593,-2.0593,-2.0593,-2.0593,-2.0593,-2.0593,-2.0593,-2.0593,-2.0593,0.0,0.0,0.0,0.0,0.0,0.0,0.0,0.0,-2.0601,-2.0604,-2.0605,-2.1973,-2.2793,-2.3124,-2.4542,-2.5375,-2.5707,-2.5691,0.0,0.0,0.0,0.0,0.0,0.0,0.0,-2.5703,0.0,0.0,0.0,0.0,0.0,0.0,0.0,0.0,0.0,0.0,0.0,0.0,0.0,0.0,0.0,0.0,-2.8372,-2.887,-2.8338,-2.9254,0.0,0.0,0.0,-3.0053,-2.9195,-2.9452,-2.9826,-2.9757,-3.031,-3.0789,-3.076,-3.0722,0.0,0.0,0.0,0.0,-3.4124,0.0,0.0,0.0,0.0,0.0,0.0,0.0,0.0,-4.061,-4.0733,-4.0759,-4.0759,-4.1583,-4.226,-4.2802,-4.3672,-4.4272,-4.4601,-4.4775,-4.4929,-4.5065,-4.5253,-4.5537,-4.5841,-4.5498,-4.4976,0.0,-4.5079,-4.5045,-4.4678,-4.549,-4.58,-4.58,-4.58,-4.58,-4.5805,0.0,0.0,0.0,0.0,0.0,0.0,0.0,-2.0593,-2.0593,-2.0593,-2.0593,-2.0593,-2.0593,-2.0593,-2.0593,-2.0593,0.0,0.0,0.0,0.0,0.0,0.0,0.0,0.0,0.0,-2.0593,-2.0597,-2.0601,-2.1464,-2.2304,-2.312,-2.3993,-2.4868,-2.5707,-2.5697,0.0,0.0,0.0,0.0,0.0,0.0,0.0,0.0,0.0,0.0,0.0,0.0,0.0,0.0,0.0,0.0,0.0,0.0,0.0,0.0,0.0,0.0,0.0,0.0,0.0,0.0,0.0,0.0,0.0,0.0,0.0,0.0,-2.8326,-2.8223,-2.8736,-3.0177,-3.0634,-3.0774,-3.0701,0.0,0.0,0.0,-3.3487,0.0,0.0,-3.5698,0.0,0.0,0.0,0.0,0.0,0.0,0.0,-4.0511,-4.0654,-4.07,-4.07,-4.148,-4.1932,-4.2009,-4.2937,-4.3769,-4.4504,-4.375,-4.4175,-4.5587,-4.484,-4.4937,0.0,-4.4873,-4.4511,-4.4504,-4.4504,-4.4523,-4.4601,-4.5394,-4.5742,-4.58,-4.58,-4.5791,-4.5781,0.0,0.0,0.0,0.0,0.0,0.0,0.0,0.0,0.0,0.0,-2.0593,-2.0593,-2.0593,-2.0593,-2.0593,0.0,0.0,0.0,0.0,0.0,0.0,0.0,0.0,0.0,0.0,-2.0593,-2.0597,-2.0601,-2.1464,-2.2342,-2.3192,-2.4011,-2.4868,-2.5707,-2.5709,0.0,0.0,0.0,0.0,0.0,0.0,0.0,0.0,0.0,0.0,0.0,-2.5691,-2.5707,0.0,0.0,0.0,0.0,0.0,0.0,0.0,0.0,-2.5696,0.0,0.0,0.0,0.0,0.0,0.0,0.0,0.0,0.0,0.0,0.0,0.0,0.0,0.0,0.0,0.0,0.0,0.0,0.0,-3.1417,0.0,0.0,-3.5505,0.0,0.0,0.0,0.0,0.0,0.0,0.0,-3.9552,-4.0545,-4.0607,-4.0621,-4.0621,-4.0828,-4.126,-4.199,-4.3537,-4.4059,-4.3614,-4.4078,-4.4156,-4.3885,-4.3705,-4.4066,-4.4834,-4.3976,-4.3641,-4.3673,-4.3628,-4.3614,-4.3692,-4.4481,-4.5216,-4.5795,-4.5746,-4.5731,-4.5715,0.0,0.0,0.0,0.0,0.0,0.0,0.0,0.0,0.0,0.0,0.0,0.0,0.0,0.0,0.0,0.0,0.0,0.0,0.0,0.0,0.0,0.0,0.0,0.0,-2.0593,-2.0593,-2.0596,-2.0598,-2.1074,-2.1756,-2.2611,-2.3431,-2.4266,-2.5121,-2.5512,0.0,0.0,0.0,0.0,0.0,-2.5707,0.0,0.0,0.0,0.0,0.0,-2.5709,-2.5707,0.0,-2.5701,-2.5701,-2.5701,0.0,0.0,0.0,0.0,-2.5698,0.0,0.0,0.0,0.0,0.0,0.0,0.0,0.0,0.0,0.0,0.0,0.0,0.0,0.0,0.0,0.0,0.0,-3.0348,0.0,0.0,0.0,0.0,-3.5502,0.0,0.0,0.0,0.0,0.0,0.0,0.0,-3.9702,-4.0523,-4.0569,-4.0598,-4.0564,-4.0574,-4.088,-4.1429,-4.2363,-4.2769,-4.2705,-4.3189,-4.3363,-4.3305,-4.3318,-4.3583,-4.397,-4.3118,-4.275,-4.275,-4.2711,-4.293,-4.3336,-4.4163,-4.4997,-4.575,-4.5715,-4.57,-4.5703,0.0,0.0,0.0,0.0,0.0,0.0,0.0,0.0,0.0,0.0,0.0,0.0,0.0,0.0,0.0,0.0,0.0,0.0,0.0,0.0,0.0,0.0,0.0,-2.0593,-2.0593,-2.0593,-2.0593,-2.0593,-2.0605,-2.1054,-2.1912,-2.2594,-2.3449,-2.4436,-2.5317,-2.5709,0.0,0.0,0.0,0.0,-2.5691,0.0,0.0,0.0,0.0,0.0,0.0,0.0,0.0,-2.5701,-2.5698,-2.5698,-2.5698,0.0,0.0,0.0,0.0,0.0,0.0,0.0,-2.5862,-2.5729,-2.6367,-2.677,0.0,0.0,0.0,0.0,0.0,0.0,0.0,-2.8573,0.0,0.0,0.0,0.0,-3.3149,-3.3984,-3.47,-3.5496,0.0,0.0,0.0,0.0,0.0,0.0,0.0,-3.9792,-4.0463,-4.0546,-4.0558,-4.0489,-4.0564,-4.0635,-4.0778,-4.0849,-4.1241,-4.1963,-4.1996,-4.2383,-4.3098,-4.3021,-4.3041,-4.3053,0.0,0.0,-4.199,-4.1853,-4.227,-4.3101,-4.3959,-4.4774,-4.5526,-4.5626,-4.5687,-4.5673,0.0,0.0,0.0,0.0,0.0,0.0,0.0,0.0,0.0,0.0,0.0,0.0,0.0,0.0,0.0,0.0,0.0,0.0,0.0,0.0,0.0,0.0,-2.0593,-2.0593,-2.0593,-2.0593,-2.0593,-2.0593,-2.0603,-2.1054,-2.1905,-2.2022,-2.2917,-2.4436,-2.5317,-2.5696,-2.5703,-2.5696,-2.5697,-2.5703,-2.57,0.0,0.0,0.0,0.0,0.0,0.0,0.0,0.0,-2.5701,-2.5703,-2.5705,-2.5701,0.0,0.0,0.0,0.0,0.0,-2.5705,-2.6236,-2.6626,-2.5882,-2.6364,-2.6769,-2.5891,0.0,0.0,0.0,0.0,0.0,0.0,-2.9196,-2.8993,0.0,0.0,-3.2322,0.0,0.0,-3.4689,0.0,0.0,0.0,0.0,0.0,0.0,0.0,-3.9888,-4.0364,-4.0482,-4.0518,-4.0515,-4.0489,-4.0504,-4.0549,-4.0635,-4.1354,-4.1745,-4.1832,-4.1947,-4.2072,-4.2168,-4.1448,-4.15,-4.2144,0.0,-4.128,-4.1951,-4.115,-4.1368,-4.2251,-4.3023,-4.384,-4.4688,-4.5351,-4.5622,-4.5622,0.0,0.0,0.0,0.0,0.0,0.0,0.0,0.0,0.0,0.0,0.0,0.0,0.0,0.0,0.0,0.0,0.0,0.0,0.0,0.0,0.0,-2.1276,-2.0847,-2.0593,-2.0593,-2.0593,-2.0593,-2.0593,-2.1072,-2.1483,-2.1879,-2.2814,-2.3909,-2.5121,-2.5517,-2.5697,-2.5698,-2.5691,-2.5696,-2.5702,0.0,0.0,0.0,0.0,0.0,0.0,0.0,0.0,0.0,0.0,-2.5709,-2.5707,-2.5705,0.0,0.0,0.0,0.0,0.0,-2.6264,-2.6688,-2.7007,-2.7047,-2.7374,-2.7465,-2.6604,-2.6822,0.0,0.0,0.0,0.0,0.0,0.0,-3.0158,-3.1825,0.0,-3.3061,0.0,0.0,0.0,0.0,0.0,0.0,0.0,0.0,0.0,-3.9225,-4.0018,-4.0432,-4.0396,-4.0432,-4.043,-4.0392,-4.046,-4.0495,-4.0492,-4.0939,-4.1142,-4.1138,-4.1219,-4.1233,-4.1233,-4.0828,-4.0861,-4.1222,0.0,-4.0847,-4.1222,-4.0781,-4.1133,-4.1981,-4.2268,-4.3195,-4.4388,-4.4757,-4.4893,-4.4836,0.0,0.0,0.0,0.0,0.0,0.0,0.0,0.0,0.0,0.0,0.0,0.0,0.0,0.0,0.0,0.0,0.0,0.0,0.0,0.0,-2.0905,-2.1567,-2.1159,-2.0905,-2.0905,-2.0905,-2.079,-2.0597,-2.1464,-2.1775,-2.1546,-2.3086,-2.4181,-2.4829,-2.5012,-2.5208,-2.54,-2.5396,-2.55,-2.5703,0.0,0.0,0.0,0.0,0.0,0.0,0.0,0.0,0.0,0.0,0.0,0.0,0.0,0.0,0.0,-2.5707,-2.5839,-2.6144,-2.6824,-2.7293,-2.7677,-2.8104,0.0,-2.8083,-2.728,-2.7248,0.0,0.0,0.0,0.0,0.0,-3.0955,0.0,-3.305,-3.3405,0.0,0.0,0.0,0.0,0.0,0.0,0.0,0.0,0.0,-3.8562,-3.9419,-4.0046,-4.0362,-4.0307,-4.0362,-4.0362,-4.0307,-4.043,-4.0482,-4.0432,-4.0476,-4.0519,-4.0564,-4.0593,-4.0593,-4.0593,-4.0593,-4.0607,-4.0588,-4.0574,-4.0593,-4.0607,-4.0583,-4.0992,-4.1609,-4.1755,-4.272,-4.4028,-4.4028,-4.4028,-4.3932,0.0,0.0,0.0,0.0,0.0,0.0,0.0,0.0,0.0,0.0,0.0,0.0,0.0,0.0,0.0,0.0,0.0,0.0,0.0,0.0,-2.063,-2.0683,-2.1409,-2.1801,-2.1801,-2.1805,-2.1418,-2.0604,-2.1465,-2.1483,-2.071,-2.1645,-2.2114,-2.2211,-2.2953,-2.3743,-2.4492,-2.4484,-2.496,-2.5693,-2.5703,0.0,0.0,0.0,0.0,0.0,0.0,0.0,0.0,0.0,0.0,0.0,0.0,0.0,-2.5707,0.0,-2.6269,-2.6927,-2.6986,-2.8145,-2.9145,-2.8384,-2.8255,-2.8145,-2.7518,-2.7394,0.0,-2.7927,0.0,0.0,0.0,-3.1409,-3.2188,-3.3068,0.0,0.0,0.0,0.0,0.0,0.0,0.0,0.0,0.0,-3.8635,-3.9445,-4.0252,-4.0302,-4.0307,-4.0307,-4.0362,-4.0362,-4.0307,-4.0425,-4.0511,-4.0502,-4.0511,-4.0492,-4.0518,-4.0577,-4.0588,-4.0588,-4.0588,-4.0598,-4.0607,-4.0534,-4.0549,-4.0607,-4.0534,-4.0577,-4.0781,-4.1505,-4.2374,-4.3181,-4.3181,-4.3181,-4.3181,0.0,0.0,0.0,0.0,0.0,0.0,0.0,0.0,0.0,0.0,0.0,0.0,0.0,0.0,0.0,0.0,0.0,0.0,0.0,0.0,-2.0847,-2.137,-2.1196,-2.1354,-2.1899,-2.1901,-2.1479,-2.0605,-2.1439,-2.1941,-2.2154,-2.2483,-2.2658,-2.2662,-2.2959,-2.3278,-2.3633,-2.4178,-2.4589,-2.4941,-2.5485,-2.5697,0.0,0.0,0.0,0.0,0.0,0.0,0.0,0.0,-2.5705,0.0,0.0,0.0,0.0,0.0,0.0,-2.6418,-2.7462,-2.7836,-2.8112,-2.8837,-2.8376,0.0,0.0,-2.8493,-2.9253,-2.8376,-2.9632,0.0,0.0,0.0,-3.3076,-3.3872,0.0,0.0,0.0,0.0,0.0,0.0,0.0,-3.7041,-3.7847,-3.8668,-3.9478,-4.0283,-4.0308,-4.029,-4.0307,-4.0325,-4.0362,-4.0362,-4.0447,-4.0499,-4.0502,-4.0492,-4.0508,-4.0511,-4.0523,-4.0539,-4.0539,-4.0539,-4.0539,-4.0534,-4.0504,-4.0519,-4.0534,-4.0504,-4.0504,-4.0635,-4.147,-4.2008,-4.2297,-4.2297,-4.2313,-4.2271,0.0,0.0,0.0,0.0,0.0,0.0,0.0,0.0,0.0,0.0,0.0,0.0,0.0,0.0,0.0,0.0,0.0,0.0,0.0,-2.0594,-2.0866,-2.1468,-2.1177,-2.1157,-2.1487,-2.1766,-2.1462,-2.0604,-2.1159,-2.1739,-2.2311,-2.2312,-2.2312,-2.2312,-2.2302,-2.2461,-2.2754,-2.3359,-2.3926,-2.4449,-2.5047,-2.5455,0.0,0.0,0.0,0.0,0.0,0.0,0.0,0.0,0.0,0.0,0.0,0.0,0.0,0.0,0.0,0.0,-2.7573,-2.8012,-2.8349,-2.893,0.0,0.0,-2.6988,-2.8473,-2.9803,-2.9152,-3.0583,0.0,-3.3195,0.0,0.0,0.0,0.0,0.0,0.0,0.0,0.0,0.0,-3.6491,-3.7305,-3.7824,-3.8848,-3.9696,-4.027,-4.0309,-4.0309,-4.0307,-4.0342,-4.0379,-4.0398,-4.0466,-4.0499,-4.0502,-4.0492,-4.0489,-4.0489,-4.0489,-4.0489,-4.0489,-4.0489,-4.0489,-4.0489,-4.0489,-4.0489,-4.0489,-4.0489,-4.0504,-4.0596,-4.1197,-4.1428,-4.1428,-4.1393,-4.1443,-4.1397,0.0,0.0,0.0,0.0,0.0,0.0,0.0,0.0,0.0,0.0,0.0,0.0,0.0,0.0,0.0,0.0,0.0,0.0,0.0,-2.0597,-2.0591,-2.0605,-2.1429,-2.1487,-2.0621,-2.1457,-2.1463,-2.0605,-2.0601,-2.0593,-2.0594,-2.0604,-2.0604,-2.0594,-2.0605,-2.1073,-2.1894,-2.1909,-2.287,-2.4391,-2.4403,-2.4913,-2.5701,0.0,0.0,0.0,0.0,0.0,0.0,0.0,0.0,0.0,0.0,0.0,0.0,0.0,-2.6877,-2.7998,-2.7228,-2.8844,-3.0334,0.0,0.0,0.0,-2.6092,-2.7,-2.8707,-3.0451,-3.0828,-3.1325,-3.3009,0.0,0.0,-3.4367,-3.5175,0.0,0.0,0.0,0.0,-3.5515,-3.6978,-3.7963,-3.7816,-3.9312,-4.0308,-4.031,-4.029,-4.0307,-4.0307,-4.0432,-4.0466,-4.0396,-4.046,-4.0492,-4.0502,-4.0492,-4.0489,-4.0489,-4.0489,-4.0489,-4.0489,-4.0489,-4.0489,-4.0489,-4.0504,-4.0504,-4.0489,-4.0489,-4.0539,-4.0607,-4.0607,-4.0607,-4.0588,-4.0523,-4.0539,-4.0607,0.0,0.0,0.0,0.0,0.0,0.0,0.0,0.0,0.0,0.0,0.0,0.0,0.0,0.0,0.0,0.0,0.0,0.0,0.0,-2.0594,-2.0593,-2.0591,-2.0847,-2.0866,-2.0609,-2.085,-2.0856,-2.0605,-2.0599,-2.0596,-2.0599,-2.0605,-2.0604,-2.0594,-2.0603,-2.0742,-2.103,-2.1641,-2.2518,-2.3534,-2.4152,-2.493,-2.5693,0.0,0.0,0.0,0.0,0.0,0.0,0.0,0.0,0.0,0.0,0.0,0.0,-2.5698,-2.6044,-2.6565,-2.7131,-2.7254,0.0,-2.8021,0.0,0.0,0.0,-2.8166,0.0,0.0,-3.2133,-3.2221,-3.3905,0.0,0.0,-3.4302,-3.5107,-3.5626,0.0,0.0,0.0,-3.5496,-3.694,-3.7901,-3.7868,-3.9332,-4.031,-4.031,-4.029,-4.0325,-4.0362,-4.0449,-4.0499,-4.0476,-4.0489,-4.0508,-4.0492,-4.0508,-4.0489,-4.0489,-4.0489,-4.0489,-4.0504,-4.0539,-4.0573,-4.0573,-4.0564,-4.0564,-4.0573,-4.0573,-4.0583,-4.0593,-4.0603,-4.0603,-4.0612,-4.0588,-4.0617,-4.066,0.0,0.0,0.0,0.0,0.0,0.0,0.0,0.0,0.0,0.0,0.0,0.0,0.0,0.0,0.0,0.0,0.0,0.0,0.0,0.0,-2.0593,-2.0593,-2.0593,-2.0593,-2.0593,-2.0603,-2.0605,-2.0601,-2.0601,-2.0602,-2.0604,-2.0605,-2.0605,-2.0605,-2.0605,-2.0605,-2.066,-2.1523,-2.2361,-2.318,-2.4051,-2.4926,-2.5707,0.0,0.0,0.0,0.0,0.0,0.0,0.0,0.0,0.0,0.0,0.0,0.0,-2.5696,-2.5947,-2.6295,-2.6629,-2.671,0.0,-2.7128,-2.7479,-2.7986,-2.9,0.0,0.0,0.0,0.0,-3.2586,-3.4282,-3.4153,0.0,-3.4778,-3.5291,-3.5596,-3.5608,-3.554,-3.5502,-3.5509,-3.6925,-3.7885,-3.7852,-3.9044,-3.9946,-4.0272,-4.0038,-4.0032,-4.0413,-4.0482,-4.0511,-4.0489,-4.0489,-4.0489,-4.0489,-4.0523,-4.0523,-4.0489,-4.0523,-4.0539,-4.0539,-4.0573,-4.0603,-4.0598,-4.0607,-4.0593,-4.0598,-4.0631,-4.0646,-4.0654,-4.0646,-4.0646,-4.064,-4.0612,-4.0626,-4.07,0.0,0.0,0.0,0.0,0.0,0.0,0.0,0.0,0.0,0.0,0.0,0.0,0.0,0.0,0.0,0.0,0.0,0.0,0.0,0.0,-2.0593,-2.0594,-2.0594,-2.0594,-2.0597,-2.0605,-2.0597,-2.0597,-2.0605,-2.0605,-2.0605,-2.0605,-2.0604,-2.0594,-2.0597,-2.0602,-2.0644,-2.1443,-2.2285,-2.3171,-2.397,-2.4848,-2.5707,-2.5707,0.0,0.0,0.0,0.0,0.0,0.0,0.0,0.0,0.0,0.0,-2.5707,-2.571,-2.6256,-2.6705,-2.591,0.0,0.0,-2.647,-2.8501,0.0,-3.0804,-3.0799,-3.1057,-3.1914,0.0,-3.2622,-3.4283,-3.454,-3.4745,-3.5553,-3.5639,-3.5604,-3.5581,-3.554,-3.5509,-3.5507,-3.6868,-3.7766,-3.7702,-3.8482,-3.9287,-4.002,-3.9473,-3.9426,-4.0213,-4.0338,-4.0392,-4.0392,-4.0392,-4.0389,-4.0389,-4.038,-4.038,-4.0389,-4.0457,-4.053,-4.0588,-4.0588,-4.0617,-4.0621,-4.0621,-4.0621,-4.0621,-4.0687,-4.07,-4.07,-4.07,-4.07,-4.07,-4.0635,-4.0654,-4.07,0.0,0.0,0.0,0.0,0.0,0.0,0.0,0.0,0.0,0.0,0.0,0.0,0.0,0.0,0.0,0.0,0.0,0.0,0.0,0.0,-2.0607,-2.0599,-2.0596,-2.0602,-2.0601,-2.0605,-2.0601,-2.0601,-2.0605,-2.0605,-2.0605,-2.0602,-2.0597,-2.0593,-2.0594,-2.0596,-2.0618,-2.0799,-2.1738,-2.3119,-2.3309,-2.4302,-2.5707,-2.5707,-2.5703,0.0,0.0,0.0,0.0,0.0,0.0,0.0,-2.5704,-2.5701,-2.5697,-2.5707,-2.5827,-2.5944,0.0,-2.5966,0.0,0.0,-3.0252,-3.0804,-3.0804,-3.0799,-3.1057,-3.1914,-3.2594,-3.3323,-3.434,-3.4462,-3.4672,-3.5493,-3.5612,-3.5584,-3.554,-3.5509,-3.5488,-3.5507,-3.6349,-3.6953,-3.6938,-3.769,-3.8213,-3.8405,-3.8281,-3.8258,-3.845,-3.9165,-3.9546,-3.9546,-3.9546,-3.9561,-3.9552,-3.8878,-3.8898,-3.9552,-3.962,-3.9995,-4.0593,-4.0593,-4.0654,-4.0759,-4.07,-4.07,-4.0746,-4.0733,-4.0733,-4.0759,-4.0733,-4.0733,-4.0778,-4.07,-4.0713,-4.0778,0.0,0.0,0.0,0.0,0.0,0.0,0.0,0.0,0.0,0.0,0.0,0.0,0.0,0.0,0.0,0.0,0.0,0.0,0.0,0.0,0.0,-2.0604,-2.0603,-2.0605,-2.0602,-2.0605,-2.0604,-2.0593,-2.0601,0.0,0.0,0.0,0.0,-2.0593,-2.0593,-2.0593,-2.0633,-2.105,-2.1953,-2.3102,-2.3095,-2.389,-2.5082,-2.5082,-2.508,-2.5137,-2.5544,0.0,0.0,0.0,0.0,0.0,0.0,0.0,-2.5694,-2.5701,-2.5704,0.0,0.0,0.0,0.0,-3.0158,0.0,-3.0799,-3.0799,-3.0799,-3.0916,-3.1334,-3.2435,-3.3556,-3.4345,-3.4803,-3.5166,-3.5581,-3.5615,-3.5589,-3.556,-3.5522,-3.5501,-3.5507,-3.621,-3.6695,-3.6699,-3.7083,-3.749,-3.7862,-3.7544,-3.7502,-3.7924,-3.8416,-3.8681,-3.8681,-3.8676,-3.8671,-3.8681,-3.8285,-3.8317,-3.8733,-3.8794,-3.9245,-4.0036,-4.0488,-4.0713,-4.0746,-4.0746,-4.0778,-4.079,-4.0759,-4.0778,-4.079,-4.0759,-4.0778,-4.079,-4.0759,-4.0778,-4.079,0.0,0.0,0.0,0.0,0.0,0.0,0.0,0.0,0.0,0.0,0.0,0.0,0.0,0.0,0.0,0.0,0.0,0.0,0.0,0.0,0.0,0.0,-2.0605,-2.0605,-2.0605,-2.0603,-2.0605,-2.0596,0.0,0.0,0.0,0.0,0.0,-2.0597,0.0,-2.0672,-2.0869,-2.159,-2.2458,-2.3318,-2.3329,-2.3851,-2.4616,-2.4458,-2.4399,-2.4477,-2.5041,-2.5349,-2.5481,-2.5483,0.0,0.0,0.0,0.0,-2.571,-2.571,-2.5697,0.0,0.0,0.0,-2.826,-3.0297,-3.0643,0.0,-3.076,-3.0794,-3.0808,-3.0898,-3.2175,-3.3483,-3.4156,-3.5057,-3.5708,-3.5707,-3.5637,-3.5604,-3.5596,-3.5528,-3.5489,-3.5501,-3.6084,-3.6493,-3.6503,-3.6479,-3.6781,-3.7448,-3.6863,-3.6815,-3.7526,-3.77,-3.7777,-3.7791,-3.7786,-3.7795,-3.7808,-3.7778,-3.781,-3.7906,-3.8099,-3.8556,-3.9213,-4.014,-4.0623,-4.0733,-4.0778,-4.079,-4.079,-4.079,-4.079,-4.079,-4.079,-4.079,-4.079,-4.079,-4.079,-4.079,0.0,0.0,0.0,0.0,0.0,0.0,0.0,0.0,0.0,0.0,0.0,0.0,0.0,0.0,0.0,0.0,0.0,0.0,0.0,0.0,0.0,-2.0597,-2.0604,-2.0605,-2.0605,-2.0605,-2.0603,-2.0601,0.0,0.0,0.0,0.0,0.0,-2.0605,0.0,0.0,-2.1733,-2.1847,-2.2806,-2.4237,-2.4231,-2.4756,-2.5444,-2.4694,-2.4403,-2.4329,-2.3688,-2.3935,-2.4573,-2.4576,-2.5079,0.0,0.0,0.0,-2.5699,-2.5699,0.0,0.0,0.0,0.0,-2.6792,0.0,-3.001,-2.9518,0.0,0.0,-3.0936,0.0,-3.257,-3.3258,-3.3341,-3.4652,-3.5695,-3.5695,-3.5643,-3.5612,-3.5601,-3.5553,-3.5502,-3.5502,-3.5578,-3.5647,-3.5666,-3.5647,-3.5705,-3.582,-3.5724,-3.5718,-3.5834,-3.6488,-3.6906,-3.6953,-3.6953,-3.6993,-3.7057,-3.6315,-3.6315,-3.7069,-3.7822,-3.8266,-3.8382,-3.927,-4.0075,-4.079,-4.079,-4.079,-4.079,-4.079,-4.079,-4.079,-4.079,-4.079,-4.079,-4.079,-4.079,-4.079,0.0,0.0,0.0,0.0,0.0,0.0,0.0,0.0,0.0,0.0,0.0,0.0,0.0,0.0,0.0,0.0,0.0,0.0,0.0,0.0,0.0,-2.0594,-2.0601,-2.0604,-2.0601,-2.0604,-2.0603,0.0,0.0,0.0,0.0,-2.1788,-2.1751,0.0,0.0,0.0,0.0,-2.2578,-2.3281,-2.4355,-2.3863,-2.4191,-2.4933,-2.4542,-2.4093,-2.3682,-2.3792,-2.4079,-2.4403,-2.4394,-2.4969,-2.5707,-2.5699,0.0,0.0,0.0,0.0,0.0,-2.5654,-2.6111,-2.6962,0.0,-2.9024,-2.9349,-2.9886,0.0,-3.0821,-3.1197,-3.1907,-3.2776,-3.3759,-3.4526,-3.5174,-3.5637,-3.5684,-3.5646,-3.5612,-3.5565,-3.5547,-3.5496,-3.5515,-3.5488,-3.5495,-3.5495,-3.5495,-3.5495,-3.5495,-3.5501,-3.5507,-3.5828,-3.6048,-3.6061,-3.6119,-3.6137,-3.6161,-3.5836,-3.5836,-3.6242,-3.7073,-3.746,-3.7498,-3.8361,-3.9231,-4.005,-4.0578,-4.079,-4.079,-4.079,-4.079,-4.079,-4.079,-4.079,-4.079,-4.079,-4.079,-4.079,0.0,0.0,0.0,0.0,0.0,0.0,0.0,0.0,0.0,0.0,0.0,0.0,0.0,0.0,0.0,0.0,0.0,0.0,0.0,0.0,0.0,-2.0593,-2.0598,-2.0601,-2.0598,-2.0603,0.0,0.0,0.0,0.0,-2.2215,-2.3058,-2.3119,0.0,-2.2928,0.0,0.0,0.0,0.0,-2.4662,-2.4018,-2.415,-2.4711,-2.4484,-2.3996,-2.3482,-2.3911,-2.422,-2.4408,-2.44,-2.4976,-2.5691,-2.5703,-2.5652,0.0,0.0,0.0,0.0,0.0,0.0,-2.6843,-2.6843,-2.7964,-2.9123,0.0,0.0,-3.0704,0.0,-3.1173,-3.2042,-3.3547,-3.3984,-3.4487,-3.5532,-3.5512,-3.5435,-3.5604,-3.5608,-3.5584,-3.554,-3.5541,-3.5528,-3.5534,-3.5528,-3.5528,-3.5528,-3.5528,-3.5522,-3.5534,-3.5522,-3.5528,-3.5528,-3.5558,-3.5612,-3.5631,-3.5673,-3.5704,-3.5704,-3.6303,-3.6593,-3.6613,-3.7483,-3.8206,-3.8839,-3.9966,-4.0462,-4.0462,-4.0462,-4.0326,-4.0152,-4.0384,-4.0462,-4.05,-4.0713,-4.079,-4.079,0.0,0.0,0.0,0.0,0.0,0.0,0.0,0.0,0.0,0.0,0.0,0.0,0.0,0.0,0.0,-2.0594,-2.0594,-2.0593,-2.0593,-2.0593,-2.0593,-2.0593,-2.0597,0.0,-2.0605,-2.0601,0.0,0.0,0.0,0.0,-2.3052,-2.3924,-2.4316,-2.4238,-2.3452,-2.3562,-2.4321,0.0,0.0,-2.5629,-2.557,-2.559,-2.5531,0.0,0.0,0.0,0.0,-2.3708,-2.4408,-2.4394,-2.4973,-2.5691,-2.5703,-2.5652,-2.5604,0.0,0.0,0.0,0.0,-2.5601,0.0,-2.5589,-2.6896,0.0,0.0,0.0,0.0,0.0,-3.0684,-3.1006,-3.1787,-3.2628,-3.3741,-3.5407,-3.5009,-3.4737,-3.5588,-3.5643,-3.5601,-3.5601,-3.5596,-3.5591,-3.5591,-3.5591,-3.5591,-3.5591,-3.5591,-3.5591,-3.5591,-3.5591,-3.5584,-3.5601,-3.5601,-3.5631,-3.5684,-3.5704,-3.5704,-3.5704,-3.5742,-3.5762,-3.5781,-3.6593,-3.7,-3.7116,-3.8818,-3.9584,-3.9584,-3.9584,-3.9069,-3.8431,-3.9243,-3.9584,-3.9681,-4.05,-4.079,-4.079,0.0,0.0,0.0,0.0,0.0,0.0,0.0,0.0,0.0,0.0,0.0,0.0,0.0,-2.0597,-2.0598,-2.0594,-2.0593,-2.0593,-2.0593,-2.0593,-2.0593,-2.0593,-2.0594,-2.0851,-2.1421,-2.1423,0.0,0.0,0.0,-2.3648,-2.3952,-2.4835,-2.5231,-2.5215,-2.4902,-2.494,-2.5232,-2.5229,0.0,0.0,-2.5693,-2.5707,-2.5668,0.0,0.0,0.0,0.0,0.0,0.0,-2.4391,-2.4989,-2.5683,-2.5652,-2.5624,-2.5591,-2.5585,0.0,0.0,0.0,0.0,0.0,-2.5452,-2.6357,-2.7496,-2.8364,-2.8805,-2.9174,-2.9717,-2.9858,-3.0114,-3.0939,-3.1775,-3.2706,-3.3848,-3.4235,-3.4506,-3.4825,-3.5295,-3.5601,-3.5601,-3.5596,-3.5604,-3.5608,-3.5608,-3.5608,-3.5608,-3.5608,-3.5596,-3.5604,-3.5596,-3.5589,-3.5601,-3.5643,-3.5673,-3.5704,-3.5704,-3.5704,-3.5704,-3.5704,-3.5704,-3.5704,-3.5994,-3.6419,-3.6922,-3.756,-3.8141,-3.8663,-3.8663,-3.8489,-3.8237,-3.8547,-3.9011,-3.9545,-3.9855,-4.0307,-4.079,0.0,0.0,0.0,0.0,0.0,0.0,0.0,0.0,0.0,0.0,0.0,0.0,0.0,0.0,-2.0602,-2.0597,-2.0598,-2.0599,-2.0596,-2.0596,-2.0594,-2.0593,-2.0886,-2.1315,-2.1883,-2.1891,-2.2439,0.0,0.0,0.0,0.0,-2.5434,-2.5697,-2.5703,-2.5703,-2.5703,0.0,0.0,0.0,-2.5703,-2.5698,-2.5691,-2.5707,0.0,0.0,0.0,0.0,0.0,0.0,0.0,-2.5192,-2.5652,-2.5615,-2.56,0.0,0.0,0.0,0.0,-2.5452,0.0,0.0,0.0,0.0,-2.6951,-2.752,0.0,-2.8255,-2.8837,-2.9183,-2.9536,-3.0125,-3.0912,-3.1824,-3.2958,-3.3364,-3.3732,-3.4322,-3.4861,-3.5314,-3.5604,-3.562,-3.5639,-3.5631,-3.5643,-3.5643,-3.5643,-3.5623,0.0,-3.562,-3.5635,-3.5626,-3.5635,-3.5684,-3.5704,-3.5704,-3.5704,-3.5704,-3.5704,-3.5704,-3.5704,-3.5704,-3.5704,-3.5994,-3.6497,-3.6497,-3.698,-3.7754,-3.7754,-3.7599,-3.7386,-3.7657,-3.8121,-3.8702,-3.9294,-3.9874,-4.0404,0.0,0.0,0.0,0.0,0.0,0.0,0.0,0.0,0.0,0.0,0.0,0.0,0.0,0.0,0.0,-2.0601,-2.0605,-2.0605,-2.0601,-2.0599,-2.0617,-2.0633,-2.1452,-2.1918,-2.1977,-2.1964,-2.2787,0.0,0.0,0.0,0.0,0.0,-2.5697,-2.5703,-2.5703,-2.5703,-2.57,0.0,-2.5697,-2.5703,0.0,-2.5697,-2.5707,0.0,0.0,0.0,-2.569,-2.5701,0.0,-2.5613,0.0,0.0,0.0,0.0,0.0,0.0,0.0,0.0,0.0,0.0,0.0,0.0,0.0,0.0,-2.6788,0.0,-2.8027,-2.8047,-2.8678,-2.924,-2.9272,-2.9979,-3.1129,-3.2842,-3.2377,-3.2396,-3.4079,-3.4369,-3.4698,-3.5549,-3.5684,-3.5704,-3.5704,-3.5704,-3.5704,-3.5704,-3.5678,-3.5669,-3.5669,-3.565,-3.5669,-3.5707,-3.5706,-3.5704,-3.5704,-3.5704,-3.5704,-3.5704,-3.5704,-3.5704,-3.5704,-3.5704,-3.5704,-3.5704,-3.5704,-3.6149,-3.6864,-3.6864,-3.64,-3.5781,-3.6555,-3.6884,-3.7096,-3.8798,-3.9449,-3.9584,0.0,0.0,0.0,0.0,0.0,0.0,0.0,0.0,0.0,0.0,0.0,0.0,0.0,0.0,-2.0598,-2.0596,-2.0598,-2.0601,-2.0605,-2.0601,-2.0887,-2.1512,-2.1771,-2.2473,-2.3675,-2.3718,-2.4248,0.0,0.0,0.0,0.0,0.0,0.0,0.0,-2.5697,-2.5699,-2.5703,-2.5696,0.0,-2.5698,-2.5709,-2.571,0.0,0.0,0.0,0.0,0.0,-2.5707,-2.5699,0.0,-2.5595,-2.561,0.0,0.0,0.0,0.0,0.0,0.0,-2.5434,0.0,0.0,0.0,0.0,0.0,0.0,0.0,0.0,-2.6958,-2.7252,-2.7602,-2.8231,-2.9033,-2.995,-3.1081,-3.1555,-3.1971,-3.2454,-3.3596,-3.4485,-3.4717,-3.5317,-3.5704,-3.5704,-3.5704,-3.5704,0.0,-3.5115,-3.4747,-3.4747,-3.4758,-3.5048,-3.5676,-3.5695,-3.5704,-3.5704,-3.5704,-3.5704,-3.5704,-3.5704,-3.5704,-3.5704,-3.5704,-3.5704,-3.5704,-3.5704,-3.582,-3.6033,-3.6033,-3.5897,-3.5723,-3.5955,-3.6381,-3.6961,-3.7444,-3.8025,-3.8586,0.0,0.0,0.0,0.0,0.0,0.0,0.0,0.0,0.0,0.0,0.0,0.0,0.0,0.0,0.0,-2.0604,-2.0602,-2.074,-2.1113,-2.1133,-2.1521,-2.2358,-2.2751,-2.3396,-2.4372,-2.4391,-2.4839,-2.5697,0.0,0.0,0.0,0.0,0.0,0.0,0.0,0.0,0.0,0.0,0.0,0.0,-2.5691,0.0,0.0,-2.571,-2.5707,0.0,0.0,0.0,-2.5643,-2.5605,-2.5585,0.0,0.0,0.0,0.0,0.0,0.0,0.0,0.0,0.0,0.0,0.0,0.0,0.0,-2.6067,-2.5793,-2.5588,0.0,-2.6445,-2.6852,-2.7354,-2.8116,-2.883,-2.9371,-2.9864,-3.055,-3.1652,-3.2667,-3.3441,-3.3808,-3.4311,-3.4621,-3.4621,-3.4621,-3.4621,-3.4621,-3.4167,-3.3897,-3.3907,-3.3897,-3.4293,-3.5125,-3.5164,-3.5338,-3.5706,-3.5706,-3.5706,-3.5706,-3.5706,-3.5695,-3.5704,-3.5695,-3.5695,-3.5704,-3.5704,-3.5704,-3.5704,-3.5704,-3.5704,-3.5704,-3.5704,-3.5994,-3.6439,-3.6817,-3.7262,-3.7715,0.0,0.0,0.0,0.0,0.0,0.0,0.0,0.0,0.0,0.0,0.0,0.0,0.0,0.0,0.0,0.0,-2.0741,-2.1113,-2.199,-2.2028,-2.2401,-2.3203,-2.3984,-2.4453,-2.4547,-2.453,-2.4922,-2.5703,0.0,0.0,0.0,0.0,0.0,0.0,0.0,0.0,0.0,0.0,0.0,-2.5699,-2.5698,-2.5691,0.0,0.0,-2.5707,-2.571,-2.5679,-2.5648,-2.5605,-2.5604,-2.557,0.0,0.0,0.0,0.0,0.0,-2.5511,0.0,0.0,0.0,0.0,0.0,0.0,0.0,-2.5421,-2.5393,-2.5393,-2.5387,-2.6014,-2.6573,-2.6679,-2.7268,-2.7817,-2.7961,-2.7943,-2.8743,-3.1188,-3.1594,-3.198,-3.285,-3.3044,-3.3102,-3.3102,-3.3102,-3.3102,-3.3102,-3.3074,-3.3045,-3.3033,-3.3034,-3.3422,-3.4236,-3.4255,-3.4623,-3.5398,-3.5514,-3.5553,-3.5553,-3.5649,-3.5697,-3.5695,-3.5697,-3.5697,-3.5704,-3.5704,-3.5704,-3.5704,-3.5704,-3.5704,-3.5704,-3.5704,-3.5704,-3.5792,-3.6568,-3.6809,-3.6875,0.0,0.0,0.0,0.0,0.0,0.0,0.0,0.0,0.0,0.0,0.0,0.0,0.0,0.0,0.0,0.0,-2.1651,-2.1983,-2.2818,-2.2864,-2.3256,-2.4111,-2.4312,-2.4722,-2.5437,-2.5457,-2.5537,-2.5694,0.0,0.0,0.0,0.0,0.0,0.0,0.0,0.0,0.0,0.0,0.0,-2.5709,-2.5696,0.0,-2.5701,-2.5691,-2.5707,-2.5679,-2.5632,-2.56,-2.5605,-2.5601,-2.5564,-2.5503,0.0,0.0,0.0,-2.5511,0.0,0.0,0.0,0.0,0.0,0.0,0.0,0.0,-2.5397,-2.5406,-2.5387,0.0,-2.5457,-2.5784,-2.6477,-2.6756,-2.7094,-2.7798,-2.7913,-2.8328,-2.9612,-3.0356,-3.109,-3.1941,-3.2675,-3.3111,-3.3102,-3.3102,-3.3102,-3.3102,-3.2454,-3.2077,-3.2058,-3.2077,-3.2484,-3.3325,-3.3344,-3.3441,-3.3615,-3.4303,-3.4642,-3.4662,-3.5359,-3.5708,-3.5697,-3.5707,-3.5697,-3.5704,-3.5704,-3.5704,-3.5704,-3.5704,-3.5704,-3.5704,-3.5704,-3.5704,-3.5734,-3.5891,-3.5959,-3.5959,0.0,0.0,0.0,0.0,0.0,0.0,0.0,0.0,0.0,0.0,0.0,0.0,0.0,0.0,0.0,0.0,0.0,0.0,0.0,-2.374,-2.4149,-2.5004,-2.5047,-2.5242,-2.5687,-2.5707,-2.5707,-2.5707,0.0,0.0,0.0,0.0,0.0,0.0,0.0,0.0,0.0,0.0,-2.5698,-2.5698,-2.5693,0.0,-2.5704,-2.5691,-2.5679,-2.5652,-2.5652,-2.5624,-2.5605,-2.5601,-2.557,0.0,-2.5517,-2.5503,-2.5499,0.0,-2.5499,-2.5492,0.0,0.0,0.0,-2.5456,0.0,0.0,0.0,-2.5397,-2.5379,-2.5313,-2.5303,-2.5418,-2.587,0.0,-2.6111,-2.6583,-2.6641,-2.693,-2.7827,-2.8666,-2.9371,-2.9786,-3.0626,-3.1148,-3.1158,-3.1554,-3.1816,-3.1855,-3.1449,-3.1197,-3.1197,-3.1197,-3.1584,-3.2425,-3.2484,-3.2706,-3.3151,-3.3587,-3.3799,-3.3809,-3.4235,-3.4429,-3.441,-3.4429,-3.4671,-3.5046,-3.5046,-3.5298,-3.5704,-3.5704,-3.5704,-3.5704,-3.5706,-3.5695,-3.5695,-3.5688,-3.5698,-3.5688,0.0,0.0,0.0,0.0,0.0,0.0,0.0,0.0,0.0,0.0,0.0,0.0,0.0,0.0,0.0,0.0,0.0,0.0,0.0,-2.4656,-2.4965,-2.567,-2.5707,-2.5707,-2.5707,-2.5707,-2.5707,-2.5707,0.0,0.0,0.0,0.0,0.0,0.0,0.0,0.0,0.0,0.0,0.0,-2.5947,0.0,-2.5849,-2.5704,-2.5691,-2.5656,-2.5604,-2.5667,-2.5756,-2.5809,-2.5665,-2.5699,-2.5784,-2.5576,-2.5498,0.0,0.0,0.0,0.0,0.0,0.0,0.0,0.0,0.0,-2.5393,0.0,0.0,0.0,0.0,0.0,0.0,0.0,0.0,0.0,0.0,0.0,0.0,0.0,-2.6959,0.0,-2.7856,-2.8531,-2.8955,-2.8955,-2.9593,-3.0095,-3.0327,-3.0346,-3.0424,-3.0598,-3.0607,-3.0897,-3.1545,-3.1622,-3.1999,-3.2684,-3.2878,-3.2945,-3.2951,-3.3128,-3.3179,-3.3113,-3.318,-3.3548,-3.4167,-3.4322,-3.4805,-3.5482,-3.5637,-3.5695,-3.5695,-3.5697,-3.5706,-3.5695,-3.5708,-3.5689,-3.5698,-2.0488,-2.0491,0.0,0.0,0.0,0.0,0.0,0.0,0.0,0.0,0.0,0.0,0.0,0.0,0.0,0.0,0.0,0.0,-2.5494,0.0,-2.5592,-2.5696,-2.5691,-2.5707,-2.5707,-2.5707,-2.5707,-2.5707,0.0,0.0,0.0,0.0,0.0,0.0,-2.569,0.0,0.0,0.0,-2.6147,0.0,-2.6841,-2.6386,0.0,-2.5628,-2.5619,-2.5604,-2.562,-2.6104,-2.6637,0.0,-2.6075,-2.652,0.0,-2.5498,-2.5495,-2.5495,0.0,0.0,0.0,0.0,0.0,0.0,-2.5456,0.0,0.0,0.0,-2.5389,-2.5313,0.0,0.0,0.0,0.0,0.0,0.0,0.0,0.0,-2.5437,-2.5534,-2.6179,-2.7711,-2.7981,-2.8048,-2.8049,-2.8136,-2.8541,-2.9379,-2.9457,-2.9785,-3.0559,-3.0597,-3.0634,-3.0731,-3.0752,-3.0799,-3.0892,-3.1657,-3.2061,-3.2058,-3.2834,-3.3206,-3.3179,-3.3209,-3.3209,-3.3297,-3.4061,-3.4497,-3.4681,-3.5398,-3.5707,-3.5697,-3.5695,-3.5704,-3.5695,-3.5708,-3.5708,-3.5708,-2.0483,-2.0511,0.0,0.0,0.0,0.0,0.0,0.0,0.0,0.0,0.0,0.0,0.0,0.0,0.0,0.0,0.0,-2.4766,0.0,0.0,0.0,-2.5707,-2.5698,-2.5693,-2.5698,-2.5698,-2.5698,-2.5698,-2.5698,0.0,0.0,0.0,0.0,0.0,-2.6191,0.0,-2.6425,0.0,-2.7067,0.0,0.0,0.0,0.0,-2.6933,-2.7108,-2.7099,-2.7062,-2.7303,-2.7517,0.0,-2.6579,0.0,0.0,0.0,0.0,-2.5498,0.0,0.0,0.0,0.0,0.0,0.0,0.0,0.0,-2.5395,0.0,-2.5322,0.0,0.0,0.0,0.0,0.0,0.0,0.0,-2.4859,0.0,0.0,0.0,-2.4438,0.0,0.0,0.0,-2.7856,-2.7894,-2.8068,-2.8501,-2.8549,-2.8713,-2.9068,-2.9096,-2.9345,-2.9885,-2.9907,-3.0148,-3.0645,-3.1014,-3.1196,-3.1204,-3.1538,-3.1685,-3.1687,-3.1698,-3.1941,-3.2414,-3.2783,-3.3547,-3.4536,-3.4856,-3.5282,-3.5708,-3.5698,-3.5707,-3.5697,-3.5747,-3.5766,-3.5766,-2.0459,0.0,0.0,0.0,0.0,0.0,0.0,0.0,0.0,0.0,0.0,0.0,-2.5538,-2.458,0.0,0.0,-2.5115,-2.5013,0.0,0.0,-2.569,0.0,-2.5704,0.0,-2.5704,-2.5684,-2.5684,-2.571,-2.5707,0.0,0.0,0.0,0.0,0.0,0.0,-2.6681,-2.6934,0.0,-2.7756,-2.7663,-2.8296,-2.8315,-2.797,-2.8111,-2.8165,-2.8168,-2.8126,-2.8275,-2.8405,-2.7524,-2.7226,0.0,-2.6152,0.0,-2.5505,0.0,0.0,0.0,-2.551,0.0,0.0,0.0,0.0,0.0,0.0,0.0,0.0,0.0,0.0,0.0,0.0,0.0,0.0,0.0,0.0,-2.3995,0.0,-2.3237,0.0,0.0,0.0,0.0,0.0,-2.7075,-2.7325,-2.7623,-2.7632,-2.7746,-2.7992,-2.802,-2.8454,-2.9369,-2.9389,-2.9804,-3.0688,-3.068,-3.0673,-3.07,-3.0629,-3.0602,-3.0602,-3.0604,-3.0961,-3.1588,-3.1801,-3.2635,-3.3856,-3.4302,-3.4845,-3.5388,-3.564,-3.5728,-3.5737,-3.5785,-3.5803,-3.5803,-2.0395,-2.0454,0.0,0.0,0.0,0.0,0.0,0.0,0.0,0.0,0.0,0.0,0.0,0.0,0.0,0.0,0.0,-2.5678,-2.5694,0.0,-2.5704,0.0,0.0,-2.5694,0.0,-2.5644,-2.5632,-2.571,-2.5697,-2.5694,0.0,0.0,0.0,0.0,0.0,-2.6167,-2.6907,-2.6926,-2.7911,-2.9416,-2.9454,-2.9916,-3.0405,0.0,-2.8094,-2.8099,-2.8097,0.0,0.0,-2.8364,-2.8054,0.0,0.0,0.0,0.0,0.0,0.0,0.0,0.0,0.0,0.0,-2.5511,0.0,0.0,0.0,0.0,-2.5303,0.0,0.0,0.0,0.0,0.0,0.0,0.0,0.0,0.0,0.0,0.0,0.0,0.0,0.0,0.0,0.0,-2.4983,-2.583,-2.6683,-2.6749,-2.7105,-2.7956,-2.807,-2.8493,-2.9369,-2.9334,-2.9745,-3.069,-3.0645,-3.0637,-3.07,-3.064,-3.0613,-3.0602,-3.0604,-3.064,-3.0777,-3.1554,-3.1969,-3.2217,-3.3832,-3.4523,-3.462,-3.5474,-3.5803,-3.5803,-3.5803,-3.5803,-3.5803,0.0,0.0,0.0,0.0,0.0,0.0,0.0,-2.4454,0.0,0.0,0.0,0.0,0.0,-2.5701,-2.5675,0.0,0.0,-2.5648,-2.5703,-2.5664,0.0,0.0,0.0,-2.5624,0.0,-2.5604,-2.5604,-2.5632,-2.5628,-2.5624,0.0,0.0,0.0,0.0,0.0,-2.6977,0.0,0.0,0.0,0.0,0.0,-2.994,-3.0646,0.0,-2.9816,-2.9802,-2.9765,-2.9943,0.0,-2.9241,-2.8582,-2.7838,-2.6389,-2.5735,-2.5495,-2.5495,-2.5507,-2.5511,0.0,0.0,-2.5429,-2.5429,0.0,0.0,0.0,0.0,0.0,0.0,0.0,0.0,0.0,0.0,0.0,0.0,0.0,0.0,0.0,0.0,0.0,0.0,0.0,0.0,0.0,0.0,-2.4656,-2.4968,-2.5506,-2.5986,-2.632,-2.6366,-2.6788,-2.7644,-2.8225,-2.895,-2.9838,-3.0347,-3.061,-3.0637,-3.0602,-3.0629,-3.0665,-3.0665,-3.0673,-3.0722,-3.0994,-3.1441,-3.2043,-3.2551,-3.3472,-3.4528,-3.4822,-3.5288,-3.5801,-3.5801,-3.5801,-3.5801,-2.2111,0.0,0.0,0.0,0.0,0.0,0.0,0.0,0.0,0.0,-2.569,0.0,-2.5671,0.0,-2.5987,0.0,-2.5881,-2.5959,-2.5687,-2.5911,0.0,-2.6126,-2.6389,0.0,0.0,0.0,-2.6062,-2.6053,-2.5756,-2.56,0.0,0.0,0.0,0.0,0.0,-2.7098,-2.8221,-2.8748,-2.9318,0.0,0.0,-3.0178,0.0,0.0,-3.0494,-3.028,0.0,-3.041,-3.01,-2.9896,-2.9256,-2.8299,-2.709,-2.6424,-2.601,-2.5623,-2.5499,-2.5511,-2.5511,-2.5464,0.0,-2.5401,-2.5393,0.0,-2.5395,0.0,-2.4178,0.0,0.0,0.0,0.0,0.0,0.0,0.0,0.0,0.0,0.0,-2.0374,0.0,0.0,0.0,0.0,0.0,-2.3311,-2.378,-2.4102,-2.4659,-2.4993,-2.5043,-2.5333,-2.5902,-2.6764,-2.7656,-2.8509,-2.9389,-3.0203,-3.0602,-3.0602,-3.0602,-3.0637,-3.07,-3.07,-3.0695,-3.069,-3.069,-3.102,-3.1564,-3.1821,-3.278,-3.4109,-3.4384,-3.5033,-3.5799,-3.5799,-3.5799,-3.5799,-2.2899,0.0,0.0,0.0,-2.2559,0.0,0.0,0.0,-2.5662,0.0,-2.5668,-2.5668,-2.5617,-2.6344,-2.6495,-2.5678,-2.6369,-2.6476,-2.5644,-2.6417,0.0,0.0,-2.7723,-2.8209,-2.8209,0.0,0.0,0.0,-2.6012,0.0,0.0,0.0,0.0,0.0,-2.5605,0.0,-2.8132,-2.8132,-2.9104,-3.0642,-3.068,-3.0665,-3.0602,-3.0602,-3.0098,-2.9497,-3.0306,-3.0075,-2.9485,-3.0315,-3.0016,-2.9253,-2.9046,-2.8167,-2.6981,-2.5898,-2.555,-2.5511,-2.5511,-2.5503,-2.5484,-2.5421,-2.5401,0.0,0.0,0.0,-2.4052,0.0,0.0,0.0,0.0,0.0,0.0,0.0,0.0,0.0,0.0,0.0,0.0,0.0,0.0,0.0,0.0,-2.2716,-2.3116,-2.4061,-2.4127,-2.4173,0.0,-2.5008,-2.5848,-2.6703,-2.7574,-2.8454,-2.933,-3.0136,-3.0563,-3.0602,-3.0602,-3.0637,-3.07,-3.07,-3.0695,-3.069,-3.069,-3.069,-3.0768,-3.1584,-3.2458,-3.3313,-3.407,-3.4905,-3.5702,-3.5779,-3.5791,-3.5791,-2.3914,-2.3614,-2.3189,0.0,-2.2956,-2.3373,0.0,0.0,0.0,0.0,-2.5613,-2.5624,-2.5609,-2.5804,-2.5837,-2.5626,-2.5801,0.0,0.0,0.0,0.0,-2.6907,-2.7692,-2.8126,-2.8133,-2.7278,-2.6825,-2.6838,0.0,0.0,-2.5525,0.0,0.0,0.0,0.0,0.0,-2.7168,-2.7168,-2.8165,-2.9784,-3.0388,-3.0621,-3.0602,0.0,-3.0064,-2.9442,-3.0278,-3.0462,-3.0308,-3.053,-3.0027,-2.9407,-2.9986,-2.8797,-2.7136,-2.6845,-2.6169,-2.5484,-2.5429,-2.544,-2.5423,-2.5395,-2.5406,-2.5397,0.0,0.0,0.0,0.0,0.0,0.0,0.0,0.0,0.0,0.0,0.0,0.0,0.0,0.0,0.0,-2.0127,0.0,0.0,0.0,-2.1457,-2.2194,-2.3094,-2.3207,-2.379,-2.5023,-2.4733,-2.4935,-2.5809,-2.6641,-2.7473,-2.836,-2.9203,-2.9956,-3.0602,-3.0593,-3.0637,-3.0703,-3.0707,-3.07,-3.0707,-3.0703,-3.0703,-3.0727,-3.094,-3.155,-3.2353,-3.2501,-3.313,-3.4089,-3.5352,-3.5801,-3.5793,-2.4793,0.0,0.0,-2.3699,0.0,0.0,-2.4234,-2.505,0.0,-2.56,-2.56,0.0,-2.5595,-2.6255,-2.6391,-2.5667,-2.6275,0.0,-2.5657,0.0,0.0,-2.7427,-2.8586,-2.9232,-2.9191,-2.7995,0.0,-2.7372,0.0,0.0,-2.5499,0.0,0.0,0.0,0.0,-2.6055,-2.6871,-2.7226,-2.793,-2.8904,-2.9721,-3.0042,0.0,-3.0025,-2.9735,-2.9317,-2.9416,-2.9717,-3.0037,-3.0037,-2.9959,-2.994,-3.0442,-2.9726,-2.8584,-2.8089,-2.6776,-2.5572,-2.5909,-2.5719,-2.5404,-2.5395,-2.5397,-2.5407,-2.5406,-2.4338,-2.3638,0.0,-2.2997,-2.156,0.0,0.0,0.0,0.0,0.0,0.0,0.0,0.0,0.0,0.0,-2.0136,0.0,0.0,-2.068,-2.1339,-2.2211,-2.2643,0.0,0.0,-2.4574,-2.4968,-2.5492,-2.6268,-2.6945,-2.7426,-2.8324,-2.9018,-2.9508,-2.9508,-2.9726,-3.0125,-3.0129,-3.0316,-3.0665,-3.0688,-3.0695,-3.07,-3.07,-3.1212,-3.2023,-3.2357,-3.2796,-3.3367,-3.4326,-3.4667,-3.4659,-2.5271,0.0,0.0,0.0,0.0,0.0,0.0,-2.5104,0.0,-2.5582,0.0,-2.5589,-2.5596,-2.6896,-2.7194,-2.5731,0.0,-2.7272,-2.5696,-2.7272,-2.823,-2.8099,-2.9768,-3.0626,-3.0427,-2.8904,-2.8039,0.0,0.0,0.0,0.0,0.0,0.0,0.0,0.0,0.0,0.0,-2.7581,-2.7985,-2.816,-2.8841,-2.9212,-2.9282,-2.9173,-2.9143,-2.9046,-2.8283,-2.8565,-2.9311,-2.9311,-2.9882,-3.0598,-3.0597,-3.0606,-3.0382,-2.922,-2.7616,-2.6238,-2.6533,-2.6025,-2.5412,-2.5395,-2.5388,-2.5407,-2.5406,-2.4733,-2.4088,-2.4113,-2.2802,-2.1655,-2.1579,0.0,0.0,0.0,0.0,0.0,0.0,0.0,0.0,0.0,0.0,0.0,0.0,0.0,0.0,0.0,-2.2233,0.0,0.0,0.0,-2.5309,-2.5484,-2.6183,-2.658,-2.6702,-2.752,-2.7973,-2.8097,-2.8094,-2.8547,-2.9408,-2.9389,-2.9826,-3.0602,-3.0673,-3.07,-3.0692,-3.07,-3.1142,-3.1907,-3.261,-3.2865,-3.2876,-3.2865,-3.2865,-3.2895,-2.4496,0.0,0.0,0.0,0.0,-2.5374,-2.5369,-2.5492,-2.5589,-2.5525,-2.5525,-2.5525,-2.5518,-2.5822,-2.5926,-2.5622,-2.6527,0.0,0.0,0.0,0.0,-2.8138,-2.9768,-3.0335,-2.9539,-2.8594,-2.776,0.0,0.0,0.0,0.0,0.0,0.0,0.0,0.0,0.0,-2.5796,-2.6599,0.0,-2.8027,-2.8161,-2.8664,-2.9215,-2.8498,-2.8263,-2.8288,-2.8062,-2.8565,-2.9309,-2.9309,-2.9881,-3.0598,-3.0598,-3.0606,-3.0391,-2.9233,-2.9328,-2.9182,-2.6395,-2.5578,-2.5473,-2.5407,-2.5398,-2.5407,-2.5406,-2.4733,-2.4116,-2.4177,-2.3328,-2.2546,-2.2479,0.0,0.0,0.0,0.0,0.0,0.0,0.0,0.0,0.0,0.0,-2.018,0.0,0.0,0.0,0.0,0.0,-2.2357,-2.3813,0.0,-2.4657,0.0,-2.555,-2.5964,0.0,0.0,-2.7329,-2.8097,-2.8045,-2.8507,-2.9408,-2.9334,-2.979,-3.0604,-3.0665,-3.0673,-3.0618,-3.0676,-3.0787,-3.0943,-3.1076,-3.1146,-3.1138,-3.1083,-3.1058,-3.1264,0.0,0.0,0.0,0.0,0.0,0.0,0.0,-2.6216,-2.6068,-2.5602,-2.5518,-2.5518,-2.5544,-2.5945,-2.6223,-2.6223,-2.7026,-2.7168,-2.632,-2.8235,-2.9016,-2.8143,-2.9745,-3.0225,-2.9328,-2.8485,-2.764,-2.68,0.0,0.0,0.0,0.0,0.0,0.0,0.0,-2.5538,0.0,0.0,0.0,-2.6732,-2.7166,-2.758,-2.7901,-2.7484,-2.7365,-2.735,-2.6889,-2.7257,-2.8078,-2.8487,-2.9195,-2.9843,-2.9379,-2.9861,-3.0382,-2.9223,-2.9724,-3.0148,-2.784,-2.6356,-2.5443,-2.5416,-2.5407,-2.5398,-2.5388,-2.508,-2.4782,-2.4827,-2.409,-2.3304,-2.2748,-2.2642,0.0,0.0,0.0,0.0,0.0,0.0,-2.0623,0.0,0.0,0.0,0.0,0.0,0.0,0.0,0.0,-2.2735,-2.4021,0.0,-2.4726,0.0,0.0,0.0,-2.5401,0.0,-2.626,-2.6693,-2.6666,-2.7119,-2.8004,-2.8001,-2.8706,-2.9926,-3.0005,-3.0265,-3.0645,-3.0703,-3.0683,-3.0661,-3.0645,-3.0657,-3.0649,-3.0604,-3.0597,-3.0723,0.0,-2.5595,0.0,0.0,-2.5868,0.0,-2.6699,-2.6958,-2.683,-2.6178,-2.6074,-2.6081,-2.6133,-2.6676,-2.7071,-2.7078,-2.7867,-2.8022,-2.7207,-2.8725,-2.9187,-2.8113,-2.9694,-3.0025,-2.876,-2.8266,-2.752,0.0,0.0,0.0,0.0,0.0,0.0,0.0,0.0,0.0,0.0,0.0,-2.5596,-2.5793,-2.6257,-2.6547,-2.6683,-2.6508,-2.6475,-2.6459,-2.594,-2.6211,-2.6897,-2.7511,-2.8296,-2.8896,-2.8227,-2.8952,-2.9948,-2.9414,-2.9907,-3.0244,-2.862,-2.6826,-2.5412,-2.5406,-2.5397,-2.5407,-2.5398,-2.5398,-2.535,-2.5157,-2.4571,-2.389,-2.3273,-2.3197,0.0,0.0,0.0,0.0,0.0,0.0,0.0,0.0,0.0,0.0,-2.0203,0.0,0.0,0.0,0.0,-2.3179,-2.4042,-2.4851,-2.5024,-2.4403,-2.5039,-2.5106,-2.4447,0.0,-2.5404,-2.5387,-2.5404,-2.5857,-2.6715,-2.695,-2.7876,-2.9306,-2.9544,-3.0044,-3.0673,-3.0676,-3.0661,-3.0602,-3.0602,-3.0604,-3.0606,-3.0578,-3.0559,-3.0559,0.0,0.0,0.0,0.0,0.0,0.0,-2.6791,-2.7469,-2.7927,-2.7791,-2.7818,-2.7861,-2.7865,-2.7881,-2.7908,-2.7958,-2.8771,-2.8919,-2.8041,-2.9555,-2.9752,-2.8078,-2.9666,-2.9444,-2.6992,-2.7694,-2.7284,0.0,0.0,-2.5495,0.0,0.0,0.0,0.0,0.0,0.0,0.0,-2.5437,-2.5865,-2.6522,-2.589,-2.6044,-2.6625,-2.5898,-2.5611,-2.5698,-2.6359,-2.6688,-2.68,-2.6815,-2.7406,-2.8111,-2.8034,-2.8111,-2.8534,-3.0004,-3.0516,-2.9896,-2.6685,-2.5663,-2.547,-2.5407,-2.5397,-2.5406,-2.5398,-2.5397,-2.5174,-2.4384,-2.4109,-2.4188,-2.4828,-2.4962,-2.4982,0.0,0.0,0.0,0.0,0.0,-2.1163,-2.0312,0.0,0.0,-2.0197,-2.0905,0.0,0.0,-2.2756,-2.3178,-2.4047,-2.4851,-2.5293,-2.5271,-2.5348,-2.5357,-2.5299,-2.5357,-2.5395,-2.5406,-2.5388,-2.5869,-2.6734,-2.7526,-2.8412,-2.9345,-3.0139,-3.0535,-3.061,-3.061,-3.061,-3.0602,-3.0604,-3.0606,-3.0598,-3.053,-3.0471,-3.0428,0.0,0.0,0.0,0.0,0.0,0.0,0.0,-2.8598,-2.9004,-2.95,-2.8702,-2.8105,-2.8099,-2.8085,-2.8279,-2.8824,-2.9156,-2.9206,-2.8892,-2.9965,-3.0055,-2.8825,-2.9464,-2.9079,-2.7503,-2.7337,-2.6688,0.0,0.0,0.0,0.0,0.0,0.0,0.0,0.0,-2.5401,-2.5448,-2.5401,-2.5595,-2.5884,-2.5564,-2.565,-2.5936,-2.5627,-2.5472,-2.5499,-2.5859,-2.5967,-2.5967,-2.594,-2.65,-2.7136,-2.6652,-2.6489,-2.6644,-2.7329,-2.755,-2.7232,-2.5865,-2.5506,-2.5468,-2.5423,-2.5395,-2.5406,-2.5398,-2.537,-2.5254,-2.4945,-2.4859,-2.4937,-2.5206,-2.5293,-2.5332,-2.5361,0.0,0.0,0.0,0.0,0.0,-2.1152,0.0,-2.0979,0.0,-2.0861,0.0,0.0,0.0,-2.3176,-2.4049,-2.4407,-2.4118,-2.3086,0.0,-2.4904,-2.3846,-2.4887,-2.5379,-2.5341,-2.537,-2.5581,-2.5946,-2.6822,-2.7989,-2.9349,-3.019,-3.0567,-3.0613,-3.0613,-3.0613,-3.0604,-3.0606,-3.0578,-3.053,-3.046,-3.0449,-3.0469,-2.7103,0.0,-2.7452,0.0,-2.845,-2.8609,-2.9209,-2.9326,-2.9547,-3.0164,-2.8977,-2.8293,-2.8786,-2.8616,-2.8803,-2.9676,-2.9481,-2.9433,-2.973,-3.0277,-3.022,-2.9339,-2.9543,0.0,-2.8014,-2.7406,-2.6671,-2.5855,-2.5608,0.0,0.0,0.0,0.0,0.0,-2.5404,-2.5395,-2.5395,-2.5404,-2.5393,-2.5393,-2.5401,-2.5429,-2.5464,-2.5484,-2.5456,-2.5401,-2.5456,-2.5448,-2.5393,-2.5401,-2.5815,-2.621,-2.5658,-2.5468,-2.5498,-2.5506,-2.5506,-2.5506,-2.5506,-2.5495,-2.5484,-2.5429,-2.5404,-2.5406,-2.5388,-2.5361,-2.5332,-2.5379,-2.5397,-2.5397,-2.5341,-2.5379,-2.5397,-2.5397,0.0,0.0,0.0,-2.4126,0.0,-2.1743,-2.176,-2.1817,-2.1551,-2.1486,0.0,0.0,0.0,-2.3488,-2.4097,-2.3874,-2.316,-2.1949,0.0,0.0,-2.3193,-2.4666,-2.5361,-2.5303,-2.5351,-2.5389,-2.5437,-2.6581,-2.7874,-2.9313,-3.0134,-3.053,-3.0568,-3.0568,-3.0568,-3.0568,-3.0569,-3.054,-3.0471,-3.0428,-3.0428,-3.0447,-2.8015,-2.8126,-2.8364,-2.9241,-2.9389,-2.9361,-2.9306,-2.9361,-2.9396,-2.9412,-2.8643,-2.8733,-3.0397,-2.9799,-2.9644,-3.0505,-2.9793,-2.9668,-3.0518,-3.0597,-3.0211,0.0,0.0,-2.9766,-2.8053,-2.7995,-2.7561,-2.6683,0.0,0.0,-2.5511,0.0,-2.5404,-2.5401,-2.5397,-2.5388,-2.5406,-2.5387,-2.5387,-2.5395,-2.5393,-2.5401,-2.5401,-2.5464,-2.5456,-2.5401,-2.5401,-2.5404,-2.5395,-2.5393,-2.5401,-2.5401,-2.5401,-2.544,-2.5506,-2.5503,-2.5511,-2.5511,-2.5511,-2.5511,-2.5484,-2.5429,-2.5404,-2.5406,-2.5406,-2.5397,-2.5407,-2.5406,-2.5406,-2.5406,-2.5406,-2.5404,-2.5401,-2.5401,0.0,0.0,0.0,-2.4204,0.0,-2.1814,-2.2366,-2.2547,-2.1679,-2.3157,0.0,0.0,0.0,-2.4188,-2.4204,0.0,0.0,-2.2871,-2.374,0.0,-2.4088,-2.4955,-2.5361,-2.5303,-2.5303,-2.5341,-2.5456,-2.7199,-2.8444,-2.9255,-3.0124,-3.05,-3.0509,-3.0509,-3.0509,-3.0509,-3.0509,-3.0469,-3.0398,-3.0398,-3.0394,-3.041,-2.7958,-2.857,-2.9198,-3.007,-3.0227,-3.0006,-2.9384,-2.9317,-2.9132,-2.8597,-2.8757,-2.8916,-2.8904,-2.9175,-2.971,0.0,-3.0345,-3.0288,0.0,-3.0607,-3.0482,-3.0192,-2.9882,-2.9457,-2.8896,-2.8296,-2.7561,-2.6702,0.0,0.0,0.0,-2.5404,-2.5404,-2.5401,-2.5397,-2.5407,-2.5406,-2.5397,-2.5397,-2.5406,-2.5397,-2.5406,-2.5404,-2.5423,-2.5415,-2.5397,-2.5395,-2.5406,-2.5407,-2.5397,-2.5397,-2.5397,-2.5395,-2.5459,-2.5503,-2.5503,-2.5511,-2.5511,-2.5511,-2.5511,-2.5484,-2.5429,-2.5393,-2.5404,-2.5395,-2.5395,-2.5395,-2.5395,-2.544,-2.5464,-2.5476,-2.5461,-2.5471,-2.5471,-2.5488,0.0,-2.5132,0.0,-2.4664,-2.3516,-2.3661,-2.3727,-2.3404,-2.3376,0.0,0.0,0.0,0.0,0.0,0.0,0.0,0.0,-2.3708,0.0,-2.41,-2.4918,-2.5313,-2.5303,-2.5303,-2.562,-2.6246,-2.7402,-2.8375,-2.9173,-3.004,-3.0436,-3.0428,-3.0428,-3.0428,-3.0428,-3.0428,-3.0406,-3.0402,-3.0402,-3.039,-3.0398,-2.7602,-2.8807,-2.9859,-3.0109,-3.0131,-2.9919,-2.9386,-2.8758,-2.8175,-2.769,-2.8028,-2.8263,-2.8086,-2.8814,0.0,-3.0065,-3.0114,-3.0231,-3.053,-3.055,-3.055,-3.055,-3.0047,-2.9738,-2.9738,-2.8579,0.0,-2.7149,-2.6513,-2.5934,-2.5412,-2.5406,-2.5406,-2.5395,-2.5407,-2.5407,-2.5397,-2.5407,-2.5407,-2.5397,-2.5388,-2.5397,-2.5387,-2.5395,-2.5406,-2.5388,-2.5397,-2.5379,-2.5361,-2.5389,-2.5398,-2.5398,-2.5406,-2.5451,-2.5487,-2.5503,-2.5511,-2.5511,-2.5511,-2.5511,-2.5484,-2.5456,-2.5429,-2.5393,-2.5395,-2.5412,-2.5429,-2.5404,-2.5445,-2.5495,-2.5499,-2.5517,-2.5544,-2.5544,-2.5543,-2.5549,-2.5536,0.0,-2.5185,0.0,0.0,-2.4632,0.0,-2.407,-2.4367,0.0,0.0,0.0,0.0,0.0,-2.275,-2.2412,-2.3507,-2.4107,-2.41,-2.4889,-2.5303,-2.5303,-2.5303,-2.5591,-2.614,-2.7005,-2.7852,-2.8698,-2.9544,-3.0094,-3.0394,-3.0394,-3.0394,-3.0394,-3.0394,-3.0402,-3.0398,-3.0398,-3.0398,-3.0398,-2.7032,-2.8795,-3.0178,0.0,-2.9256,0.0,-2.9137,-2.7791,-2.6761,-2.6722,-2.6699,-2.6992,-2.7746,-2.8647,-2.9197,-2.9197,0.0,0.0,-3.0451,-3.0441,-3.0402,-3.0402,-3.0402,-3.0383,-3.0306,-2.8782,-2.7933,-2.7817,-2.6197,-2.5406,-2.5406,-2.5407,-2.5398,-2.5398,-2.5398,-2.5398,-2.5398,-2.5389,-2.5389,-2.5398,-2.5397,-2.5387,-2.5387,-2.5385,-2.5395,-2.5397,-2.5398,-2.5351,-2.5313,-2.5361,-2.5389,-2.5398,-2.5378,-2.5444,-2.5492,-2.5495,-2.5503,-2.5511,-2.5511,-2.5511,-2.5484,-2.5503,-2.5456,-2.5393,-2.5415,-2.5459,-2.5484,-2.5429,-2.5453,-2.5503,-2.5503,-2.5557,-2.5602,-2.5602,-2.5602,-2.5602,-2.5602,-2.5551,-2.5227,0.0,0.0,0.0,-2.4465,-2.5072,-2.5518,0.0,0.0,0.0,0.0,0.0,-2.2699,-2.1893,-2.3319,-2.4124,-2.4184,-2.4937,-2.5303,-2.5303,-2.5303,-2.5303,-2.5322,-2.6274,-2.7121,-2.7948,-2.8813,-2.964,-3.0398,-3.0398,-3.0398,-3.0398,-3.0398,-3.0398,-3.0398,-3.0398,-3.0398,-3.0398,0.0,0.0,-2.8562,-2.836,-2.8313,-2.8073,-2.7426,-2.6992,-2.6508,-2.5886,-2.6337,-2.6532,-2.6067,-2.7914,-2.8935,-2.8299,-2.9457,-3.0297,-3.0479,-2.9881,-2.9515,-2.9515,-2.9515,-2.9187,-2.8531,-2.8762,-2.8242,-2.6911,-2.5907,-2.5397,-2.5407,-2.5398,-2.5407,-2.5397,-2.5361,-2.5361,-2.5398,-2.5351,-2.5322,-2.5322,-2.5322,-2.5322,-2.5322,-2.5313,-2.5322,-2.5312,-2.5273,-2.5273,-2.5302,-2.5331,-2.5322,-2.5322,-2.5312,-2.5331,-2.5361,-2.547,-2.5506,-2.5487,-2.5503,-2.5456,-2.5448,-2.5487,-2.544,-2.5401,-2.5456,-2.5484,-2.5492,-2.548,-2.549,-2.5511,-2.5564,-2.5589,-2.5593,-2.5593,-2.5601,-2.5601,-2.5607,-2.5601,-2.5511,0.0,-2.5465,-2.5523,-2.5305,-2.5454,-2.557,0.0,0.0,-2.5212,-2.4541,-2.4752,-2.4795,-2.4575,-2.4276,-2.4416,-2.509,-2.5226,-2.5303,-2.5303,-2.5303,-2.5303,-2.5341,-2.689,-2.7698,-2.7986,-2.9448,-3.0217,-3.0398,-3.0398,-3.0398,-3.0398,-3.0398,-3.0398,-3.0398,-3.0398,-3.0398,-3.0398,-2.6277,-2.7179,-2.7868,-2.752,-2.7426,-2.7254,-2.6771,-2.6367,-2.5953,-2.5517,-2.6148,-2.6468,-2.6004,-2.7527,-2.8412,-2.793,-2.9462,-3.0282,-2.9888,-2.9426,-2.9002,-2.8616,-2.8616,-2.8385,-2.7923,-2.7981,-2.7344,-2.6015,-2.5563,-2.5351,-2.5361,-2.5361,-2.5341,-2.5351,-2.5312,-2.5331,-2.5351,-2.5273,-2.5273,-2.5303,-2.5303,-2.5313,-2.5351,-2.5351,-2.5351,-2.5341,-2.5262,-2.5282,-2.5311,-2.5311,-2.5302,-2.5293,-2.5293,-2.5303,-2.5303,-2.536,-2.5425,-2.549,-2.5503,-2.5456,-2.5401,-2.544,-2.5448,-2.5456,-2.5484,-2.5511,-2.5492,-2.5495,-2.5498,-2.5518,-2.5596,-2.5595,-2.5593,-2.5593,-2.5593,-2.5593,-2.5599,-2.5604,-2.5604,-2.5604,-2.5604,-2.5599,-2.5593,-2.5595,-2.5589,-2.555,-2.5518,0.0,-2.4872,-2.5604,-2.5704,-2.4931,-2.4767,-2.4925,-2.5397,-2.5332,-2.5303,-2.5303,-2.5303,-2.5303,-2.5322,-2.6274,-2.714,-2.7948,-2.8852,-2.9698,-3.0398,-3.0398,-3.0398,-3.0398,-3.0398,-3.0398,-3.041,-3.0402,-3.0402,-3.041,-2.5623,-2.6649,-2.7423,-2.6715,-2.6547,-2.6502,-2.6502,-2.5887,-2.5406,-2.5406,-2.5996,-2.6391,-2.6391,-2.7159,-2.7687,-2.7687,-2.911,-2.9706,-2.8967,-2.8794,-2.8409,-2.7736,-2.7698,-2.764,-2.7505,-2.6783,-2.6042,-2.5282,-2.5282,-2.5282,-2.5282,-2.5282,-2.5282,-2.5282,-2.5282,-2.5282,-2.5282,-2.5222,-2.5233,-2.5274,-2.5274,-2.5332,-2.538,-2.538,-2.538,-2.5351,-2.5311,-2.5271,-2.5282,-2.5282,-2.5282,-2.5282,-2.5301,-2.5282,-2.5262,-2.5216,-2.5313,-2.5455,-2.5468,-2.5429,-2.5401,-2.5401,-2.5456,-2.5511,-2.5511,-2.5511,-2.5499,-2.5495,-2.5498,-2.5518,-2.5596,-2.5595,-2.5601,-2.5601,-2.5599,-2.5604,-2.5609,0.0,-2.5649,-2.5785,-2.5809,-2.5843,-2.597,-2.5987,-2.5976,-2.5987,-2.5926,-2.5848,-2.5784,-2.649,-2.6188,-2.4621,-2.5239,-2.553,-2.5406,-2.5467,-2.5495,-2.5495,-2.563,-2.5687,-2.5687,-2.5832,-2.6678,-2.8102,-2.8217,-2.9083,-3.0398,-3.0398,-3.0398,-3.0398,-3.0398,-3.0398,-3.041,-3.0394,-3.0414,-3.041,-2.5519,-2.572,-2.5855,-2.5732,-2.565,-2.5595,-2.5595,-2.5483,-2.5398,-2.5398,-2.5467,-2.5495,-2.5494,-2.6231,-2.6718,-2.6729,-2.7631,-2.8161,-2.8082,-2.7328,-2.6875,-2.6801,-2.6801,-2.6455,-2.5725,-2.5561,-2.5416,-2.5222,-2.5222,-2.5222,-2.5222,-2.5222,-2.5222,-2.5212,-2.522,-2.522,-2.5212,-2.5209,-2.522,-2.5222,-2.5222,-2.5262,-2.5321,-2.5261,-2.5231,-2.5222,-2.5206,-2.5225,-2.5228,-2.5228,-2.522,-2.5241,-2.528,-2.5258,-2.5209,-2.5205,-2.5224,-2.5264,-2.532,-2.5354,-2.5401,-2.5401,-2.5456,-2.5511,-2.5511,-2.5511,-2.5499,-2.5505,-2.5492,-2.5525,-2.5589,-2.5607,-2.5599,-2.5599,-2.5595,-2.561,-2.56,0.0,-2.5872,-2.6617,-2.6709,-2.6971,-2.7647,-2.7718,-2.7712,-2.7718,-2.7704,-2.738,-2.6662,-2.7373,-2.7348,-2.6334,-2.6434,-2.6129,-2.5398,-2.6063,-2.6409,-2.6409,-2.714,-2.7505,-2.7525,-2.8198,-2.8668,-2.8952,-2.9687,-3.0117,-3.0316,-3.0379,-3.0398,-3.0398,-3.0398,-3.0398,-3.0398,-3.041,-3.041,-3.0398,-2.5492,-2.5464,-2.5464,-2.5492,-2.544,-2.5395,-2.5404,-2.536,-2.5351,-2.5351,-2.5322,-2.5302,-2.5292,-2.5606,-2.5806,-2.5787,-2.617,-2.6411,-2.6444,-2.6502,-2.6348,-2.5926,-2.5906,-2.5685,-2.5271,-2.5252,-2.5241,-2.519,-2.519,-2.519,-2.519,-2.519,-2.519,-2.519,-2.5198,-2.5187,-2.5206,-2.5195,-2.5206,-2.519,-2.519,-2.5231,-2.5282,-2.5231,-2.5212,-2.5252,-2.5209,-2.5198,-2.5217,-2.525,-2.522,-2.522,-2.528,-2.525,-2.5198,-2.5203,-2.5234,-2.5264,-2.5303,-2.5348,-2.5401,-2.5404,-2.5448,-2.5511,-2.5511,-2.5511,-2.5499,-2.5505,-2.5499,-2.5525,-2.5595,-2.5607,-2.5607,-2.5607,-2.5595,-2.5591,-2.5595,-2.6009,-2.6456,-2.6856,-2.7312,-2.7554,-2.7457,-2.7873,-2.7964,-2.7498,-2.7854,-2.7903,-2.7474,-2.8236,-2.8296,-2.7426,-2.7372,-2.7142,-2.6747,-2.7122,-2.7063,-2.6621,-2.7445,-2.7588,-2.7166,-2.8022,-2.8664,-2.9113,-2.9533,-2.9956,-3.0367,-3.0398,-3.0398,-3.0398,-3.0398,-3.0398,-3.041,-3.0402,-3.0402,-3.041,-2.5484,-2.5429,-2.5421,-2.5476,-2.5434,-2.5407,-2.5397,-2.5332,-2.5303,-2.5303,-2.5302,-2.5292,-2.5282,-2.5222,-2.5212,-2.519,-2.5201,-2.5201,-2.5201,-2.5868,-2.5974,-2.531,-2.5271,-2.5241,-2.5201,-2.5201,-2.5209,-2.5206,-2.5206,-2.5206,-2.5206,-2.5206,-2.5206,-2.5206,-2.5206,-2.5195,-2.5191,-2.5191,-2.5203,-2.5206,-2.5206,-2.5228,-2.5271,-2.522,-2.5231,-2.5271,-2.5231,-2.5209,-2.5217,-2.5261,-2.5231,-2.5209,-2.5271,-2.525,-2.5228,-2.5201,-2.5244,-2.5284,-2.5293,-2.536,-2.5404,-2.5395,-2.544,-2.5484,-2.5484,-2.5484,-2.5499,-2.5505,-2.5499,-2.5525,-2.5595,-2.5601,-2.5601,-2.5601,0.0,-2.5897,-2.5897,-2.6646,-2.7274,-2.7483,-2.809,-2.8318,-2.7823,-2.839,-2.8495,-2.7828,-2.8365,-2.8589,-2.831,-2.9126,-2.9291,-2.8642,-2.8164,-2.7914,-2.7894,-2.8095,-2.7862,-2.7198,-2.7992,-2.8027,-2.7412,-2.8084,-2.8744,-2.9358,-2.9375,-2.9752,-3.0355,-3.0367,-3.0379,-3.0379,-3.0379,-3.0398,-3.041,-3.0394,-3.0402,-3.041,-2.5429,-2.5401,-2.5393,-2.5415,-2.5397,-2.5398,-2.5398,-2.5332,-2.5302,-2.5303,-2.5302,-2.5282,-2.5212,-2.5192,-2.519,-2.5203,-2.5195,-2.5198,-2.5198,-2.5258,-2.5258,-2.5217,-2.5217,-2.5217,-2.5198,-2.5198,-2.5206,-2.5191,-2.5191,-2.5191,-2.5191,-2.5191,-2.5191,-2.5191,-2.5191,-2.5191,-2.5191,-2.5191,-2.5191,-2.5191,-2.5191,-2.5195,-2.5217,-2.5203,-2.5195,-2.5217,-2.5198,-2.5198,-2.5198,-2.5201,-2.5192,-2.5212,-2.5212,-2.525,-2.5288,-2.5212,-2.5192,-2.5214,-2.5274,-2.5351,-2.5407,-2.5406,-2.5404,-2.5401,-2.5401,-2.5456,-2.5499,-2.5505,-2.5499,-2.5525,-2.5595,-2.5601,-2.5601,-2.5601,0.0,0.0,-2.6796,-2.7547,-2.8394,-2.9205,-2.938,-2.966,-3.0348,-3.049,-3.0496,-3.0416,-3.0467,-3.0122,-2.9248,-3.0034,-3.046,-3.0402,-2.8848,-2.7952,-2.7894,-2.8694,-2.9038,-2.8929,-2.9721,-3.0074,-3.0016,-3.0094,-3.0126,-3.0125,-3.0184,-3.0222,-3.0234,-3.0279,-3.0304,-3.0316,-3.0379,-3.0398,-3.0398,-3.041,-3.041,-3.0398,-2.5404,-2.5395,-2.5406,-2.5406,-2.5379,-2.5341,-2.5341,-2.5312,-2.5292,-2.5243,-2.5241,-2.5239,-2.5209,-2.5198,-2.5195,-2.5191,-2.5195,-2.5206,-2.5203,-2.5195,-2.5206,-2.5187,-2.5195,-2.5203,-2.5203,-2.5203,-2.5203,-2.5191,-2.5191,-2.5191,-2.5191,-2.5191,-2.5191,-2.5191,-2.5191,-2.5191,-2.5191,-2.5191,-2.5191,-2.5191,-2.5191,-2.5203,-2.5206,-2.5203,-2.5203,-2.5198,-2.519,-2.5198,-2.5214,-2.5252,-2.5233,-2.522,-2.5243,-2.5282,-2.5288,-2.5269,-2.5222,-2.5224,-2.5234,-2.5284,-2.5351,-2.5379,-2.5395,-2.5401,-2.5401,-2.5456,-2.5499,-2.5505,-2.5499,-2.5525,-2.5595,-2.5601,-2.5601,-2.5601,0.0,-2.6893,-2.6907,-2.8085,-2.9063,-2.9401,-2.992,-3.0147,-2.9914,-3.0386,-3.0489,-2.9924,-3.0389,-3.0521,-3.0132,-3.0423,-3.0606,-3.0595,-2.9958,-2.9592,-2.9564,-2.9853,-2.9715,-2.9162,-2.9939,-3.0017,-2.9519,-3.0043,-3.0266,-3.0188,-3.0273,-3.0286,-3.0247,-3.0286,-3.0311,-3.0304,-3.0336,-3.0348,-3.0398,-3.0398,-3.0398,-3.0398,-2.5397,-2.5379,-2.5361,-2.537,-2.5313,-2.5264,-2.5264,-2.5271,-2.525,-2.5212,-2.5198,-2.5206,-2.5187,-2.5195,-2.5203,-2.5191,-2.5203,-2.5184,-2.5168,-2.5168,-2.5168,-2.516,-2.5168,-2.5175,-2.5175,-2.5168,-2.5168,-2.5168,-2.518,-2.5191,-2.5191,-2.5191,-2.5191,-2.5191,-2.5191,-2.5191,-2.5191,-2.5191,-2.5191,-2.5203,-2.5203,-2.5195,-2.5187,-2.5195,-2.5195,-2.5206,-2.5209,-2.5198,-2.5206,-2.5243,-2.5262,-2.5241,-2.5283,-2.5302,-2.529,-2.531,-2.5271,-2.5234,-2.5234,-2.5264,-2.5303,-2.5351,-2.5369,-2.5404,-2.5404,-2.544,-2.5464,-2.551,-2.5498,-2.5511,-2.5589,-2.5595,-2.5698,-2.5951,-2.674,-2.7393,-2.7659,-2.8909,-2.981,-2.981,-3.0341,-3.0471,-2.9862,-3.0348,-3.0443,-2.9811,-3.0335,-3.0649,-3.0597,-3.0588,-3.0606,-3.0604,-3.0604,-3.0595,-3.0588,-3.052,-3.0045,-2.9182,-2.9946,-2.9973,-2.9404,-2.9998,-3.024,-3.0207,-3.026,-3.026,-3.0286,-3.0266,-3.0273,-3.0292,-3.0304,-3.0348,-3.0398,-3.0398,-3.0398,-3.0398,-2.5398,-2.5351,-2.5303,-2.5292,-2.5252,-2.5192,-2.5192,-2.5206,-2.5195,-2.5201,-2.5206,-2.5203,-2.5206,-2.5187,-2.5206,-2.5191,-2.5191,-2.5168,-2.5113,-2.5095,-2.5101,-2.5101,-2.5101,-2.5101,-2.5101,-2.5088,-2.5101,-2.5101,-2.5168,-2.5191,-2.5191,-2.5191,-2.5191,-2.5191,-2.5191,-2.5191,-2.5191,-2.5191,-2.5203,-2.5187,-2.5187,-2.5187,-2.5187,-2.5187,-2.5195,-2.5191,-2.5206,-2.5209,-2.5192,-2.5192,-2.5243,-2.5303,-2.5302,-2.5302,-2.5303,-2.5302,-2.5311,-2.5311,-2.5311,-2.5311,-2.5292,-2.5303,-2.5351,-2.5398,-2.5398,-2.5397,-2.5423,-2.5484,-2.5507,-2.5529,-2.559,-2.5609,-2.5873,-2.6767,-2.764,-2.8475,-2.9292,-3.0153,-3.0703,-3.0703,-3.0704,-3.0698,-3.0697,-3.0697,-3.0673,-3.061,-3.0602,-3.0593,-3.0604,-3.0595,-3.0604,-3.0602,-3.0602,-3.0593,-3.0595,-3.0521,-3.0025,-2.9129,-2.9915,-3.0266,-3.0207,-3.0199,-3.0204,-3.0204,-3.0204,-3.0204,-3.0185,-3.0194,-3.0234,-3.0292,-3.0292,-3.0348,-3.0398,-3.0398,-3.0398,-3.0398,-2.5322,-2.5322,-2.5302,-2.5292,-2.5252,-2.5201,-2.5206,-2.5203,-2.5191,-2.513,-2.5137,-2.5137,-2.5203,-2.5203,-2.5203,-2.5191,-2.5191,-2.5168,-2.5095,-2.5101,-2.5076,-2.5037,-2.5076,-2.5101,-2.5101,-2.5088,-2.5101,-2.5101,-2.5168,-2.5191,-2.5191,-2.5191,-2.5191,-2.5191,-2.5191,-2.5191,-2.5191,-2.5191,-2.5191,-2.5203,-2.5206,-2.5187,-2.5187,-2.5187,-2.5206,-2.5206,-2.519,-2.519,-2.5209,-2.5243,-2.5283,-2.5302,-2.5293,-2.5303,-2.5303,-2.5293,-2.5293,-2.5293,-2.5293,-2.5302,-2.5302,-2.5351,-2.5389,-2.5398,-2.5397,-2.5406,-2.5415,-2.5421,-2.5437,-2.5453,-2.5529,-2.5529,-2.5815,-2.6689,-2.7563,-2.8436,-2.9292,-3.0153,-3.0711,-3.0711,-3.0704,-3.0704,-3.0711,-3.069,-3.0695,-3.0673,-3.0621,-3.0613,-3.0593,-3.0604,-3.0604,-3.0602,-3.0602,-3.0322,-2.9687,-3.0231,-3.0342,-3.0013,-3.0158,-3.0207,-3.0199,-3.0194,-3.0166,-3.0123,-3.018,-3.0213,-3.0185,-3.0194,-3.0234,-3.0292,-3.0292,-3.0348,-3.0398,-3.0398,-3.0398,-3.0398,-2.5262,-2.5261,-2.5269,-2.5269,-2.5206,-2.5153,-2.5168,-2.5144,-2.512,-2.5107,-2.5076,-2.5088,-2.5144,-2.5163,-2.5163,-2.5163,-2.5132,-2.5088,-2.507,-2.5057,-2.505,-2.501,-2.5037,-2.5063,-2.5057,-2.5095,-2.5088,-2.5101,-2.5168,-2.5191,-2.5191,-2.5191,-2.5191,-2.5191,-2.5191,-2.5191,-2.5191,-2.5191,-2.5203,-2.5206,-2.5198,-2.5209,-2.5239,-2.5209,-2.5209,-2.5209,-2.519,-2.522,-2.525,-2.5262,-2.5273,-2.5292,-2.5303,-2.5303,-2.5303,-2.5303,-2.5303,-2.5303,-2.5303,-2.5312,-2.5302,-2.5351,-2.5351,-2.537,-2.5351,-2.536,-2.5369,-2.5395,-2.5404,-2.5421,-2.5453,-2.5472,-2.5778,-2.6609,-2.7516,-2.8395,-2.9271,-3.0139,-3.0697,-3.0697,-3.071,-3.0703,-3.0697,-3.0676,-3.0665,-3.066,-3.0615,-3.0606,-3.0595,-3.0595,-3.0604,-3.0593,-3.0593,-3.0324,-2.9786,-3.0229,-3.0271,-2.9886,-3.0094,-3.0199,-3.0138,-2.9841,-2.9655,-2.9613,-2.9325,-2.9396,-2.9688,-2.9696,-2.9947,-3.0292,-3.0292,-3.0348,-3.0398,-3.0398,-3.0379,-3.0367,-2.4998,-2.4965,-2.5,-2.5077,-2.5037,-2.5019,-2.5069,-2.5032,-2.5025,-2.5101,-2.5057,-2.5025,-2.5101,-2.5114,-2.5114,-2.5114,-2.5038,-2.5025,-2.4993,-2.5004,-2.501,-2.501,-2.501,-2.5004,-2.5012,-2.507,-2.5095,-2.5101,-2.5168,-2.5191,-2.5191,-2.5191,-2.518,-2.518,-2.518,-2.518,-2.518,-2.521,-2.5195,-2.5201,-2.5212,-2.5241,-2.5282,-2.5222,-2.5212,-2.5212,-2.5209,-2.525,-2.5282,-2.5222,-2.5252,-2.5292,-2.5303,-2.5303,-2.5303,-2.5303,-2.5303,-2.5303,-2.5303,-2.5312,-2.5292,-2.5303,-2.5312,-2.5292,-2.5303,-2.5303,-2.5313,-2.5389,-2.5388,-2.5387,-2.5393,-2.5448,-2.5754,-2.6575,-2.7427,-2.8303,-2.9261,-3.0086,-3.0613,-3.0685,-3.0703,-3.0695,-3.0685,-3.0645,-3.0595,-3.0607,-3.0607,-3.0607,-3.0598,-3.0606,-3.0604,-3.0604,-3.0604,-3.0539,-3.0394,-3.0309,-2.9925,-2.9198,-2.98,-3.0042,-2.9975,-2.9155,-2.8774,-2.8755,-2.8089,-2.8236,-2.8924,-2.9059,-2.9577,-3.0292,-3.0311,-3.0348,-3.0398,-3.0398,-3.0348,-3.0304,-2.3265,-2.3205,-2.3384,-2.4057,-2.4136,-2.429,-2.4924,-2.5006,-2.5025,-2.5101,-2.5089,-2.5095,-2.5156,-2.5187,-2.5187,-2.5187,-2.5113,-2.5063,-2.4993,-2.5012,-2.4985,-2.501,-2.5004,-2.5012,-2.5089,-2.5101,-2.5095,-2.5101,-2.5168,-2.5191,-2.5191,-2.5156,-2.5125,-2.5125,-2.5125,-2.5125,-2.5125,-2.518,-2.5203,-2.5195,-2.519,-2.5212,-2.5222,-2.5252,-2.5282,-2.5282,-2.5271,-2.5282,-2.5292,-2.5283,-2.5293,-2.5303,-2.5303,-2.5303,-2.5303,-2.5303,-2.5303,-2.5303,-2.5303,-2.5312,-2.5292,-2.5303,-2.5312,-2.5292,-2.5303,-2.5303,-2.5313,-2.5313,-2.5322,-2.5332,-2.5388,-2.537,-2.563,-2.655,-2.6878,-2.7553,-2.9093,-2.9532,-2.9916,-3.0548,-3.0673,-3.0673,-3.0626,-3.061,-3.0593,-3.0593,-3.0593,-3.0604,-3.0595,-3.0649,-3.0657,-3.0602,-3.0602,-3.0229,-2.9486,-2.9424,-2.9598,-3.0037,-2.9453,-2.9169,-2.9136,-2.8259,-2.7878,-2.7897,-2.842,-2.8765,-2.9021,-2.973,-3.0126,-3.0312,-3.0355,-3.0367,-3.0316,-3.0316,-3.0316,-3.0304,-2.2668,-2.2596,-2.2818,-2.3662,-2.3746,-2.4005,-2.4872,-2.4617,-2.4352,-2.4423,-2.4069,-2.3834,-2.3895,-2.4238,-2.4657,-2.5076,-2.507,-2.5044,-2.4999,-2.4985,-2.5004,-2.501,-2.4638,-2.4436,-2.4473,-2.4105,-2.43,-2.5156,-2.5156,-2.5168,-2.521,-2.5132,-2.512,-2.5156,-2.5113,-2.5113,-2.5156,-2.518,-2.5203,-2.5198,-2.5201,-2.5222,-2.5243,-2.5292,-2.5302,-2.5302,-2.5292,-2.5302,-2.5312,-2.5303,-2.5303,-2.5303,-2.5303,-2.5303,-2.5303,-2.5303,-2.5303,-2.5303,-2.5303,-2.5312,-2.5292,-2.5302,-2.5302,-2.5292,-2.5303,-2.5303,-2.5303,-2.5303,-2.5303,-2.5313,-2.5351,-2.5322,-2.5457,-2.5947,-2.6409,-2.7025,-2.7939,-2.8457,-2.8888,-2.9306,-2.9392,-2.9566,-2.9937,-3.0352,-3.0604,-3.0595,-3.0208,-2.9976,-2.9986,-2.9644,-2.9439,-2.9356,-2.9356,-2.9108,-2.8579,-2.8497,-2.8672,-2.906,-2.8949,-2.9098,-2.9441,-2.8169,-2.7826,-2.8202,-2.7866,-2.8166,-2.8989,-2.9481,-2.9928,-3.0312,-3.0374,-3.0379,-3.0348,-3.0316,-3.0279,-3.0196,-2.2182,-2.2114,-2.2324,-2.3127,-2.3207,-2.3477,-2.4415,-2.3901,-2.3415,-2.3499,-2.2868,-2.2451,-2.2495,-2.3114,-2.3784,-2.4504,-2.4561,-2.4561,-2.4561,-2.468,-2.4755,-2.4788,-2.4283,-2.3942,-2.3795,-2.3145,-2.3446,-2.4771,-2.4698,-2.4698,-2.4759,-2.4853,-2.491,-2.4958,-2.5056,-2.5125,-2.518,-2.5191,-2.5206,-2.5201,-2.5212,-2.5233,-2.5274,-2.5292,-2.5302,-2.5303,-2.5302,-2.5312,-2.5303,-2.5303,-2.5313,-2.5313,-2.5313,-2.5313,-2.5293,-2.5293,-2.5293,-2.5303,-2.5303,-2.5293,-2.5292,-2.5292,-2.5292,-2.5302,-2.5293,-2.5303,-2.5303,-2.5313,-2.5313,-2.5313,-2.5313,-2.5313,-2.5303,-2.5303,-2.5948,-2.6516,-2.666,-2.7303,-2.7832,-2.7967,-2.8113,-2.85,-2.9205,-2.993,-3.0423,-3.0569,-2.9785,-2.9282,-2.9302,-2.867,-2.8205,-2.8014,-2.8006,-2.7893,-2.7681,-2.761,-2.7543,-2.7484,-2.83,-2.9041,-2.9632,-2.8237,-2.7913,-2.8412,-2.7319,-2.7542,-2.8714,-2.906,-2.964,-3.0312,-3.0355,-3.0379,-3.0367,-3.0311,-3.0145,-2.9868,-2.0367,-2.0334,-2.057,-2.1317,-2.1425,-2.174,-2.2615,-2.2634,-2.259,-2.2646,-2.2571,-2.2495,-2.25,-2.2595,-2.2684,-2.2754,-2.276,-2.2741,-2.2754,-2.3402,-2.3831,-2.3877,-2.4504,-2.4511,-2.3828,-2.3681,-2.3404,-2.2944,-2.2944,-2.2953,-2.2969,-2.3648,-2.3979,-2.401,-2.4771,-2.5107,-2.5125,-2.5184,-2.5195,-2.5203,-2.519,-2.5212,-2.5222,-2.5282,-2.5302,-2.5303,-2.5303,-2.5303,-2.5303,-2.5303,-2.5341,-2.5389,-2.5389,-2.5351,-2.5293,-2.5293,-2.5293,-2.5303,-2.5303,-2.5303,-2.5293,-2.5292,-2.5302,-2.5293,-2.5302,-2.5293,-2.5313,-2.5361,-2.5351,-2.5313,-2.5389,-2.5341,-2.5303,-2.5303,-2.5409,-2.5755,-2.6516,-2.6756,-2.7132,-2.7827,-2.8579,-2.9081,-2.9197,-2.9313,-2.9699,-3.0462,-2.9719,-2.9245,-2.9302,-2.9193,-2.8794,-2.8014,-2.7997,-2.7615,-2.6773,-2.6702,-2.6638,-2.6586,-2.7453,-2.7885,-2.7935,-2.7703,-2.7285,-2.6797,-2.803,-2.83,-2.7981,-2.9436,-3.0138,-3.0292,-3.0311,-3.0311,-3.0312,-3.024,-2.9726,-2.9055,-1.9952,-1.9908,-2.0144,-2.0954,-2.1073,-2.1337,-2.2211,-2.1934,-2.1645,-2.1721,-2.1293,-2.0979,-2.0984,-2.1424,-2.1897,-2.2363,-2.2382,-2.235,-2.2337,-2.2682,-2.289,-2.2916,-2.288,-2.271,-2.2362,-2.2348,-2.1947,-2.1145,-2.2087,-2.2544,-2.2563,-2.2866,-2.3044,-2.3091,-2.3479,-2.3674,-2.3702,-2.3728,-2.3749,-2.3796,-2.4288,-2.4481,-2.453,-2.505,-2.5262,-2.5312,-2.5303,-2.5303,-2.5303,-2.5303,-2.5351,-2.5398,-2.5398,-2.5379,-2.536,-2.5321,-2.5293,-2.5303,-2.5303,-2.5303,-2.5303,-2.5292,-2.5302,-2.5302,-2.5252,-2.5233,-2.5253,-2.5322,-2.5322,-2.5302,-2.5293,-2.5283,-2.5283,-2.5243,-2.5293,-2.5418,-2.5773,-2.589,-2.6044,-2.641,-2.7228,-2.7749,-2.774,-2.8588,-2.9128,-2.9043,-2.8686,-2.829,-2.7862,-2.7387,-2.6962,-2.6558,-2.6515,-2.6285,-2.5887,-2.5806,-2.5731,-2.569,-2.7007,-2.7885,-2.8324,-2.8289,-2.8332,-2.8474,-2.8741,-2.894,-2.9161,-2.9947,-3.0273,-3.0273,-2.9798,-2.9613,-2.957,-2.9505,-2.9508,-2.9484]}]]